
<gpx xmlns="http://www.topografix.com/GPX/1/1" xmlns:gpxx="http://www.garmin.com/xmlschemas/GpxExtensions/v3" xmlns:xsi="http://www.w3.org/2001/XMLSchema-instance" version="1.1" creator="Adze - https://getadze.com/" xsi:schemaLocation="http://www.topografix.com/GPX/1/1 http://www.topografix.com/GPX/1/1/gpx.xsd">
    <metadata>
        <name>GPS_2019-12-01_002856</name>
        <time>2021-02-23T00:23:48.985Z</time>
    </metadata>
    <trk>
        <name>December 2019</name>
        <extensions>
            <gpxx:TrackExtension>
                <gpxx:DisplayColor>DarkMagenta</gpxx:DisplayColor>
            </gpxx:TrackExtension>
        </extensions>
        <trkseg>
            <trkpt lon="100.487056" lat="14.114245">
                <ele>24.650000</ele>
                <time>2019-12-01T00:28:56Z</time>
            </trkpt>
            <trkpt lon="100.487062" lat="14.114245">
                <ele>21.290000</ele>
                <time>2019-12-01T00:29:02Z</time>
            </trkpt>
            <trkpt lon="100.487061" lat="14.114243">
                <ele>18.400000</ele>
                <time>2019-12-01T00:29:06Z</time>
            </trkpt>
            <trkpt lon="100.487059" lat="14.114242">
                <ele>16.480000</ele>
                <time>2019-12-01T00:29:09Z</time>
            </trkpt>
            <trkpt lon="100.487063" lat="14.114258">
                <ele>13.600000</ele>
                <time>2019-12-01T00:29:17Z</time>
            </trkpt>
            <trkpt lon="100.487063" lat="14.114258">
                <ele>13.120000</ele>
                <time>2019-12-01T00:29:18Z</time>
            </trkpt>
            <trkpt lon="100.487076" lat="14.114248">
                <ele>9.750000</ele>
                <time>2019-12-01T00:29:29Z</time>
            </trkpt>
            <trkpt lon="100.487093" lat="14.114249">
                <ele>6.870000</ele>
                <time>2019-12-01T00:29:47Z</time>
            </trkpt>
            <trkpt lon="100.487082" lat="14.114261">
                <ele>3.500000</ele>
                <time>2019-12-01T00:30:15Z</time>
            </trkpt>
            <trkpt lon="100.487096" lat="14.114253">
                <ele>3.020000</ele>
                <time>2019-12-01T00:31:00Z</time>
            </trkpt>
            <trkpt lon="100.487080" lat="14.114243">
                <ele>2.540000</ele>
                <time>2019-12-01T00:31:46Z</time>
            </trkpt>
            <trkpt lon="100.487086" lat="14.114254">
                <ele>2.540000</ele>
                <time>2019-12-01T00:32:24Z</time>
            </trkpt>
            <trkpt lon="100.487100" lat="14.114220">
                <ele>2.540000</ele>
                <time>2019-12-01T00:33:12Z</time>
            </trkpt>
            <trkpt lon="100.487106" lat="14.114242">
                <ele>2.540000</ele>
                <time>2019-12-01T00:33:53Z</time>
            </trkpt>
            <trkpt lon="100.487065" lat="14.114242">
                <ele>2.060000</ele>
                <time>2019-12-01T00:34:34Z</time>
            </trkpt>
            <trkpt lon="100.487076" lat="14.114231">
                <ele>3.020000</ele>
                <time>2019-12-01T00:35:11Z</time>
            </trkpt>
            <trkpt lon="100.487079" lat="14.114200">
                <ele>3.500000</ele>
                <time>2019-12-01T00:35:39Z</time>
            </trkpt>
            <trkpt lon="100.487059" lat="14.114236">
                <ele>3.020000</ele>
                <time>2019-12-01T00:36:03Z</time>
            </trkpt>
            <trkpt lon="100.487066" lat="14.114286">
                <ele>3.020000</ele>
                <time>2019-12-01T00:36:18Z</time>
            </trkpt>
            <trkpt lon="100.487094" lat="14.114380">
                <ele>3.020000</ele>
                <time>2019-12-01T00:36:31Z</time>
            </trkpt>
            <trkpt lon="100.487131" lat="14.114594">
                <ele>2.540000</ele>
                <time>2019-12-01T00:36:43Z</time>
            </trkpt>
            <trkpt lon="100.487016" lat="14.115086">
                <ele>3.020000</ele>
                <time>2019-12-01T00:36:58Z</time>
            </trkpt>
            <trkpt lon="100.486886" lat="14.115648">
                <ele>3.980000</ele>
                <time>2019-12-01T00:37:15Z</time>
            </trkpt>
            <trkpt lon="100.486906" lat="14.115688">
                <ele>3.980000</ele>
                <time>2019-12-01T00:37:17Z</time>
            </trkpt>
            <trkpt lon="100.486930" lat="14.115703">
                <ele>4.940000</ele>
                <time>2019-12-01T00:37:18Z</time>
            </trkpt>
            <trkpt lon="100.487527" lat="14.115994">
                <ele>3.980000</ele>
                <time>2019-12-01T00:37:36Z</time>
            </trkpt>
            <trkpt lon="100.488138" lat="14.116302">
                <ele>3.980000</ele>
                <time>2019-12-01T00:37:52Z</time>
            </trkpt>
            <trkpt lon="100.488988" lat="14.116521">
                <ele>4.460000</ele>
                <time>2019-12-01T00:38:12Z</time>
            </trkpt>
            <trkpt lon="100.489028" lat="14.116540">
                <ele>3.980000</ele>
                <time>2019-12-01T00:38:13Z</time>
            </trkpt>
            <trkpt lon="100.489065" lat="14.116564">
                <ele>3.980000</ele>
                <time>2019-12-01T00:38:14Z</time>
            </trkpt>
            <trkpt lon="100.489099" lat="14.116591">
                <ele>3.980000</ele>
                <time>2019-12-01T00:38:15Z</time>
            </trkpt>
            <trkpt lon="100.489129" lat="14.116622">
                <ele>3.980000</ele>
                <time>2019-12-01T00:38:16Z</time>
            </trkpt>
            <trkpt lon="100.489155" lat="14.116657">
                <ele>3.980000</ele>
                <time>2019-12-01T00:38:17Z</time>
            </trkpt>
            <trkpt lon="100.489175" lat="14.116695">
                <ele>4.460000</ele>
                <time>2019-12-01T00:38:18Z</time>
            </trkpt>
            <trkpt lon="100.489187" lat="14.116736">
                <ele>4.940000</ele>
                <time>2019-12-01T00:38:19Z</time>
            </trkpt>
            <trkpt lon="100.489194" lat="14.116779">
                <ele>4.940000</ele>
                <time>2019-12-01T00:38:20Z</time>
            </trkpt>
            <trkpt lon="100.489199" lat="14.116822">
                <ele>4.460000</ele>
                <time>2019-12-01T00:38:21Z</time>
            </trkpt>
            <trkpt lon="100.489214" lat="14.117035">
                <ele>4.460000</ele>
                <time>2019-12-01T00:38:26Z</time>
            </trkpt>
            <trkpt lon="100.489235" lat="14.117118">
                <ele>4.460000</ele>
                <time>2019-12-01T00:38:28Z</time>
            </trkpt>
            <trkpt lon="100.489254" lat="14.117157">
                <ele>4.940000</ele>
                <time>2019-12-01T00:38:29Z</time>
            </trkpt>
            <trkpt lon="100.489278" lat="14.117194">
                <ele>4.460000</ele>
                <time>2019-12-01T00:38:30Z</time>
            </trkpt>
            <trkpt lon="100.489309" lat="14.117227">
                <ele>4.460000</ele>
                <time>2019-12-01T00:38:31Z</time>
            </trkpt>
            <trkpt lon="100.489344" lat="14.117256">
                <ele>4.940000</ele>
                <time>2019-12-01T00:38:32Z</time>
            </trkpt>
            <trkpt lon="100.489381" lat="14.117282">
                <ele>3.980000</ele>
                <time>2019-12-01T00:38:33Z</time>
            </trkpt>
            <trkpt lon="100.489420" lat="14.117306">
                <ele>4.460000</ele>
                <time>2019-12-01T00:38:34Z</time>
            </trkpt>
            <trkpt lon="100.489460" lat="14.117325">
                <ele>4.460000</ele>
                <time>2019-12-01T00:38:35Z</time>
            </trkpt>
            <trkpt lon="100.490121" lat="14.117600">
                <ele>3.980000</ele>
                <time>2019-12-01T00:38:51Z</time>
            </trkpt>
            <trkpt lon="100.490762" lat="14.117978">
                <ele>3.980000</ele>
                <time>2019-12-01T00:39:07Z</time>
            </trkpt>
            <trkpt lon="100.491249" lat="14.118220">
                <ele>3.980000</ele>
                <time>2019-12-01T00:39:19Z</time>
            </trkpt>
            <trkpt lon="100.491274" lat="14.118212">
                <ele>3.020000</ele>
                <time>2019-12-01T00:39:20Z</time>
            </trkpt>
            <trkpt lon="100.491513" lat="14.118062">
                <ele>3.020000</ele>
                <time>2019-12-01T00:39:29Z</time>
            </trkpt>
            <trkpt lon="100.491543" lat="14.118067">
                <ele>3.020000</ele>
                <time>2019-12-01T00:39:30Z</time>
            </trkpt>
            <trkpt lon="100.491764" lat="14.118361">
                <ele>2.540000</ele>
                <time>2019-12-01T00:39:44Z</time>
            </trkpt>
            <trkpt lon="100.491706" lat="14.118517">
                <ele>3.980000</ele>
                <time>2019-12-01T00:39:55Z</time>
            </trkpt>
            <trkpt lon="100.491921" lat="14.118791">
                <ele>3.980000</ele>
                <time>2019-12-01T00:40:08Z</time>
            </trkpt>
            <trkpt lon="100.492076" lat="14.118993">
                <ele>3.500000</ele>
                <time>2019-12-01T00:40:18Z</time>
            </trkpt>
            <trkpt lon="100.492153" lat="14.119040">
                <ele>3.020000</ele>
                <time>2019-12-01T00:40:20Z</time>
            </trkpt>
            <trkpt lon="100.492270" lat="14.119103">
                <ele>3.980000</ele>
                <time>2019-12-01T00:40:24Z</time>
            </trkpt>
            <trkpt lon="100.492455" lat="14.119171">
                <ele>3.020000</ele>
                <time>2019-12-01T00:40:29Z</time>
            </trkpt>
            <trkpt lon="100.492798" lat="14.119284">
                <ele>3.020000</ele>
                <time>2019-12-01T00:40:38Z</time>
            </trkpt>
            <trkpt lon="100.493017" lat="14.119407">
                <ele>4.460000</ele>
                <time>2019-12-01T00:40:44Z</time>
            </trkpt>
            <trkpt lon="100.493264" lat="14.119604">
                <ele>3.980000</ele>
                <time>2019-12-01T00:40:52Z</time>
            </trkpt>
            <trkpt lon="100.493330" lat="14.119654">
                <ele>3.980000</ele>
                <time>2019-12-01T00:40:54Z</time>
            </trkpt>
            <trkpt lon="100.493565" lat="14.119613">
                <ele>3.500000</ele>
                <time>2019-12-01T00:41:01Z</time>
            </trkpt>
            <trkpt lon="100.493483" lat="14.119457">
                <ele>2.540000</ele>
                <time>2019-12-01T00:41:05Z</time>
            </trkpt>
            <trkpt lon="100.493386" lat="14.119372">
                <ele>4.940000</ele>
                <time>2019-12-01T00:41:09Z</time>
            </trkpt>
            <trkpt lon="100.493064" lat="14.119160">
                <ele>2.060000</ele>
                <time>2019-12-01T00:41:19Z</time>
            </trkpt>
            <trkpt lon="100.492966" lat="14.119096">
                <ele>3.500000</ele>
                <time>2019-12-01T00:41:22Z</time>
            </trkpt>
            <trkpt lon="100.492931" lat="14.119078">
                <ele>3.500000</ele>
                <time>2019-12-01T00:41:23Z</time>
            </trkpt>
            <trkpt lon="100.492838" lat="14.119027">
                <ele>2.540000</ele>
                <time>2019-12-01T00:41:25Z</time>
            </trkpt>
            <trkpt lon="100.492821" lat="14.118880">
                <ele>2.060000</ele>
                <time>2019-12-01T00:41:31Z</time>
            </trkpt>
            <trkpt lon="100.492940" lat="14.118925">
                <ele>2.060000</ele>
                <time>2019-12-01T00:41:34Z</time>
            </trkpt>
            <trkpt lon="100.493249" lat="14.119115">
                <ele>3.500000</ele>
                <time>2019-12-01T00:41:44Z</time>
            </trkpt>
            <trkpt lon="100.493412" lat="14.119215">
                <ele>2.060000</ele>
                <time>2019-12-01T00:41:49Z</time>
            </trkpt>
            <trkpt lon="100.493449" lat="14.119236">
                <ele>2.060000</ele>
                <time>2019-12-01T00:41:50Z</time>
            </trkpt>
            <trkpt lon="100.493468" lat="14.119107">
                <ele>1.580000</ele>
                <time>2019-12-01T00:41:57Z</time>
            </trkpt>
            <trkpt lon="100.493505" lat="14.119072">
                <ele>2.540000</ele>
                <time>2019-12-01T00:42:06Z</time>
            </trkpt>
            <trkpt lon="100.493718" lat="14.119160">
                <ele>2.540000</ele>
                <time>2019-12-01T00:42:17Z</time>
            </trkpt>
            <trkpt lon="100.493743" lat="14.119056">
                <ele>2.540000</ele>
                <time>2019-12-01T00:42:24Z</time>
            </trkpt>
            <trkpt lon="100.493317" lat="14.118826">
                <ele>2.060000</ele>
                <time>2019-12-01T00:42:39Z</time>
            </trkpt>
            <trkpt lon="100.493249" lat="14.118738">
                <ele>3.020000</ele>
                <time>2019-12-01T00:42:43Z</time>
            </trkpt>
            <trkpt lon="100.493170" lat="14.118593">
                <ele>3.500000</ele>
                <time>2019-12-01T00:42:49Z</time>
            </trkpt>
            <trkpt lon="100.492626" lat="14.118307">
                <ele>2.540000</ele>
                <time>2019-12-01T00:43:07Z</time>
            </trkpt>
            <trkpt lon="100.492509" lat="14.118237">
                <ele>2.540000</ele>
                <time>2019-12-01T00:43:11Z</time>
            </trkpt>
            <trkpt lon="100.492208" lat="14.118087">
                <ele>2.540000</ele>
                <time>2019-12-01T00:43:21Z</time>
            </trkpt>
            <trkpt lon="100.491915" lat="14.117924">
                <ele>2.540000</ele>
                <time>2019-12-01T00:43:31Z</time>
            </trkpt>
            <trkpt lon="100.491733" lat="14.117813">
                <ele>2.060000</ele>
                <time>2019-12-01T00:43:37Z</time>
            </trkpt>
            <trkpt lon="100.491736" lat="14.117680">
                <ele>2.060000</ele>
                <time>2019-12-01T00:43:41Z</time>
            </trkpt>
            <trkpt lon="100.491825" lat="14.117320">
                <ele>0.620000</ele>
                <time>2019-12-01T00:43:52Z</time>
            </trkpt>
            <trkpt lon="100.492074" lat="14.117018">
                <ele>3.020000</ele>
                <time>2019-12-01T00:44:04Z</time>
            </trkpt>
            <trkpt lon="100.492191" lat="14.116826">
                <ele>2.540000</ele>
                <time>2019-12-01T00:44:11Z</time>
            </trkpt>
            <trkpt lon="100.492200" lat="14.116790">
                <ele>3.020000</ele>
                <time>2019-12-01T00:44:25Z</time>
            </trkpt>
            <trkpt lon="100.492205" lat="14.116784">
                <ele>2.060000</ele>
                <time>2019-12-01T00:44:35Z</time>
            </trkpt>
            <trkpt lon="100.492070" lat="14.116623">
                <ele>-0.340000</ele>
                <time>2019-12-01T00:44:45Z</time>
            </trkpt>
            <trkpt lon="100.492084" lat="14.116432">
                <ele>0.140000</ele>
                <time>2019-12-01T00:44:52Z</time>
            </trkpt>
            <trkpt lon="100.492216" lat="14.116264">
                <ele>-0.820000</ele>
                <time>2019-12-01T00:44:59Z</time>
            </trkpt>
            <trkpt lon="100.492488" lat="14.116043">
                <ele>1.100000</ele>
                <time>2019-12-01T00:45:10Z</time>
            </trkpt>
            <trkpt lon="100.492509" lat="14.116023">
                <ele>1.100000</ele>
                <time>2019-12-01T00:45:11Z</time>
            </trkpt>
            <trkpt lon="100.492603" lat="14.116022">
                <ele>2.060000</ele>
                <time>2019-12-01T00:45:20Z</time>
            </trkpt>
            <trkpt lon="100.492610" lat="14.116026">
                <ele>2.540000</ele>
                <time>2019-12-01T00:45:23Z</time>
            </trkpt>
            <trkpt lon="100.492731" lat="14.115794">
                <ele>2.540000</ele>
                <time>2019-12-01T00:45:36Z</time>
            </trkpt>
            <trkpt lon="100.492725" lat="14.115690">
                <ele>1.580000</ele>
                <time>2019-12-01T00:45:39Z</time>
            </trkpt>
            <trkpt lon="100.492821" lat="14.115497">
                <ele>0.620000</ele>
                <time>2019-12-01T00:45:45Z</time>
            </trkpt>
            <trkpt lon="100.493093" lat="14.115314">
                <ele>2.060000</ele>
                <time>2019-12-01T00:45:57Z</time>
            </trkpt>
            <trkpt lon="100.493093" lat="14.115290">
                <ele>2.540000</ele>
                <time>2019-12-01T00:46:00Z</time>
            </trkpt>
            <trkpt lon="100.493057" lat="14.115259">
                <ele>1.580000</ele>
                <time>2019-12-01T00:46:04Z</time>
            </trkpt>
            <trkpt lon="100.492958" lat="14.115255">
                <ele>1.100000</ele>
                <time>2019-12-01T00:46:08Z</time>
            </trkpt>
            <trkpt lon="100.492925" lat="14.115248">
                <ele>1.100000</ele>
                <time>2019-12-01T00:46:09Z</time>
            </trkpt>
            <trkpt lon="100.492578" lat="14.114963">
                <ele>0.140000</ele>
                <time>2019-12-01T00:46:22Z</time>
            </trkpt>
            <trkpt lon="100.492229" lat="14.114714">
                <ele>0.620000</ele>
                <time>2019-12-01T00:46:34Z</time>
            </trkpt>
            <trkpt lon="100.491830" lat="14.114504">
                <ele>1.100000</ele>
                <time>2019-12-01T00:46:47Z</time>
            </trkpt>
            <trkpt lon="100.491582" lat="14.114404">
                <ele>1.100000</ele>
                <time>2019-12-01T00:46:55Z</time>
            </trkpt>
            <trkpt lon="100.491390" lat="14.114128">
                <ele>0.620000</ele>
                <time>2019-12-01T00:47:06Z</time>
            </trkpt>
            <trkpt lon="100.491061" lat="14.113911">
                <ele>0.140000</ele>
                <time>2019-12-01T00:47:18Z</time>
            </trkpt>
            <trkpt lon="100.490958" lat="14.113896">
                <ele>0.620000</ele>
                <time>2019-12-01T00:47:22Z</time>
            </trkpt>
            <trkpt lon="100.490939" lat="14.113849">
                <ele>0.620000</ele>
                <time>2019-12-01T00:47:27Z</time>
            </trkpt>
            <trkpt lon="100.491004" lat="14.113783">
                <ele>0.140000</ele>
                <time>2019-12-01T00:47:31Z</time>
            </trkpt>
            <trkpt lon="100.491082" lat="14.113723">
                <ele>0.620000</ele>
                <time>2019-12-01T00:47:35Z</time>
            </trkpt>
            <trkpt lon="100.491251" lat="14.113577">
                <ele>0.140000</ele>
                <time>2019-12-01T00:47:43Z</time>
            </trkpt>
            <trkpt lon="100.491237" lat="14.113249">
                <ele>0.620000</ele>
                <time>2019-12-01T00:47:54Z</time>
            </trkpt>
            <trkpt lon="100.491140" lat="14.113129">
                <ele>1.580000</ele>
                <time>2019-12-01T00:48:01Z</time>
            </trkpt>
            <trkpt lon="100.490641" lat="14.112882">
                <ele>1.580000</ele>
                <time>2019-12-01T00:48:18Z</time>
            </trkpt>
            <trkpt lon="100.490312" lat="14.112702">
                <ele>2.060000</ele>
                <time>2019-12-01T00:48:33Z</time>
            </trkpt>
            <trkpt lon="100.490313" lat="14.112707">
                <ele>2.060000</ele>
                <time>2019-12-01T00:48:45Z</time>
            </trkpt>
            <trkpt lon="100.490353" lat="14.112727">
                <ele>2.060000</ele>
                <time>2019-12-01T00:48:54Z</time>
            </trkpt>
            <trkpt lon="100.490616" lat="14.112859">
                <ele>2.060000</ele>
                <time>2019-12-01T00:49:08Z</time>
            </trkpt>
            <trkpt lon="100.490743" lat="14.112932">
                <ele>2.540000</ele>
                <time>2019-12-01T00:49:19Z</time>
            </trkpt>
            <trkpt lon="100.490733" lat="14.112935">
                <ele>2.060000</ele>
                <time>2019-12-01T00:49:21Z</time>
            </trkpt>
            <trkpt lon="100.490512" lat="14.113009">
                <ele>-0.340000</ele>
                <time>2019-12-01T00:49:30Z</time>
            </trkpt>
            <trkpt lon="100.490224" lat="14.112869">
                <ele>-0.820000</ele>
                <time>2019-12-01T00:49:39Z</time>
            </trkpt>
            <trkpt lon="100.489960" lat="14.112657">
                <ele>-0.820000</ele>
                <time>2019-12-01T00:49:51Z</time>
            </trkpt>
            <trkpt lon="100.489766" lat="14.112703">
                <ele>-0.820000</ele>
                <time>2019-12-01T00:50:02Z</time>
            </trkpt>
            <trkpt lon="100.489779" lat="14.112700">
                <ele>-0.340000</ele>
                <time>2019-12-01T00:50:05Z</time>
            </trkpt>
            <trkpt lon="100.489945" lat="14.112627">
                <ele>-0.820000</ele>
                <time>2019-12-01T00:50:24Z</time>
            </trkpt>
            <trkpt lon="100.489935" lat="14.112614">
                <ele>-0.820000</ele>
                <time>2019-12-01T00:50:28Z</time>
            </trkpt>
            <trkpt lon="100.489722" lat="14.112478">
                <ele>-0.820000</ele>
                <time>2019-12-01T00:50:42Z</time>
            </trkpt>
            <trkpt lon="100.489507" lat="14.112589">
                <ele>-0.340000</ele>
                <time>2019-12-01T00:50:53Z</time>
            </trkpt>
            <trkpt lon="100.489112" lat="14.112652">
                <ele>-0.340000</ele>
                <time>2019-12-01T00:51:09Z</time>
            </trkpt>
            <trkpt lon="100.488765" lat="14.112645">
                <ele>-0.820000</ele>
                <time>2019-12-01T00:51:21Z</time>
            </trkpt>
            <trkpt lon="100.488501" lat="14.112615">
                <ele>-0.820000</ele>
                <time>2019-12-01T00:51:30Z</time>
            </trkpt>
            <trkpt lon="100.488015" lat="14.112458">
                <ele>-0.340000</ele>
                <time>2019-12-01T00:51:45Z</time>
            </trkpt>
            <trkpt lon="100.487633" lat="14.112219">
                <ele>-0.340000</ele>
                <time>2019-12-01T00:51:58Z</time>
            </trkpt>
            <trkpt lon="100.487072" lat="14.112021">
                <ele>-0.820000</ele>
                <time>2019-12-01T00:52:13Z</time>
            </trkpt>
            <trkpt lon="100.486581" lat="14.111907">
                <ele>-0.820000</ele>
                <time>2019-12-01T00:52:25Z</time>
            </trkpt>
            <trkpt lon="100.486456" lat="14.111873">
                <ele>-0.820000</ele>
                <time>2019-12-01T00:52:28Z</time>
            </trkpt>
            <trkpt lon="100.486122" lat="14.111866">
                <ele>-0.820000</ele>
                <time>2019-12-01T00:52:36Z</time>
            </trkpt>
            <trkpt lon="100.485996" lat="14.111944">
                <ele>-0.340000</ele>
                <time>2019-12-01T00:52:46Z</time>
            </trkpt>
            <trkpt lon="100.486025" lat="14.111931">
                <ele>-0.340000</ele>
                <time>2019-12-01T00:52:50Z</time>
            </trkpt>
            <trkpt lon="100.486203" lat="14.111860">
                <ele>-0.340000</ele>
                <time>2019-12-01T00:53:01Z</time>
            </trkpt>
            <trkpt lon="100.486141" lat="14.111681">
                <ele>-1.300000</ele>
                <time>2019-12-01T00:53:12Z</time>
            </trkpt>
            <trkpt lon="100.486102" lat="14.111655">
                <ele>-1.300000</ele>
                <time>2019-12-01T00:53:14Z</time>
            </trkpt>
            <trkpt lon="100.486068" lat="14.111638">
                <ele>-1.300000</ele>
                <time>2019-12-01T00:53:16Z</time>
            </trkpt>
            <trkpt lon="100.485910" lat="14.111745">
                <ele>-1.790000</ele>
                <time>2019-12-01T00:53:28Z</time>
            </trkpt>
            <trkpt lon="100.485858" lat="14.111802">
                <ele>-1.300000</ele>
                <time>2019-12-01T00:53:42Z</time>
            </trkpt>
            <trkpt lon="100.485873" lat="14.111844">
                <ele>-2.270000</ele>
                <time>2019-12-01T00:53:46Z</time>
            </trkpt>
            <trkpt lon="100.485901" lat="14.111941">
                <ele>-1.300000</ele>
                <time>2019-12-01T00:54:00Z</time>
            </trkpt>
            <trkpt lon="100.485905" lat="14.112019">
                <ele>-0.820000</ele>
                <time>2019-12-01T00:54:13Z</time>
            </trkpt>
            <trkpt lon="100.485929" lat="14.112040">
                <ele>-0.820000</ele>
                <time>2019-12-01T00:54:21Z</time>
            </trkpt>
            <trkpt lon="100.485914" lat="14.112219">
                <ele>-1.300000</ele>
                <time>2019-12-01T00:54:30Z</time>
            </trkpt>
            <trkpt lon="100.485861" lat="14.112314">
                <ele>-0.820000</ele>
                <time>2019-12-01T00:54:35Z</time>
            </trkpt>
            <trkpt lon="100.485648" lat="14.112732">
                <ele>-1.300000</ele>
                <time>2019-12-01T00:54:50Z</time>
            </trkpt>
            <trkpt lon="100.485339" lat="14.112968">
                <ele>-1.300000</ele>
                <time>2019-12-01T00:55:02Z</time>
            </trkpt>
            <trkpt lon="100.485176" lat="14.113066">
                <ele>-0.820000</ele>
                <time>2019-12-01T00:55:12Z</time>
            </trkpt>
            <trkpt lon="100.485148" lat="14.113092">
                <ele>-0.820000</ele>
                <time>2019-12-01T00:55:23Z</time>
            </trkpt>
            <trkpt lon="100.485147" lat="14.113083">
                <ele>-1.300000</ele>
                <time>2019-12-01T00:55:44Z</time>
            </trkpt>
            <trkpt lon="100.485106" lat="14.113068">
                <ele>-1.790000</ele>
                <time>2019-12-01T00:56:17Z</time>
            </trkpt>
            <trkpt lon="100.485114" lat="14.113073">
                <ele>-1.300000</ele>
                <time>2019-12-01T00:57:02Z</time>
            </trkpt>
            <trkpt lon="100.485123" lat="14.113084">
                <ele>-1.300000</ele>
                <time>2019-12-01T00:57:37Z</time>
            </trkpt>
            <trkpt lon="100.485132" lat="14.113074">
                <ele>-0.820000</ele>
                <time>2019-12-01T00:57:52Z</time>
            </trkpt>
            <trkpt lon="100.485162" lat="14.113074">
                <ele>-1.300000</ele>
                <time>2019-12-01T00:58:22Z</time>
            </trkpt>
            <trkpt lon="100.485055" lat="14.113051">
                <ele>-0.820000</ele>
                <time>2019-12-01T00:58:33Z</time>
            </trkpt>
            <trkpt lon="100.484845" lat="14.113035">
                <ele>-1.300000</ele>
                <time>2019-12-01T00:58:46Z</time>
            </trkpt>
            <trkpt lon="100.484663" lat="14.113024">
                <ele>-0.820000</ele>
                <time>2019-12-01T00:59:02Z</time>
            </trkpt>
            <trkpt lon="100.484406" lat="14.112981">
                <ele>-0.820000</ele>
                <time>2019-12-01T00:59:15Z</time>
            </trkpt>
            <trkpt lon="100.483957" lat="14.112892">
                <ele>-0.820000</ele>
                <time>2019-12-01T00:59:32Z</time>
            </trkpt>
            <trkpt lon="100.483548" lat="14.112767">
                <ele>-0.820000</ele>
                <time>2019-12-01T00:59:48Z</time>
            </trkpt>
            <trkpt lon="100.483074" lat="14.112580">
                <ele>-1.300000</ele>
                <time>2019-12-01T01:00:05Z</time>
            </trkpt>
            <trkpt lon="100.482626" lat="14.112327">
                <ele>-0.820000</ele>
                <time>2019-12-01T01:00:23Z</time>
            </trkpt>
            <trkpt lon="100.482190" lat="14.112097">
                <ele>-0.820000</ele>
                <time>2019-12-01T01:00:38Z</time>
            </trkpt>
            <trkpt lon="100.481845" lat="14.111871">
                <ele>0.140000</ele>
                <time>2019-12-01T01:00:52Z</time>
            </trkpt>
            <trkpt lon="100.481824" lat="14.111873">
                <ele>0.140000</ele>
                <time>2019-12-01T01:00:53Z</time>
            </trkpt>
            <trkpt lon="100.481800" lat="14.111880">
                <ele>0.140000</ele>
                <time>2019-12-01T01:00:54Z</time>
            </trkpt>
            <trkpt lon="100.481721" lat="14.111857">
                <ele>0.620000</ele>
                <time>2019-12-01T01:00:57Z</time>
            </trkpt>
            <trkpt lon="100.481343" lat="14.111520">
                <ele>0.620000</ele>
                <time>2019-12-01T01:01:10Z</time>
            </trkpt>
            <trkpt lon="100.480731" lat="14.111174">
                <ele>0.140000</ele>
                <time>2019-12-01T01:01:27Z</time>
            </trkpt>
            <trkpt lon="100.480023" lat="14.110853">
                <ele>0.140000</ele>
                <time>2019-12-01T01:01:44Z</time>
            </trkpt>
            <trkpt lon="100.479225" lat="14.110426">
                <ele>0.620000</ele>
                <time>2019-12-01T01:02:04Z</time>
            </trkpt>
            <trkpt lon="100.478995" lat="14.110300">
                <ele>-2.270000</ele>
                <time>2019-12-01T01:02:10Z</time>
            </trkpt>
            <trkpt lon="100.478789" lat="14.110186">
                <ele>0.140000</ele>
                <time>2019-12-01T01:02:16Z</time>
            </trkpt>
            <trkpt lon="100.478756" lat="14.110172">
                <ele>0.620000</ele>
                <time>2019-12-01T01:02:17Z</time>
            </trkpt>
            <trkpt lon="100.478645" lat="14.110256">
                <ele>-0.340000</ele>
                <time>2019-12-01T01:02:21Z</time>
            </trkpt>
            <trkpt lon="100.478571" lat="14.110512">
                <ele>-0.820000</ele>
                <time>2019-12-01T01:02:27Z</time>
            </trkpt>
            <trkpt lon="100.478435" lat="14.111080">
                <ele>-0.820000</ele>
                <time>2019-12-01T01:02:42Z</time>
            </trkpt>
            <trkpt lon="100.478299" lat="14.111512">
                <ele>0.140000</ele>
                <time>2019-12-01T01:02:57Z</time>
            </trkpt>
            <trkpt lon="100.478300" lat="14.111521">
                <ele>0.140000</ele>
                <time>2019-12-01T01:03:01Z</time>
            </trkpt>
            <trkpt lon="100.478292" lat="14.111537">
                <ele>-0.340000</ele>
                <time>2019-12-01T01:03:20Z</time>
            </trkpt>
            <trkpt lon="100.478295" lat="14.111536">
                <ele>-0.340000</ele>
                <time>2019-12-01T01:03:50Z</time>
            </trkpt>
            <trkpt lon="100.478294" lat="14.111543">
                <ele>-0.340000</ele>
                <time>2019-12-01T01:04:00Z</time>
            </trkpt>
            <trkpt lon="100.478251" lat="14.111619">
                <ele>-0.340000</ele>
                <time>2019-12-01T01:04:05Z</time>
            </trkpt>
            <trkpt lon="100.478007" lat="14.112124">
                <ele>0.140000</ele>
                <time>2019-12-01T01:04:22Z</time>
            </trkpt>
            <trkpt lon="100.477983" lat="14.112148">
                <ele>-0.340000</ele>
                <time>2019-12-01T01:04:23Z</time>
            </trkpt>
            <trkpt lon="100.477848" lat="14.112123">
                <ele>-0.340000</ele>
                <time>2019-12-01T01:04:27Z</time>
            </trkpt>
            <trkpt lon="100.477577" lat="14.111983">
                <ele>0.140000</ele>
                <time>2019-12-01T01:04:35Z</time>
            </trkpt>
            <trkpt lon="100.477505" lat="14.111942">
                <ele>-0.340000</ele>
                <time>2019-12-01T01:04:37Z</time>
            </trkpt>
            <trkpt lon="100.477390" lat="14.111888">
                <ele>0.140000</ele>
                <time>2019-12-01T01:04:40Z</time>
            </trkpt>
            <trkpt lon="100.477315" lat="14.111847">
                <ele>-0.340000</ele>
                <time>2019-12-01T01:04:42Z</time>
            </trkpt>
            <trkpt lon="100.477158" lat="14.111778">
                <ele>-0.340000</ele>
                <time>2019-12-01T01:04:46Z</time>
            </trkpt>
            <trkpt lon="100.476601" lat="14.111491">
                <ele>-0.340000</ele>
                <time>2019-12-01T01:05:01Z</time>
            </trkpt>
            <trkpt lon="100.476630" lat="14.111237">
                <ele>-0.340000</ele>
                <time>2019-12-01T01:05:11Z</time>
            </trkpt>
            <trkpt lon="100.476723" lat="14.110880">
                <ele>0.140000</ele>
                <time>2019-12-01T01:05:26Z</time>
            </trkpt>
            <trkpt lon="100.476719" lat="14.110810">
                <ele>-0.340000</ele>
                <time>2019-12-01T01:05:30Z</time>
            </trkpt>
            <trkpt lon="100.476663" lat="14.110616">
                <ele>-0.820000</ele>
                <time>2019-12-01T01:05:41Z</time>
            </trkpt>
            <trkpt lon="100.476643" lat="14.110614">
                <ele>-0.820000</ele>
                <time>2019-12-01T01:05:42Z</time>
            </trkpt>
            <trkpt lon="100.476188" lat="14.110600">
                <ele>-0.820000</ele>
                <time>2019-12-01T01:06:01Z</time>
            </trkpt>
            <trkpt lon="100.475831" lat="14.110546">
                <ele>-0.820000</ele>
                <time>2019-12-01T01:06:17Z</time>
            </trkpt>
            <trkpt lon="100.475829" lat="14.110517">
                <ele>0.140000</ele>
                <time>2019-12-01T01:06:28Z</time>
            </trkpt>
            <trkpt lon="100.475835" lat="14.110500">
                <ele>0.140000</ele>
                <time>2019-12-01T01:06:42Z</time>
            </trkpt>
            <trkpt lon="100.475829" lat="14.110502">
                <ele>0.140000</ele>
                <time>2019-12-01T01:06:57Z</time>
            </trkpt>
            <trkpt lon="100.475828" lat="14.110487">
                <ele>0.620000</ele>
                <time>2019-12-01T01:07:29Z</time>
            </trkpt>
            <trkpt lon="100.475831" lat="14.110469">
                <ele>-0.340000</ele>
                <time>2019-12-01T01:07:32Z</time>
            </trkpt>
            <trkpt lon="100.475824" lat="14.110414">
                <ele>0.140000</ele>
                <time>2019-12-01T01:07:36Z</time>
            </trkpt>
            <trkpt lon="100.475794" lat="14.110197">
                <ele>-0.340000</ele>
                <time>2019-12-01T01:07:47Z</time>
            </trkpt>
            <trkpt lon="100.475596" lat="14.110156">
                <ele>-0.340000</ele>
                <time>2019-12-01T01:07:57Z</time>
            </trkpt>
            <trkpt lon="100.475559" lat="14.110078">
                <ele>-0.340000</ele>
                <time>2019-12-01T01:08:01Z</time>
            </trkpt>
            <trkpt lon="100.475617" lat="14.109819">
                <ele>-0.820000</ele>
                <time>2019-12-01T01:08:13Z</time>
            </trkpt>
            <trkpt lon="100.475610" lat="14.109830">
                <ele>-0.820000</ele>
                <time>2019-12-01T01:08:28Z</time>
            </trkpt>
            <trkpt lon="100.475571" lat="14.110000">
                <ele>-0.340000</ele>
                <time>2019-12-01T01:08:47Z</time>
            </trkpt>
            <trkpt lon="100.475568" lat="14.110017">
                <ele>-0.820000</ele>
                <time>2019-12-01T01:08:59Z</time>
            </trkpt>
            <trkpt lon="100.475555" lat="14.109997">
                <ele>-0.340000</ele>
                <time>2019-12-01T01:09:41Z</time>
            </trkpt>
            <trkpt lon="100.475557" lat="14.109987">
                <ele>-0.820000</ele>
                <time>2019-12-01T01:10:05Z</time>
            </trkpt>
            <trkpt lon="100.475551" lat="14.109994">
                <ele>-0.340000</ele>
                <time>2019-12-01T01:10:25Z</time>
            </trkpt>
            <trkpt lon="100.475551" lat="14.109991">
                <ele>-0.820000</ele>
                <time>2019-12-01T01:10:45Z</time>
            </trkpt>
            <trkpt lon="100.475552" lat="14.109982">
                <ele>-0.820000</ele>
                <time>2019-12-01T01:11:10Z</time>
            </trkpt>
            <trkpt lon="100.475560" lat="14.109987">
                <ele>-0.820000</ele>
                <time>2019-12-01T01:11:41Z</time>
            </trkpt>
            <trkpt lon="100.475564" lat="14.109977">
                <ele>-1.300000</ele>
                <time>2019-12-01T01:12:00Z</time>
            </trkpt>
            <trkpt lon="100.475684" lat="14.109561">
                <ele>-0.820000</ele>
                <time>2019-12-01T01:12:17Z</time>
            </trkpt>
            <trkpt lon="100.475730" lat="14.109232">
                <ele>-0.340000</ele>
                <time>2019-12-01T01:12:29Z</time>
            </trkpt>
            <trkpt lon="100.475754" lat="14.109186">
                <ele>-0.340000</ele>
                <time>2019-12-01T01:12:32Z</time>
            </trkpt>
            <trkpt lon="100.475783" lat="14.109067">
                <ele>-0.820000</ele>
                <time>2019-12-01T01:12:40Z</time>
            </trkpt>
            <trkpt lon="100.475820" lat="14.108989">
                <ele>-0.820000</ele>
                <time>2019-12-01T01:12:44Z</time>
            </trkpt>
            <trkpt lon="100.475837" lat="14.108863">
                <ele>0.140000</ele>
                <time>2019-12-01T01:12:49Z</time>
            </trkpt>
            <trkpt lon="100.475612" lat="14.108678">
                <ele>-0.820000</ele>
                <time>2019-12-01T01:13:00Z</time>
            </trkpt>
            <trkpt lon="100.475693" lat="14.108196">
                <ele>-0.820000</ele>
                <time>2019-12-01T01:13:14Z</time>
            </trkpt>
            <trkpt lon="100.475829" lat="14.108036">
                <ele>-0.820000</ele>
                <time>2019-12-01T01:13:20Z</time>
            </trkpt>
            <trkpt lon="100.475920" lat="14.107908">
                <ele>-0.820000</ele>
                <time>2019-12-01T01:13:24Z</time>
            </trkpt>
            <trkpt lon="100.475951" lat="14.107824">
                <ele>-1.300000</ele>
                <time>2019-12-01T01:13:26Z</time>
            </trkpt>
            <trkpt lon="100.475906" lat="14.107392">
                <ele>-1.790000</ele>
                <time>2019-12-01T01:13:39Z</time>
            </trkpt>
            <trkpt lon="100.475903" lat="14.107400">
                <ele>-0.820000</ele>
                <time>2019-12-01T01:13:55Z</time>
            </trkpt>
            <trkpt lon="100.475910" lat="14.107400">
                <ele>-1.790000</ele>
                <time>2019-12-01T01:14:14Z</time>
            </trkpt>
            <trkpt lon="100.475904" lat="14.107418">
                <ele>-2.270000</ele>
                <time>2019-12-01T01:14:51Z</time>
            </trkpt>
            <trkpt lon="100.475914" lat="14.107410">
                <ele>-1.790000</ele>
                <time>2019-12-01T01:15:22Z</time>
            </trkpt>
            <trkpt lon="100.475921" lat="14.107422">
                <ele>-2.270000</ele>
                <time>2019-12-01T01:15:56Z</time>
            </trkpt>
            <trkpt lon="100.475895" lat="14.107405">
                <ele>-1.790000</ele>
                <time>2019-12-01T01:16:42Z</time>
            </trkpt>
            <trkpt lon="100.475907" lat="14.107396">
                <ele>-2.270000</ele>
                <time>2019-12-01T01:17:17Z</time>
            </trkpt>
            <trkpt lon="100.475894" lat="14.107390">
                <ele>-1.790000</ele>
                <time>2019-12-01T01:18:02Z</time>
            </trkpt>
            <trkpt lon="100.475902" lat="14.107386">
                <ele>-2.270000</ele>
                <time>2019-12-01T01:18:46Z</time>
            </trkpt>
            <trkpt lon="100.475897" lat="14.107387">
                <ele>-2.270000</ele>
                <time>2019-12-01T01:19:29Z</time>
            </trkpt>
            <trkpt lon="100.475897" lat="14.107390">
                <ele>-2.750000</ele>
                <time>2019-12-01T01:20:20Z</time>
            </trkpt>
            <trkpt lon="100.475887" lat="14.107392">
                <ele>-2.750000</ele>
                <time>2019-12-01T01:21:04Z</time>
            </trkpt>
            <trkpt lon="100.475896" lat="14.107384">
                <ele>-2.270000</ele>
                <time>2019-12-01T01:21:52Z</time>
            </trkpt>
            <trkpt lon="100.475891" lat="14.107394">
                <ele>-2.270000</ele>
                <time>2019-12-01T01:22:29Z</time>
            </trkpt>
            <trkpt lon="100.475892" lat="14.107391">
                <ele>-2.270000</ele>
                <time>2019-12-01T01:23:05Z</time>
            </trkpt>
            <trkpt lon="100.475897" lat="14.107403">
                <ele>-2.270000</ele>
                <time>2019-12-01T01:23:41Z</time>
            </trkpt>
            <trkpt lon="100.475886" lat="14.107407">
                <ele>-2.270000</ele>
                <time>2019-12-01T01:24:20Z</time>
            </trkpt>
            <trkpt lon="100.475891" lat="14.107411">
                <ele>-1.790000</ele>
                <time>2019-12-01T01:25:01Z</time>
            </trkpt>
            <trkpt lon="100.475907" lat="14.107403">
                <ele>-2.270000</ele>
                <time>2019-12-01T01:25:44Z</time>
            </trkpt>
            <trkpt lon="100.475892" lat="14.107405">
                <ele>-2.270000</ele>
                <time>2019-12-01T01:26:19Z</time>
            </trkpt>
            <trkpt lon="100.475870" lat="14.107373">
                <ele>-1.790000</ele>
                <time>2019-12-01T01:26:26Z</time>
            </trkpt>
            <trkpt lon="100.475752" lat="14.107355">
                <ele>-2.270000</ele>
                <time>2019-12-01T01:26:31Z</time>
            </trkpt>
            <trkpt lon="100.475241" lat="14.107583">
                <ele>-2.270000</ele>
                <time>2019-12-01T01:26:47Z</time>
            </trkpt>
            <trkpt lon="100.475053" lat="14.107642">
                <ele>-2.270000</ele>
                <time>2019-12-01T01:26:52Z</time>
            </trkpt>
            <trkpt lon="100.474911" lat="14.107533">
                <ele>-2.270000</ele>
                <time>2019-12-01T01:26:57Z</time>
            </trkpt>
            <trkpt lon="100.474635" lat="14.107086">
                <ele>-2.750000</ele>
                <time>2019-12-01T01:27:10Z</time>
            </trkpt>
            <trkpt lon="100.474343" lat="14.106779">
                <ele>-0.340000</ele>
                <time>2019-12-01T01:27:20Z</time>
            </trkpt>
            <trkpt lon="100.474099" lat="14.106222">
                <ele>-1.300000</ele>
                <time>2019-12-01T01:27:35Z</time>
            </trkpt>
            <trkpt lon="100.473863" lat="14.105683">
                <ele>-1.300000</ele>
                <time>2019-12-01T01:27:50Z</time>
            </trkpt>
            <trkpt lon="100.473721" lat="14.105354">
                <ele>-1.300000</ele>
                <time>2019-12-01T01:27:59Z</time>
            </trkpt>
            <trkpt lon="100.473965" lat="14.105194">
                <ele>-1.790000</ele>
                <time>2019-12-01T01:28:07Z</time>
            </trkpt>
            <trkpt lon="100.474435" lat="14.104993">
                <ele>-2.270000</ele>
                <time>2019-12-01T01:28:21Z</time>
            </trkpt>
            <trkpt lon="100.474480" lat="14.104945">
                <ele>-1.790000</ele>
                <time>2019-12-01T01:28:32Z</time>
            </trkpt>
            <trkpt lon="100.474540" lat="14.104917">
                <ele>-1.300000</ele>
                <time>2019-12-01T01:28:42Z</time>
            </trkpt>
            <trkpt lon="100.474760" lat="14.104823">
                <ele>-1.300000</ele>
                <time>2019-12-01T01:28:56Z</time>
            </trkpt>
            <trkpt lon="100.474784" lat="14.104818">
                <ele>-1.790000</ele>
                <time>2019-12-01T01:29:09Z</time>
            </trkpt>
            <trkpt lon="100.474787" lat="14.104822">
                <ele>-1.790000</ele>
                <time>2019-12-01T01:29:18Z</time>
            </trkpt>
            <trkpt lon="100.475176" lat="14.104855">
                <ele>-1.300000</ele>
                <time>2019-12-01T01:29:33Z</time>
            </trkpt>
            <trkpt lon="100.475824" lat="14.104879">
                <ele>-1.300000</ele>
                <time>2019-12-01T01:29:50Z</time>
            </trkpt>
            <trkpt lon="100.476208" lat="14.104812">
                <ele>-2.270000</ele>
                <time>2019-12-01T01:30:01Z</time>
            </trkpt>
            <trkpt lon="100.476438" lat="14.104884">
                <ele>-2.270000</ele>
                <time>2019-12-01T01:30:08Z</time>
            </trkpt>
            <trkpt lon="100.476825" lat="14.104793">
                <ele>-2.270000</ele>
                <time>2019-12-01T01:30:20Z</time>
            </trkpt>
            <trkpt lon="100.477309" lat="14.104987">
                <ele>-1.790000</ele>
                <time>2019-12-01T01:30:36Z</time>
            </trkpt>
            <trkpt lon="100.477750" lat="14.105026">
                <ele>-2.270000</ele>
                <time>2019-12-01T01:30:49Z</time>
            </trkpt>
            <trkpt lon="100.478280" lat="14.105100">
                <ele>-1.790000</ele>
                <time>2019-12-01T01:31:05Z</time>
            </trkpt>
            <trkpt lon="100.478387" lat="14.105126">
                <ele>-1.790000</ele>
                <time>2019-12-01T01:31:12Z</time>
            </trkpt>
            <trkpt lon="100.478410" lat="14.105115">
                <ele>-1.790000</ele>
                <time>2019-12-01T01:31:24Z</time>
            </trkpt>
            <trkpt lon="100.478424" lat="14.105116">
                <ele>-1.790000</ele>
                <time>2019-12-01T01:31:28Z</time>
            </trkpt>
            <trkpt lon="100.478544" lat="14.105122">
                <ele>-1.790000</ele>
                <time>2019-12-01T01:31:34Z</time>
            </trkpt>
            <trkpt lon="100.478629" lat="14.105078">
                <ele>-1.300000</ele>
                <time>2019-12-01T01:31:39Z</time>
            </trkpt>
            <trkpt lon="100.478966" lat="14.104828">
                <ele>-2.270000</ele>
                <time>2019-12-01T01:31:56Z</time>
            </trkpt>
            <trkpt lon="100.479322" lat="14.104710">
                <ele>-1.790000</ele>
                <time>2019-12-01T01:32:09Z</time>
            </trkpt>
            <trkpt lon="100.479408" lat="14.104488">
                <ele>-2.270000</ele>
                <time>2019-12-01T01:32:16Z</time>
            </trkpt>
            <trkpt lon="100.479359" lat="14.103957">
                <ele>-2.270000</ele>
                <time>2019-12-01T01:32:31Z</time>
            </trkpt>
            <trkpt lon="100.479239" lat="14.103982">
                <ele>-1.790000</ele>
                <time>2019-12-01T01:32:39Z</time>
            </trkpt>
            <trkpt lon="100.479237" lat="14.104072">
                <ele>-1.790000</ele>
                <time>2019-12-01T01:32:50Z</time>
            </trkpt>
            <trkpt lon="100.479231" lat="14.104077">
                <ele>-1.790000</ele>
                <time>2019-12-01T01:33:10Z</time>
            </trkpt>
            <trkpt lon="100.479233" lat="14.104082">
                <ele>-1.790000</ele>
                <time>2019-12-01T01:33:12Z</time>
            </trkpt>
            <trkpt lon="100.479245" lat="14.104138">
                <ele>-2.270000</ele>
                <time>2019-12-01T01:33:16Z</time>
            </trkpt>
            <trkpt lon="100.479232" lat="14.104590">
                <ele>-1.300000</ele>
                <time>2019-12-01T01:33:32Z</time>
            </trkpt>
            <trkpt lon="100.479240" lat="14.104607">
                <ele>-1.790000</ele>
                <time>2019-12-01T01:33:33Z</time>
            </trkpt>
            <trkpt lon="100.479205" lat="14.104674">
                <ele>-1.790000</ele>
                <time>2019-12-01T01:33:37Z</time>
            </trkpt>
            <trkpt lon="100.479089" lat="14.104757">
                <ele>-2.270000</ele>
                <time>2019-12-01T01:33:44Z</time>
            </trkpt>
            <trkpt lon="100.478943" lat="14.104740">
                <ele>-1.790000</ele>
                <time>2019-12-01T01:33:58Z</time>
            </trkpt>
            <trkpt lon="100.478943" lat="14.104745">
                <ele>-1.790000</ele>
                <time>2019-12-01T01:34:17Z</time>
            </trkpt>
            <trkpt lon="100.478944" lat="14.104743">
                <ele>-1.790000</ele>
                <time>2019-12-01T01:34:19Z</time>
            </trkpt>
            <trkpt lon="100.478859" lat="14.104736">
                <ele>-1.790000</ele>
                <time>2019-12-01T01:34:24Z</time>
            </trkpt>
            <trkpt lon="100.478798" lat="14.104736">
                <ele>-1.790000</ele>
                <time>2019-12-01T01:34:26Z</time>
            </trkpt>
            <trkpt lon="100.478702" lat="14.104662">
                <ele>-1.790000</ele>
                <time>2019-12-01T01:34:30Z</time>
            </trkpt>
            <trkpt lon="100.478317" lat="14.104601">
                <ele>-2.270000</ele>
                <time>2019-12-01T01:34:46Z</time>
            </trkpt>
            <trkpt lon="100.477965" lat="14.104562">
                <ele>-1.790000</ele>
                <time>2019-12-01T01:35:02Z</time>
            </trkpt>
            <trkpt lon="100.477529" lat="14.104502">
                <ele>-2.270000</ele>
                <time>2019-12-01T01:35:21Z</time>
            </trkpt>
            <trkpt lon="100.477047" lat="14.104450">
                <ele>-1.790000</ele>
                <time>2019-12-01T01:35:42Z</time>
            </trkpt>
            <trkpt lon="100.476608" lat="14.104399">
                <ele>-2.270000</ele>
                <time>2019-12-01T01:36:01Z</time>
            </trkpt>
            <trkpt lon="100.476157" lat="14.104345">
                <ele>-1.790000</ele>
                <time>2019-12-01T01:36:20Z</time>
            </trkpt>
            <trkpt lon="100.475849" lat="14.104333">
                <ele>-1.790000</ele>
                <time>2019-12-01T01:36:34Z</time>
            </trkpt>
            <trkpt lon="100.475558" lat="14.104285">
                <ele>-2.270000</ele>
                <time>2019-12-01T01:36:48Z</time>
            </trkpt>
            <trkpt lon="100.475503" lat="14.104333">
                <ele>-1.790000</ele>
                <time>2019-12-01T01:37:01Z</time>
            </trkpt>
            <trkpt lon="100.475506" lat="14.104328">
                <ele>-1.790000</ele>
                <time>2019-12-01T01:37:27Z</time>
            </trkpt>
            <trkpt lon="100.475510" lat="14.104332">
                <ele>-0.820000</ele>
                <time>2019-12-01T01:37:33Z</time>
            </trkpt>
            <trkpt lon="100.475471" lat="14.104348">
                <ele>-1.790000</ele>
                <time>2019-12-01T01:37:45Z</time>
            </trkpt>
            <trkpt lon="100.475476" lat="14.104344">
                <ele>-1.790000</ele>
                <time>2019-12-01T01:38:09Z</time>
            </trkpt>
            <trkpt lon="100.475475" lat="14.104345">
                <ele>-1.790000</ele>
                <time>2019-12-01T01:38:10Z</time>
            </trkpt>
            <trkpt lon="100.475321" lat="14.104413">
                <ele>-1.790000</ele>
                <time>2019-12-01T01:38:20Z</time>
            </trkpt>
            <trkpt lon="100.474773" lat="14.104680">
                <ele>-1.300000</ele>
                <time>2019-12-01T01:38:38Z</time>
            </trkpt>
            <trkpt lon="100.474417" lat="14.104842">
                <ele>-1.300000</ele>
                <time>2019-12-01T01:38:50Z</time>
            </trkpt>
            <trkpt lon="100.474185" lat="14.104972">
                <ele>-0.820000</ele>
                <time>2019-12-01T01:39:02Z</time>
            </trkpt>
            <trkpt lon="100.474112" lat="14.104986">
                <ele>-1.300000</ele>
                <time>2019-12-01T01:39:19Z</time>
            </trkpt>
            <trkpt lon="100.473688" lat="14.105183">
                <ele>-1.300000</ele>
                <time>2019-12-01T01:39:34Z</time>
            </trkpt>
            <trkpt lon="100.473151" lat="14.105444">
                <ele>-1.300000</ele>
                <time>2019-12-01T01:39:49Z</time>
            </trkpt>
            <trkpt lon="100.472773" lat="14.105617">
                <ele>-1.790000</ele>
                <time>2019-12-01T01:40:01Z</time>
            </trkpt>
            <trkpt lon="100.472594" lat="14.105728">
                <ele>-1.790000</ele>
                <time>2019-12-01T01:40:11Z</time>
            </trkpt>
            <trkpt lon="100.472046" lat="14.106000">
                <ele>-1.300000</ele>
                <time>2019-12-01T01:40:29Z</time>
            </trkpt>
            <trkpt lon="100.471529" lat="14.106235">
                <ele>-2.270000</ele>
                <time>2019-12-01T01:40:43Z</time>
            </trkpt>
            <trkpt lon="100.470903" lat="14.106538">
                <ele>-1.790000</ele>
                <time>2019-12-01T01:41:00Z</time>
            </trkpt>
            <trkpt lon="100.470314" lat="14.106829">
                <ele>-2.270000</ele>
                <time>2019-12-01T01:41:16Z</time>
            </trkpt>
            <trkpt lon="100.469750" lat="14.107116">
                <ele>-1.790000</ele>
                <time>2019-12-01T01:41:32Z</time>
            </trkpt>
            <trkpt lon="100.469241" lat="14.107333">
                <ele>-2.270000</ele>
                <time>2019-12-01T01:41:46Z</time>
            </trkpt>
            <trkpt lon="100.468910" lat="14.107474">
                <ele>-1.790000</ele>
                <time>2019-12-01T01:41:58Z</time>
            </trkpt>
            <trkpt lon="100.468642" lat="14.107640">
                <ele>-1.790000</ele>
                <time>2019-12-01T01:42:10Z</time>
            </trkpt>
            <trkpt lon="100.468392" lat="14.107806">
                <ele>-1.790000</ele>
                <time>2019-12-01T01:42:23Z</time>
            </trkpt>
            <trkpt lon="100.468252" lat="14.107866">
                <ele>-1.790000</ele>
                <time>2019-12-01T01:42:35Z</time>
            </trkpt>
            <trkpt lon="100.468244" lat="14.107825">
                <ele>-1.300000</ele>
                <time>2019-12-01T01:42:41Z</time>
            </trkpt>
            <trkpt lon="100.468100" lat="14.107668">
                <ele>-1.790000</ele>
                <time>2019-12-01T01:42:57Z</time>
            </trkpt>
            <trkpt lon="100.468075" lat="14.107638">
                <ele>-1.790000</ele>
                <time>2019-12-01T01:43:00Z</time>
            </trkpt>
            <trkpt lon="100.468053" lat="14.107633">
                <ele>-1.790000</ele>
                <time>2019-12-01T01:43:02Z</time>
            </trkpt>
            <trkpt lon="100.468014" lat="14.107675">
                <ele>-1.790000</ele>
                <time>2019-12-01T01:43:06Z</time>
            </trkpt>
            <trkpt lon="100.467750" lat="14.107921">
                <ele>-1.790000</ele>
                <time>2019-12-01T01:43:24Z</time>
            </trkpt>
            <trkpt lon="100.467720" lat="14.107947">
                <ele>-1.300000</ele>
                <time>2019-12-01T01:43:26Z</time>
            </trkpt>
            <trkpt lon="100.467589" lat="14.107850">
                <ele>-1.300000</ele>
                <time>2019-12-01T01:43:34Z</time>
            </trkpt>
            <trkpt lon="100.467403" lat="14.107603">
                <ele>-1.300000</ele>
                <time>2019-12-01T01:43:48Z</time>
            </trkpt>
            <trkpt lon="100.467358" lat="14.107588">
                <ele>-1.300000</ele>
                <time>2019-12-01T01:43:50Z</time>
            </trkpt>
            <trkpt lon="100.467019" lat="14.107899">
                <ele>-0.820000</ele>
                <time>2019-12-01T01:44:06Z</time>
            </trkpt>
            <trkpt lon="100.466858" lat="14.108077">
                <ele>-1.790000</ele>
                <time>2019-12-01T01:44:13Z</time>
            </trkpt>
            <trkpt lon="100.466815" lat="14.108075">
                <ele>-1.790000</ele>
                <time>2019-12-01T01:44:15Z</time>
            </trkpt>
            <trkpt lon="100.466801" lat="14.108054">
                <ele>-2.270000</ele>
                <time>2019-12-01T01:44:16Z</time>
            </trkpt>
            <trkpt lon="100.466792" lat="14.108030">
                <ele>-1.790000</ele>
                <time>2019-12-01T01:44:17Z</time>
            </trkpt>
            <trkpt lon="100.466778" lat="14.108006">
                <ele>-1.790000</ele>
                <time>2019-12-01T01:44:18Z</time>
            </trkpt>
            <trkpt lon="100.466762" lat="14.107982">
                <ele>-1.790000</ele>
                <time>2019-12-01T01:44:19Z</time>
            </trkpt>
            <trkpt lon="100.466743" lat="14.107959">
                <ele>-1.790000</ele>
                <time>2019-12-01T01:44:20Z</time>
            </trkpt>
            <trkpt lon="100.466722" lat="14.107934">
                <ele>-1.790000</ele>
                <time>2019-12-01T01:44:21Z</time>
            </trkpt>
            <trkpt lon="100.466260" lat="14.107538">
                <ele>-1.790000</ele>
                <time>2019-12-01T01:44:37Z</time>
            </trkpt>
            <trkpt lon="100.465803" lat="14.106981">
                <ele>-1.300000</ele>
                <time>2019-12-01T01:44:54Z</time>
            </trkpt>
            <trkpt lon="100.465233" lat="14.106281">
                <ele>-1.300000</ele>
                <time>2019-12-01T01:45:14Z</time>
            </trkpt>
            <trkpt lon="100.464642" lat="14.105489">
                <ele>-1.300000</ele>
                <time>2019-12-01T01:45:34Z</time>
            </trkpt>
            <trkpt lon="100.464378" lat="14.105078">
                <ele>-1.300000</ele>
                <time>2019-12-01T01:45:44Z</time>
            </trkpt>
            <trkpt lon="100.464013" lat="14.104475">
                <ele>-1.790000</ele>
                <time>2019-12-01T01:45:59Z</time>
            </trkpt>
            <trkpt lon="100.463870" lat="14.104231">
                <ele>-1.300000</ele>
                <time>2019-12-01T01:46:05Z</time>
            </trkpt>
            <trkpt lon="100.463836" lat="14.104198">
                <ele>-1.300000</ele>
                <time>2019-12-01T01:46:06Z</time>
            </trkpt>
            <trkpt lon="100.463798" lat="14.104170">
                <ele>-1.300000</ele>
                <time>2019-12-01T01:46:07Z</time>
            </trkpt>
            <trkpt lon="100.463757" lat="14.104146">
                <ele>-0.820000</ele>
                <time>2019-12-01T01:46:08Z</time>
            </trkpt>
            <trkpt lon="100.463714" lat="14.104124">
                <ele>-1.300000</ele>
                <time>2019-12-01T01:46:09Z</time>
            </trkpt>
            <trkpt lon="100.463631" lat="14.104076">
                <ele>-1.300000</ele>
                <time>2019-12-01T01:46:11Z</time>
            </trkpt>
            <trkpt lon="100.463594" lat="14.104046">
                <ele>-1.790000</ele>
                <time>2019-12-01T01:46:12Z</time>
            </trkpt>
            <trkpt lon="100.463560" lat="14.104012">
                <ele>-1.300000</ele>
                <time>2019-12-01T01:46:13Z</time>
            </trkpt>
            <trkpt lon="100.463529" lat="14.103975">
                <ele>-0.820000</ele>
                <time>2019-12-01T01:46:14Z</time>
            </trkpt>
            <trkpt lon="100.463500" lat="14.103936">
                <ele>-1.300000</ele>
                <time>2019-12-01T01:46:15Z</time>
            </trkpt>
            <trkpt lon="100.463414" lat="14.103771">
                <ele>-0.820000</ele>
                <time>2019-12-01T01:46:19Z</time>
            </trkpt>
            <trkpt lon="100.463402" lat="14.103734">
                <ele>-0.820000</ele>
                <time>2019-12-01T01:46:20Z</time>
            </trkpt>
            <trkpt lon="100.463402" lat="14.103700">
                <ele>-0.820000</ele>
                <time>2019-12-01T01:46:21Z</time>
            </trkpt>
            <trkpt lon="100.463414" lat="14.103674">
                <ele>-0.340000</ele>
                <time>2019-12-01T01:46:22Z</time>
            </trkpt>
            <trkpt lon="100.463426" lat="14.103654">
                <ele>0.140000</ele>
                <time>2019-12-01T01:46:23Z</time>
            </trkpt>
            <trkpt lon="100.463437" lat="14.103635">
                <ele>0.140000</ele>
                <time>2019-12-01T01:46:24Z</time>
            </trkpt>
            <trkpt lon="100.463438" lat="14.103616">
                <ele>0.140000</ele>
                <time>2019-12-01T01:46:25Z</time>
            </trkpt>
            <trkpt lon="100.463427" lat="14.103593">
                <ele>0.140000</ele>
                <time>2019-12-01T01:46:26Z</time>
            </trkpt>
            <trkpt lon="100.463405" lat="14.103577">
                <ele>0.140000</ele>
                <time>2019-12-01T01:46:27Z</time>
            </trkpt>
            <trkpt lon="100.463375" lat="14.103575">
                <ele>-0.340000</ele>
                <time>2019-12-01T01:46:28Z</time>
            </trkpt>
            <trkpt lon="100.463347" lat="14.103582">
                <ele>0.140000</ele>
                <time>2019-12-01T01:46:29Z</time>
            </trkpt>
            <trkpt lon="100.463322" lat="14.103593">
                <ele>0.620000</ele>
                <time>2019-12-01T01:46:30Z</time>
            </trkpt>
            <trkpt lon="100.463295" lat="14.103605">
                <ele>0.620000</ele>
                <time>2019-12-01T01:46:31Z</time>
            </trkpt>
            <trkpt lon="100.462871" lat="14.103801">
                <ele>2.060000</ele>
                <time>2019-12-01T01:46:46Z</time>
            </trkpt>
            <trkpt lon="100.462565" lat="14.103912">
                <ele>-0.340000</ele>
                <time>2019-12-01T01:46:51Z</time>
            </trkpt>
            <trkpt lon="100.461806" lat="14.104223">
                <ele>-0.340000</ele>
                <time>2019-12-01T01:47:06Z</time>
            </trkpt>
            <trkpt lon="100.461749" lat="14.104269">
                <ele>0.140000</ele>
                <time>2019-12-01T01:47:09Z</time>
            </trkpt>
            <trkpt lon="100.461745" lat="14.104300">
                <ele>-0.340000</ele>
                <time>2019-12-01T01:47:10Z</time>
            </trkpt>
            <trkpt lon="100.461756" lat="14.104335">
                <ele>0.140000</ele>
                <time>2019-12-01T01:47:11Z</time>
            </trkpt>
            <trkpt lon="100.461777" lat="14.104366">
                <ele>-0.340000</ele>
                <time>2019-12-01T01:47:12Z</time>
            </trkpt>
            <trkpt lon="100.461803" lat="14.104396">
                <ele>-0.340000</ele>
                <time>2019-12-01T01:47:13Z</time>
            </trkpt>
            <trkpt lon="100.461881" lat="14.104493">
                <ele>-0.340000</ele>
                <time>2019-12-01T01:47:16Z</time>
            </trkpt>
            <trkpt lon="100.461908" lat="14.104526">
                <ele>-0.340000</ele>
                <time>2019-12-01T01:47:17Z</time>
            </trkpt>
            <trkpt lon="100.462352" lat="14.105219">
                <ele>-0.340000</ele>
                <time>2019-12-01T01:47:35Z</time>
            </trkpt>
            <trkpt lon="100.462840" lat="14.106019">
                <ele>-0.340000</ele>
                <time>2019-12-01T01:47:54Z</time>
            </trkpt>
            <trkpt lon="100.463292" lat="14.106749">
                <ele>-0.340000</ele>
                <time>2019-12-01T01:48:11Z</time>
            </trkpt>
            <trkpt lon="100.463465" lat="14.107047">
                <ele>0.140000</ele>
                <time>2019-12-01T01:48:18Z</time>
            </trkpt>
            <trkpt lon="100.463487" lat="14.107088">
                <ele>0.140000</ele>
                <time>2019-12-01T01:48:19Z</time>
            </trkpt>
            <trkpt lon="100.463861" lat="14.107696">
                <ele>0.140000</ele>
                <time>2019-12-01T01:48:35Z</time>
            </trkpt>
            <trkpt lon="100.463888" lat="14.107736">
                <ele>-0.340000</ele>
                <time>2019-12-01T01:48:36Z</time>
            </trkpt>
            <trkpt lon="100.464319" lat="14.108443">
                <ele>-0.340000</ele>
                <time>2019-12-01T01:48:53Z</time>
            </trkpt>
            <trkpt lon="100.464776" lat="14.109077">
                <ele>-0.340000</ele>
                <time>2019-12-01T01:49:09Z</time>
            </trkpt>
            <trkpt lon="100.464990" lat="14.109361">
                <ele>0.140000</ele>
                <time>2019-12-01T01:49:17Z</time>
            </trkpt>
            <trkpt lon="100.464973" lat="14.109401">
                <ele>-0.340000</ele>
                <time>2019-12-01T01:49:18Z</time>
            </trkpt>
            <trkpt lon="100.464784" lat="14.109467">
                <ele>-1.300000</ele>
                <time>2019-12-01T01:49:22Z</time>
            </trkpt>
            <trkpt lon="100.463692" lat="14.109462">
                <ele>-0.820000</ele>
                <time>2019-12-01T01:49:44Z</time>
            </trkpt>
            <trkpt lon="100.462839" lat="14.109496">
                <ele>-1.300000</ele>
                <time>2019-12-01T01:50:02Z</time>
            </trkpt>
            <trkpt lon="100.462484" lat="14.109481">
                <ele>-1.300000</ele>
                <time>2019-12-01T01:50:14Z</time>
            </trkpt>
            <trkpt lon="100.462410" lat="14.109598">
                <ele>-1.300000</ele>
                <time>2019-12-01T01:50:24Z</time>
            </trkpt>
            <trkpt lon="100.462408" lat="14.109636">
                <ele>-1.300000</ele>
                <time>2019-12-01T01:50:26Z</time>
            </trkpt>
            <trkpt lon="100.462406" lat="14.109674">
                <ele>-1.790000</ele>
                <time>2019-12-01T01:50:28Z</time>
            </trkpt>
            <trkpt lon="100.462375" lat="14.109732">
                <ele>-1.300000</ele>
                <time>2019-12-01T01:50:32Z</time>
            </trkpt>
            <trkpt lon="100.462301" lat="14.109766">
                <ele>-1.790000</ele>
                <time>2019-12-01T01:50:37Z</time>
            </trkpt>
            <trkpt lon="100.462222" lat="14.109769">
                <ele>-1.300000</ele>
                <time>2019-12-01T01:50:41Z</time>
            </trkpt>
            <trkpt lon="100.462175" lat="14.109750">
                <ele>-1.790000</ele>
                <time>2019-12-01T01:50:44Z</time>
            </trkpt>
            <trkpt lon="100.462111" lat="14.109758">
                <ele>-0.820000</ele>
                <time>2019-12-01T01:50:48Z</time>
            </trkpt>
            <trkpt lon="100.462007" lat="14.109754">
                <ele>-1.300000</ele>
                <time>2019-12-01T01:50:55Z</time>
            </trkpt>
            <trkpt lon="100.461887" lat="14.109771">
                <ele>-9.960000</ele>
                <time>2019-12-01T01:51:03Z</time>
            </trkpt>
            <trkpt lon="100.461888" lat="14.109769">
                <ele>0.620000</ele>
                <time>2019-12-01T01:51:04Z</time>
            </trkpt>
            <trkpt lon="100.461880" lat="14.109769">
                <ele>-1.300000</ele>
                <time>2019-12-01T01:51:07Z</time>
            </trkpt>
            <trkpt lon="100.461875" lat="14.109784">
                <ele>-1.790000</ele>
                <time>2019-12-01T01:51:22Z</time>
            </trkpt>
            <trkpt lon="100.461876" lat="14.109841">
                <ele>-2.270000</ele>
                <time>2019-12-01T01:51:35Z</time>
            </trkpt>
            <trkpt lon="100.461842" lat="14.110132">
                <ele>-1.790000</ele>
                <time>2019-12-01T01:51:50Z</time>
            </trkpt>
            <trkpt lon="100.461809" lat="14.110646">
                <ele>-1.790000</ele>
                <time>2019-12-01T01:52:12Z</time>
            </trkpt>
            <trkpt lon="100.461774" lat="14.110990">
                <ele>-1.790000</ele>
                <time>2019-12-01T01:52:28Z</time>
            </trkpt>
            <trkpt lon="100.461762" lat="14.111094">
                <ele>-1.790000</ele>
                <time>2019-12-01T01:52:33Z</time>
            </trkpt>
            <trkpt lon="100.461731" lat="14.111288">
                <ele>-1.790000</ele>
                <time>2019-12-01T01:52:42Z</time>
            </trkpt>
            <trkpt lon="100.461636" lat="14.111871">
                <ele>-1.790000</ele>
                <time>2019-12-01T01:53:02Z</time>
            </trkpt>
            <trkpt lon="100.461635" lat="14.111894">
                <ele>-1.790000</ele>
                <time>2019-12-01T01:53:03Z</time>
            </trkpt>
            <trkpt lon="100.461619" lat="14.111923">
                <ele>-1.790000</ele>
                <time>2019-12-01T01:53:15Z</time>
            </trkpt>
            <trkpt lon="100.461599" lat="14.111917">
                <ele>-0.820000</ele>
                <time>2019-12-01T01:53:44Z</time>
            </trkpt>
            <trkpt lon="100.461591" lat="14.111917">
                <ele>-1.300000</ele>
                <time>2019-12-01T01:54:00Z</time>
            </trkpt>
            <trkpt lon="100.461582" lat="14.111918">
                <ele>-0.820000</ele>
                <time>2019-12-01T01:54:01Z</time>
            </trkpt>
            <trkpt lon="100.461184" lat="14.111949">
                <ele>-1.300000</ele>
                <time>2019-12-01T01:54:15Z</time>
            </trkpt>
            <trkpt lon="100.460576" lat="14.111935">
                <ele>-1.300000</ele>
                <time>2019-12-01T01:54:33Z</time>
            </trkpt>
            <trkpt lon="100.460107" lat="14.111904">
                <ele>-1.300000</ele>
                <time>2019-12-01T01:54:46Z</time>
            </trkpt>
            <trkpt lon="100.460006" lat="14.111832">
                <ele>-0.820000</ele>
                <time>2019-12-01T01:54:50Z</time>
            </trkpt>
            <trkpt lon="100.459326" lat="14.111742">
                <ele>-0.820000</ele>
                <time>2019-12-01T01:55:10Z</time>
            </trkpt>
            <trkpt lon="100.458611" lat="14.111683">
                <ele>-1.790000</ele>
                <time>2019-12-01T01:55:31Z</time>
            </trkpt>
            <trkpt lon="100.458022" lat="14.111636">
                <ele>-0.820000</ele>
                <time>2019-12-01T01:55:49Z</time>
            </trkpt>
            <trkpt lon="100.457345" lat="14.111586">
                <ele>-1.300000</ele>
                <time>2019-12-01T01:56:09Z</time>
            </trkpt>
            <trkpt lon="100.457066" lat="14.111574">
                <ele>-1.300000</ele>
                <time>2019-12-01T01:56:22Z</time>
            </trkpt>
            <trkpt lon="100.457061" lat="14.111588">
                <ele>-0.820000</ele>
                <time>2019-12-01T01:56:35Z</time>
            </trkpt>
            <trkpt lon="100.457054" lat="14.111639">
                <ele>-0.820000</ele>
                <time>2019-12-01T01:56:43Z</time>
            </trkpt>
            <trkpt lon="100.457029" lat="14.111729">
                <ele>-0.820000</ele>
                <time>2019-12-01T01:56:49Z</time>
            </trkpt>
            <trkpt lon="100.457024" lat="14.111753">
                <ele>-0.820000</ele>
                <time>2019-12-01T01:56:50Z</time>
            </trkpt>
            <trkpt lon="100.457018" lat="14.111778">
                <ele>-0.820000</ele>
                <time>2019-12-01T01:56:51Z</time>
            </trkpt>
            <trkpt lon="100.457012" lat="14.111805">
                <ele>-1.300000</ele>
                <time>2019-12-01T01:56:52Z</time>
            </trkpt>
            <trkpt lon="100.456911" lat="14.112167">
                <ele>-1.300000</ele>
                <time>2019-12-01T01:57:04Z</time>
            </trkpt>
            <trkpt lon="100.456805" lat="14.112649">
                <ele>-1.790000</ele>
                <time>2019-12-01T01:57:19Z</time>
            </trkpt>
            <trkpt lon="100.456771" lat="14.113155">
                <ele>-1.300000</ele>
                <time>2019-12-01T01:57:34Z</time>
            </trkpt>
            <trkpt lon="100.456811" lat="14.113443">
                <ele>-0.820000</ele>
                <time>2019-12-01T01:57:45Z</time>
            </trkpt>
            <trkpt lon="100.456963" lat="14.113745">
                <ele>-0.820000</ele>
                <time>2019-12-01T01:57:56Z</time>
            </trkpt>
            <trkpt lon="100.457236" lat="14.113943">
                <ele>-0.820000</ele>
                <time>2019-12-01T01:58:07Z</time>
            </trkpt>
            <trkpt lon="100.457267" lat="14.113947">
                <ele>-0.820000</ele>
                <time>2019-12-01T01:58:08Z</time>
            </trkpt>
            <trkpt lon="100.457328" lat="14.114075">
                <ele>-1.300000</ele>
                <time>2019-12-01T01:58:13Z</time>
            </trkpt>
            <trkpt lon="100.457227" lat="14.114411">
                <ele>-0.340000</ele>
                <time>2019-12-01T01:58:26Z</time>
            </trkpt>
            <trkpt lon="100.457211" lat="14.114435">
                <ele>-0.340000</ele>
                <time>2019-12-01T01:58:27Z</time>
            </trkpt>
            <trkpt lon="100.457205" lat="14.114463">
                <ele>-0.340000</ele>
                <time>2019-12-01T01:58:28Z</time>
            </trkpt>
            <trkpt lon="100.457205" lat="14.114493">
                <ele>-0.340000</ele>
                <time>2019-12-01T01:58:29Z</time>
            </trkpt>
            <trkpt lon="100.457207" lat="14.114526">
                <ele>0.140000</ele>
                <time>2019-12-01T01:58:30Z</time>
            </trkpt>
            <trkpt lon="100.457211" lat="14.114559">
                <ele>0.140000</ele>
                <time>2019-12-01T01:58:31Z</time>
            </trkpt>
            <trkpt lon="100.457322" lat="14.115248">
                <ele>-0.340000</ele>
                <time>2019-12-01T01:58:49Z</time>
            </trkpt>
            <trkpt lon="100.457415" lat="14.115977">
                <ele>-0.820000</ele>
                <time>2019-12-01T01:59:07Z</time>
            </trkpt>
            <trkpt lon="100.457477" lat="14.116289">
                <ele>-0.340000</ele>
                <time>2019-12-01T01:59:15Z</time>
            </trkpt>
            <trkpt lon="100.457630" lat="14.117102">
                <ele>-0.820000</ele>
                <time>2019-12-01T01:59:33Z</time>
            </trkpt>
            <trkpt lon="100.457634" lat="14.117150">
                <ele>-1.300000</ele>
                <time>2019-12-01T01:59:34Z</time>
            </trkpt>
            <trkpt lon="100.457634" lat="14.117197">
                <ele>-1.300000</ele>
                <time>2019-12-01T01:59:35Z</time>
            </trkpt>
            <trkpt lon="100.457628" lat="14.117583">
                <ele>-1.300000</ele>
                <time>2019-12-01T01:59:44Z</time>
            </trkpt>
            <trkpt lon="100.457616" lat="14.118241">
                <ele>-0.820000</ele>
                <time>2019-12-01T02:00:01Z</time>
            </trkpt>
            <trkpt lon="100.457611" lat="14.118685">
                <ele>-0.820000</ele>
                <time>2019-12-01T02:00:15Z</time>
            </trkpt>
            <trkpt lon="100.457492" lat="14.118736">
                <ele>-0.820000</ele>
                <time>2019-12-01T02:00:19Z</time>
            </trkpt>
            <trkpt lon="100.456940" lat="14.118714">
                <ele>-0.340000</ele>
                <time>2019-12-01T02:00:36Z</time>
            </trkpt>
            <trkpt lon="100.456501" lat="14.118717">
                <ele>-0.340000</ele>
                <time>2019-12-01T02:00:50Z</time>
            </trkpt>
            <trkpt lon="100.456155" lat="14.118736">
                <ele>-0.340000</ele>
                <time>2019-12-01T02:01:01Z</time>
            </trkpt>
            <trkpt lon="100.455833" lat="14.118733">
                <ele>0.140000</ele>
                <time>2019-12-01T02:01:15Z</time>
            </trkpt>
            <trkpt lon="100.455514" lat="14.118742">
                <ele>-0.340000</ele>
                <time>2019-12-01T02:01:28Z</time>
            </trkpt>
            <trkpt lon="100.455120" lat="14.118777">
                <ele>-0.340000</ele>
                <time>2019-12-01T02:01:42Z</time>
            </trkpt>
            <trkpt lon="100.454757" lat="14.118781">
                <ele>-0.340000</ele>
                <time>2019-12-01T02:01:56Z</time>
            </trkpt>
            <trkpt lon="100.454315" lat="14.118767">
                <ele>0.140000</ele>
                <time>2019-12-01T02:02:11Z</time>
            </trkpt>
            <trkpt lon="100.453846" lat="14.118787">
                <ele>-0.340000</ele>
                <time>2019-12-01T02:02:28Z</time>
            </trkpt>
            <trkpt lon="100.453439" lat="14.118787">
                <ele>-0.340000</ele>
                <time>2019-12-01T02:02:42Z</time>
            </trkpt>
            <trkpt lon="100.452996" lat="14.118787">
                <ele>-0.340000</ele>
                <time>2019-12-01T02:02:58Z</time>
            </trkpt>
            <trkpt lon="100.452644" lat="14.118807">
                <ele>-0.820000</ele>
                <time>2019-12-01T02:03:11Z</time>
            </trkpt>
            <trkpt lon="100.452441" lat="14.118771">
                <ele>-0.820000</ele>
                <time>2019-12-01T02:03:22Z</time>
            </trkpt>
            <trkpt lon="100.452383" lat="14.118777">
                <ele>-1.300000</ele>
                <time>2019-12-01T02:03:50Z</time>
            </trkpt>
            <trkpt lon="100.452172" lat="14.118812">
                <ele>-0.340000</ele>
                <time>2019-12-01T02:04:04Z</time>
            </trkpt>
            <trkpt lon="100.452095" lat="14.118824">
                <ele>-0.340000</ele>
                <time>2019-12-01T02:04:17Z</time>
            </trkpt>
            <trkpt lon="100.451814" lat="14.118846">
                <ele>-0.340000</ele>
                <time>2019-12-01T02:04:30Z</time>
            </trkpt>
            <trkpt lon="100.451351" lat="14.118821">
                <ele>-0.340000</ele>
                <time>2019-12-01T02:04:47Z</time>
            </trkpt>
            <trkpt lon="100.450949" lat="14.118800">
                <ele>0.140000</ele>
                <time>2019-12-01T02:05:01Z</time>
            </trkpt>
            <trkpt lon="100.450477" lat="14.118784">
                <ele>0.140000</ele>
                <time>2019-12-01T02:05:16Z</time>
            </trkpt>
            <trkpt lon="100.450031" lat="14.118767">
                <ele>-0.340000</ele>
                <time>2019-12-01T02:05:30Z</time>
            </trkpt>
            <trkpt lon="100.449561" lat="14.118763">
                <ele>-0.340000</ele>
                <time>2019-12-01T02:05:45Z</time>
            </trkpt>
            <trkpt lon="100.449135" lat="14.118732">
                <ele>0.140000</ele>
                <time>2019-12-01T02:06:01Z</time>
            </trkpt>
            <trkpt lon="100.448726" lat="14.118714">
                <ele>-0.340000</ele>
                <time>2019-12-01T02:06:16Z</time>
            </trkpt>
            <trkpt lon="100.448438" lat="14.118741">
                <ele>-0.820000</ele>
                <time>2019-12-01T02:06:28Z</time>
            </trkpt>
            <trkpt lon="100.448052" lat="14.118837">
                <ele>-0.820000</ele>
                <time>2019-12-01T02:06:43Z</time>
            </trkpt>
            <trkpt lon="100.447689" lat="14.118947">
                <ele>-0.340000</ele>
                <time>2019-12-01T02:06:58Z</time>
            </trkpt>
            <trkpt lon="100.447429" lat="14.119036">
                <ele>-0.820000</ele>
                <time>2019-12-01T02:07:12Z</time>
            </trkpt>
            <trkpt lon="100.447375" lat="14.119084">
                <ele>0.620000</ele>
                <time>2019-12-01T02:07:20Z</time>
            </trkpt>
            <trkpt lon="100.447359" lat="14.119293">
                <ele>0.140000</ele>
                <time>2019-12-01T02:07:35Z</time>
            </trkpt>
            <trkpt lon="100.447329" lat="14.119379">
                <ele>0.140000</ele>
                <time>2019-12-01T02:07:47Z</time>
            </trkpt>
            <trkpt lon="100.447283" lat="14.119532">
                <ele>0.140000</ele>
                <time>2019-12-01T02:08:05Z</time>
            </trkpt>
            <trkpt lon="100.447276" lat="14.119535">
                <ele>0.140000</ele>
                <time>2019-12-01T02:08:06Z</time>
            </trkpt>
            <trkpt lon="100.447229" lat="14.119583">
                <ele>-1.300000</ele>
                <time>2019-12-01T02:08:21Z</time>
            </trkpt>
            <trkpt lon="100.447225" lat="14.119602">
                <ele>-0.820000</ele>
                <time>2019-12-01T02:08:38Z</time>
            </trkpt>
            <trkpt lon="100.447160" lat="14.119755">
                <ele>-1.300000</ele>
                <time>2019-12-01T02:08:47Z</time>
            </trkpt>
            <trkpt lon="100.446890" lat="14.119797">
                <ele>-0.340000</ele>
                <time>2019-12-01T02:09:01Z</time>
            </trkpt>
            <trkpt lon="100.446584" lat="14.119791">
                <ele>-1.300000</ele>
                <time>2019-12-01T02:09:15Z</time>
            </trkpt>
            <trkpt lon="100.446354" lat="14.119785">
                <ele>-1.300000</ele>
                <time>2019-12-01T02:09:28Z</time>
            </trkpt>
            <trkpt lon="100.446066" lat="14.119778">
                <ele>-1.300000</ele>
                <time>2019-12-01T02:09:42Z</time>
            </trkpt>
            <trkpt lon="100.445743" lat="14.119785">
                <ele>-1.300000</ele>
                <time>2019-12-01T02:09:57Z</time>
            </trkpt>
            <trkpt lon="100.445522" lat="14.119789">
                <ele>-1.300000</ele>
                <time>2019-12-01T02:10:09Z</time>
            </trkpt>
            <trkpt lon="100.445238" lat="14.119782">
                <ele>-1.300000</ele>
                <time>2019-12-01T02:10:23Z</time>
            </trkpt>
            <trkpt lon="100.444939" lat="14.119747">
                <ele>-1.300000</ele>
                <time>2019-12-01T02:10:37Z</time>
            </trkpt>
            <trkpt lon="100.444919" lat="14.119745">
                <ele>-1.300000</ele>
                <time>2019-12-01T02:10:38Z</time>
            </trkpt>
            <trkpt lon="100.444873" lat="14.119767">
                <ele>-0.340000</ele>
                <time>2019-12-01T02:10:41Z</time>
            </trkpt>
            <trkpt lon="100.444807" lat="14.119887">
                <ele>0.140000</ele>
                <time>2019-12-01T02:10:52Z</time>
            </trkpt>
            <trkpt lon="100.444780" lat="14.119895">
                <ele>-0.340000</ele>
                <time>2019-12-01T02:10:54Z</time>
            </trkpt>
            <trkpt lon="100.444728" lat="14.119965">
                <ele>-0.340000</ele>
                <time>2019-12-01T02:10:58Z</time>
            </trkpt>
            <trkpt lon="100.444625" lat="14.120316">
                <ele>-0.820000</ele>
                <time>2019-12-01T02:11:13Z</time>
            </trkpt>
            <trkpt lon="100.444603" lat="14.120426">
                <ele>-0.820000</ele>
                <time>2019-12-01T02:11:26Z</time>
            </trkpt>
            <trkpt lon="100.444600" lat="14.120439">
                <ele>-0.820000</ele>
                <time>2019-12-01T02:11:28Z</time>
            </trkpt>
            <trkpt lon="100.444564" lat="14.120587">
                <ele>0.140000</ele>
                <time>2019-12-01T02:11:37Z</time>
            </trkpt>
            <trkpt lon="100.444405" lat="14.120646">
                <ele>0.140000</ele>
                <time>2019-12-01T02:11:50Z</time>
            </trkpt>
            <trkpt lon="100.444418" lat="14.120647">
                <ele>0.140000</ele>
                <time>2019-12-01T02:12:05Z</time>
            </trkpt>
            <trkpt lon="100.444448" lat="14.120626">
                <ele>-0.340000</ele>
                <time>2019-12-01T02:12:17Z</time>
            </trkpt>
            <trkpt lon="100.444590" lat="14.120521">
                <ele>0.140000</ele>
                <time>2019-12-01T02:12:28Z</time>
            </trkpt>
            <trkpt lon="100.444605" lat="14.120388">
                <ele>-0.820000</ele>
                <time>2019-12-01T02:12:41Z</time>
            </trkpt>
            <trkpt lon="100.444601" lat="14.120381">
                <ele>-0.340000</ele>
                <time>2019-12-01T02:13:18Z</time>
            </trkpt>
            <trkpt lon="100.444603" lat="14.120371">
                <ele>-0.340000</ele>
                <time>2019-12-01T02:13:23Z</time>
            </trkpt>
            <trkpt lon="100.444665" lat="14.120082">
                <ele>-0.820000</ele>
                <time>2019-12-01T02:13:38Z</time>
            </trkpt>
            <trkpt lon="100.444784" lat="14.119808">
                <ele>0.140000</ele>
                <time>2019-12-01T02:13:52Z</time>
            </trkpt>
            <trkpt lon="100.444606" lat="14.119751">
                <ele>0.620000</ele>
                <time>2019-12-01T02:14:03Z</time>
            </trkpt>
            <trkpt lon="100.444234" lat="14.119729">
                <ele>0.140000</ele>
                <time>2019-12-01T02:14:19Z</time>
            </trkpt>
            <trkpt lon="100.443864" lat="14.119702">
                <ele>0.620000</ele>
                <time>2019-12-01T02:14:33Z</time>
            </trkpt>
            <trkpt lon="100.443605" lat="14.119669">
                <ele>0.620000</ele>
                <time>2019-12-01T02:14:45Z</time>
            </trkpt>
            <trkpt lon="100.443244" lat="14.119632">
                <ele>0.140000</ele>
                <time>2019-12-01T02:14:58Z</time>
            </trkpt>
            <trkpt lon="100.442879" lat="14.119565">
                <ele>0.140000</ele>
                <time>2019-12-01T02:15:13Z</time>
            </trkpt>
            <trkpt lon="100.442501" lat="14.119505">
                <ele>0.620000</ele>
                <time>2019-12-01T02:15:28Z</time>
            </trkpt>
            <trkpt lon="100.442042" lat="14.119408">
                <ele>0.140000</ele>
                <time>2019-12-01T02:15:44Z</time>
            </trkpt>
            <trkpt lon="100.441723" lat="14.119366">
                <ele>0.140000</ele>
                <time>2019-12-01T02:15:57Z</time>
            </trkpt>
            <trkpt lon="100.441416" lat="14.119277">
                <ele>0.620000</ele>
                <time>2019-12-01T02:16:12Z</time>
            </trkpt>
            <trkpt lon="100.441032" lat="14.119186">
                <ele>0.620000</ele>
                <time>2019-12-01T02:16:28Z</time>
            </trkpt>
            <trkpt lon="100.440882" lat="14.119142">
                <ele>0.620000</ele>
                <time>2019-12-01T02:16:41Z</time>
            </trkpt>
            <trkpt lon="100.440752" lat="14.119091">
                <ele>1.100000</ele>
                <time>2019-12-01T02:17:04Z</time>
            </trkpt>
            <trkpt lon="100.440481" lat="14.119020">
                <ele>1.100000</ele>
                <time>2019-12-01T02:17:19Z</time>
            </trkpt>
            <trkpt lon="100.440230" lat="14.118950">
                <ele>0.620000</ele>
                <time>2019-12-01T02:17:34Z</time>
            </trkpt>
            <trkpt lon="100.439954" lat="14.118866">
                <ele>1.100000</ele>
                <time>2019-12-01T02:17:50Z</time>
            </trkpt>
            <trkpt lon="100.439780" lat="14.118813">
                <ele>0.620000</ele>
                <time>2019-12-01T02:18:05Z</time>
            </trkpt>
            <trkpt lon="100.439746" lat="14.118790">
                <ele>1.100000</ele>
                <time>2019-12-01T02:18:17Z</time>
            </trkpt>
            <trkpt lon="100.439680" lat="14.118861">
                <ele>-0.340000</ele>
                <time>2019-12-01T02:18:32Z</time>
            </trkpt>
            <trkpt lon="100.439678" lat="14.118867">
                <ele>-0.340000</ele>
                <time>2019-12-01T02:18:35Z</time>
            </trkpt>
            <trkpt lon="100.439619" lat="14.119044">
                <ele>-0.340000</ele>
                <time>2019-12-01T02:18:49Z</time>
            </trkpt>
            <trkpt lon="100.439602" lat="14.119048">
                <ele>-0.340000</ele>
                <time>2019-12-01T02:18:52Z</time>
            </trkpt>
            <trkpt lon="100.439305" lat="14.118937">
                <ele>-0.340000</ele>
                <time>2019-12-01T02:19:07Z</time>
            </trkpt>
            <trkpt lon="100.438851" lat="14.118784">
                <ele>-0.340000</ele>
                <time>2019-12-01T02:19:26Z</time>
            </trkpt>
            <trkpt lon="100.438419" lat="14.118632">
                <ele>-0.340000</ele>
                <time>2019-12-01T02:19:45Z</time>
            </trkpt>
            <trkpt lon="100.438050" lat="14.118502">
                <ele>-0.340000</ele>
                <time>2019-12-01T02:20:02Z</time>
            </trkpt>
            <trkpt lon="100.437641" lat="14.118356">
                <ele>-0.820000</ele>
                <time>2019-12-01T02:20:20Z</time>
            </trkpt>
            <trkpt lon="100.437184" lat="14.118207">
                <ele>-0.340000</ele>
                <time>2019-12-01T02:20:38Z</time>
            </trkpt>
            <trkpt lon="100.436522" lat="14.117976">
                <ele>0.140000</ele>
                <time>2019-12-01T02:21:00Z</time>
            </trkpt>
            <trkpt lon="100.436245" lat="14.117880">
                <ele>0.140000</ele>
                <time>2019-12-01T02:21:10Z</time>
            </trkpt>
            <trkpt lon="100.436223" lat="14.117828">
                <ele>0.140000</ele>
                <time>2019-12-01T02:21:13Z</time>
            </trkpt>
            <trkpt lon="100.436238" lat="14.117808">
                <ele>-0.340000</ele>
                <time>2019-12-01T02:21:14Z</time>
            </trkpt>
            <trkpt lon="100.436254" lat="14.117788">
                <ele>0.140000</ele>
                <time>2019-12-01T02:21:15Z</time>
            </trkpt>
            <trkpt lon="100.436271" lat="14.117767">
                <ele>0.140000</ele>
                <time>2019-12-01T02:21:16Z</time>
            </trkpt>
            <trkpt lon="100.436288" lat="14.117749">
                <ele>0.140000</ele>
                <time>2019-12-01T02:21:17Z</time>
            </trkpt>
            <trkpt lon="100.436425" lat="14.117560">
                <ele>-0.340000</ele>
                <time>2019-12-01T02:21:30Z</time>
            </trkpt>
            <trkpt lon="100.436428" lat="14.117575">
                <ele>-0.340000</ele>
                <time>2019-12-01T02:21:59Z</time>
            </trkpt>
            <trkpt lon="100.436445" lat="14.117569">
                <ele>-0.340000</ele>
                <time>2019-12-01T02:22:21Z</time>
            </trkpt>
            <trkpt lon="100.436458" lat="14.117563">
                <ele>0.140000</ele>
                <time>2019-12-01T02:22:24Z</time>
            </trkpt>
            <trkpt lon="100.436466" lat="14.117553">
                <ele>-0.340000</ele>
                <time>2019-12-01T02:22:25Z</time>
            </trkpt>
            <trkpt lon="100.436474" lat="14.117540">
                <ele>-0.340000</ele>
                <time>2019-12-01T02:22:26Z</time>
            </trkpt>
            <trkpt lon="100.436482" lat="14.117527">
                <ele>0.140000</ele>
                <time>2019-12-01T02:22:27Z</time>
            </trkpt>
            <trkpt lon="100.436491" lat="14.117512">
                <ele>0.140000</ele>
                <time>2019-12-01T02:22:28Z</time>
            </trkpt>
            <trkpt lon="100.436501" lat="14.117493">
                <ele>-0.340000</ele>
                <time>2019-12-01T02:22:29Z</time>
            </trkpt>
            <trkpt lon="100.436730" lat="14.117165">
                <ele>0.140000</ele>
                <time>2019-12-01T02:22:45Z</time>
            </trkpt>
            <trkpt lon="100.436777" lat="14.117124">
                <ele>-0.340000</ele>
                <time>2019-12-01T02:22:55Z</time>
            </trkpt>
            <trkpt lon="100.436782" lat="14.117120">
                <ele>-0.340000</ele>
                <time>2019-12-01T02:22:56Z</time>
            </trkpt>
            <trkpt lon="100.436793" lat="14.117114">
                <ele>0.140000</ele>
                <time>2019-12-01T02:22:57Z</time>
            </trkpt>
            <trkpt lon="100.436839" lat="14.117090">
                <ele>0.140000</ele>
                <time>2019-12-01T02:23:02Z</time>
            </trkpt>
            <trkpt lon="100.436860" lat="14.117064">
                <ele>0.140000</ele>
                <time>2019-12-01T02:23:06Z</time>
            </trkpt>
            <trkpt lon="100.436875" lat="14.117037">
                <ele>0.140000</ele>
                <time>2019-12-01T02:23:10Z</time>
            </trkpt>
            <trkpt lon="100.437023" lat="14.116925">
                <ele>-0.340000</ele>
                <time>2019-12-01T02:23:21Z</time>
            </trkpt>
            <trkpt lon="100.437270" lat="14.116793">
                <ele>0.140000</ele>
                <time>2019-12-01T02:23:31Z</time>
            </trkpt>
            <trkpt lon="100.437263" lat="14.116738">
                <ele>0.140000</ele>
                <time>2019-12-01T02:23:34Z</time>
            </trkpt>
            <trkpt lon="100.437259" lat="14.116648">
                <ele>1.100000</ele>
                <time>2019-12-01T02:23:39Z</time>
            </trkpt>
            <trkpt lon="100.437281" lat="14.116632">
                <ele>1.100000</ele>
                <time>2019-12-01T02:23:40Z</time>
            </trkpt>
            <trkpt lon="100.437307" lat="14.116615">
                <ele>1.100000</ele>
                <time>2019-12-01T02:23:41Z</time>
            </trkpt>
            <trkpt lon="100.437885" lat="14.116358">
                <ele>1.580000</ele>
                <time>2019-12-01T02:23:58Z</time>
            </trkpt>
            <trkpt lon="100.438953" lat="14.115901">
                <ele>1.100000</ele>
                <time>2019-12-01T02:24:24Z</time>
            </trkpt>
            <trkpt lon="100.439992" lat="14.115425">
                <ele>0.620000</ele>
                <time>2019-12-01T02:24:48Z</time>
            </trkpt>
            <trkpt lon="100.440524" lat="14.115170">
                <ele>1.100000</ele>
                <time>2019-12-01T02:25:00Z</time>
            </trkpt>
            <trkpt lon="100.441481" lat="14.114758">
                <ele>1.580000</ele>
                <time>2019-12-01T02:25:20Z</time>
            </trkpt>
            <trkpt lon="100.442207" lat="14.114460">
                <ele>1.580000</ele>
                <time>2019-12-01T02:25:37Z</time>
            </trkpt>
            <trkpt lon="100.442240" lat="14.114472">
                <ele>1.580000</ele>
                <time>2019-12-01T02:25:38Z</time>
            </trkpt>
            <trkpt lon="100.442264" lat="14.114493">
                <ele>1.580000</ele>
                <time>2019-12-01T02:25:39Z</time>
            </trkpt>
            <trkpt lon="100.442343" lat="14.114559">
                <ele>0.620000</ele>
                <time>2019-12-01T02:25:42Z</time>
            </trkpt>
            <trkpt lon="100.442380" lat="14.114560">
                <ele>1.100000</ele>
                <time>2019-12-01T02:25:43Z</time>
            </trkpt>
            <trkpt lon="100.442418" lat="14.114552">
                <ele>0.620000</ele>
                <time>2019-12-01T02:25:44Z</time>
            </trkpt>
            <trkpt lon="100.442457" lat="14.114537">
                <ele>0.620000</ele>
                <time>2019-12-01T02:25:45Z</time>
            </trkpt>
            <trkpt lon="100.442494" lat="14.114516">
                <ele>1.100000</ele>
                <time>2019-12-01T02:25:46Z</time>
            </trkpt>
            <trkpt lon="100.442527" lat="14.114493">
                <ele>1.100000</ele>
                <time>2019-12-01T02:25:47Z</time>
            </trkpt>
            <trkpt lon="100.442560" lat="14.114473">
                <ele>0.620000</ele>
                <time>2019-12-01T02:25:48Z</time>
            </trkpt>
            <trkpt lon="100.442596" lat="14.114458">
                <ele>0.620000</ele>
                <time>2019-12-01T02:25:49Z</time>
            </trkpt>
            <trkpt lon="100.442633" lat="14.114446">
                <ele>0.620000</ele>
                <time>2019-12-01T02:25:50Z</time>
            </trkpt>
            <trkpt lon="100.443321" lat="14.114177">
                <ele>0.620000</ele>
                <time>2019-12-01T02:26:08Z</time>
            </trkpt>
            <trkpt lon="100.443503" lat="14.114116">
                <ele>0.620000</ele>
                <time>2019-12-01T02:26:19Z</time>
            </trkpt>
            <trkpt lon="100.443515" lat="14.114122">
                <ele>-0.820000</ele>
                <time>2019-12-01T02:26:37Z</time>
            </trkpt>
            <trkpt lon="100.443525" lat="14.114130">
                <ele>-0.820000</ele>
                <time>2019-12-01T02:27:19Z</time>
            </trkpt>
            <trkpt lon="100.443481" lat="14.114125">
                <ele>-0.340000</ele>
                <time>2019-12-01T02:28:00Z</time>
            </trkpt>
            <trkpt lon="100.443513" lat="14.114120">
                <ele>-0.340000</ele>
                <time>2019-12-01T02:28:49Z</time>
            </trkpt>
            <trkpt lon="100.443517" lat="14.114127">
                <ele>0.140000</ele>
                <time>2019-12-01T02:29:08Z</time>
            </trkpt>
            <trkpt lon="100.443508" lat="14.114151">
                <ele>-0.340000</ele>
                <time>2019-12-01T02:29:41Z</time>
            </trkpt>
            <trkpt lon="100.443513" lat="14.114155">
                <ele>-0.340000</ele>
                <time>2019-12-01T02:29:43Z</time>
            </trkpt>
            <trkpt lon="100.443519" lat="14.114164">
                <ele>-0.340000</ele>
                <time>2019-12-01T02:29:44Z</time>
            </trkpt>
            <trkpt lon="100.443539" lat="14.114180">
                <ele>0.140000</ele>
                <time>2019-12-01T02:29:46Z</time>
            </trkpt>
            <trkpt lon="100.443957" lat="14.114438">
                <ele>-0.340000</ele>
                <time>2019-12-01T02:30:03Z</time>
            </trkpt>
            <trkpt lon="100.444566" lat="14.114840">
                <ele>0.140000</ele>
                <time>2019-12-01T02:30:25Z</time>
            </trkpt>
            <trkpt lon="100.445147" lat="14.115224">
                <ele>-0.340000</ele>
                <time>2019-12-01T02:30:45Z</time>
            </trkpt>
            <trkpt lon="100.445685" lat="14.115577">
                <ele>0.140000</ele>
                <time>2019-12-01T02:31:03Z</time>
            </trkpt>
            <trkpt lon="100.446240" lat="14.115957">
                <ele>0.140000</ele>
                <time>2019-12-01T02:31:22Z</time>
            </trkpt>
            <trkpt lon="100.446618" lat="14.116182">
                <ele>0.140000</ele>
                <time>2019-12-01T02:31:34Z</time>
            </trkpt>
            <trkpt lon="100.446784" lat="14.116112">
                <ele>0.620000</ele>
                <time>2019-12-01T02:31:40Z</time>
            </trkpt>
            <trkpt lon="100.446919" lat="14.115790">
                <ele>0.140000</ele>
                <time>2019-12-01T02:31:50Z</time>
            </trkpt>
            <trkpt lon="100.446989" lat="14.115781">
                <ele>0.140000</ele>
                <time>2019-12-01T02:32:00Z</time>
            </trkpt>
            <trkpt lon="100.447001" lat="14.115817">
                <ele>0.140000</ele>
                <time>2019-12-01T02:32:15Z</time>
            </trkpt>
            <trkpt lon="100.446996" lat="14.115822">
                <ele>0.140000</ele>
                <time>2019-12-01T02:32:35Z</time>
            </trkpt>
            <trkpt lon="100.447005" lat="14.115836">
                <ele>0.140000</ele>
                <time>2019-12-01T02:33:10Z</time>
            </trkpt>
            <trkpt lon="100.447013" lat="14.115858">
                <ele>0.140000</ele>
                <time>2019-12-01T02:33:32Z</time>
            </trkpt>
            <trkpt lon="100.447020" lat="14.115870">
                <ele>0.140000</ele>
                <time>2019-12-01T02:33:48Z</time>
            </trkpt>
            <trkpt lon="100.447046" lat="14.116083">
                <ele>-0.340000</ele>
                <time>2019-12-01T02:34:00Z</time>
            </trkpt>
            <trkpt lon="100.447053" lat="14.116220">
                <ele>-0.340000</ele>
                <time>2019-12-01T02:34:06Z</time>
            </trkpt>
            <trkpt lon="100.447039" lat="14.116297">
                <ele>0.620000</ele>
                <time>2019-12-01T02:34:09Z</time>
            </trkpt>
            <trkpt lon="100.447089" lat="14.116521">
                <ele>1.100000</ele>
                <time>2019-12-01T02:34:19Z</time>
            </trkpt>
            <trkpt lon="100.447138" lat="14.116935">
                <ele>1.580000</ele>
                <time>2019-12-01T02:34:35Z</time>
            </trkpt>
            <trkpt lon="100.447188" lat="14.117334">
                <ele>1.100000</ele>
                <time>2019-12-01T02:34:50Z</time>
            </trkpt>
            <trkpt lon="100.447257" lat="14.117669">
                <ele>0.620000</ele>
                <time>2019-12-01T02:35:01Z</time>
            </trkpt>
            <trkpt lon="100.447356" lat="14.117622">
                <ele>0.140000</ele>
                <time>2019-12-01T02:35:07Z</time>
            </trkpt>
            <trkpt lon="100.447697" lat="14.117296">
                <ele>0.140000</ele>
                <time>2019-12-01T02:35:21Z</time>
            </trkpt>
            <trkpt lon="100.448505" lat="14.116883">
                <ele>0.140000</ele>
                <time>2019-12-01T02:35:45Z</time>
            </trkpt>
            <trkpt lon="100.448572" lat="14.116854">
                <ele>0.140000</ele>
                <time>2019-12-01T02:35:47Z</time>
            </trkpt>
            <trkpt lon="100.448638" lat="14.116737">
                <ele>0.140000</ele>
                <time>2019-12-01T02:35:51Z</time>
            </trkpt>
            <trkpt lon="100.448806" lat="14.115938">
                <ele>-0.340000</ele>
                <time>2019-12-01T02:36:13Z</time>
            </trkpt>
            <trkpt lon="100.448819" lat="14.115905">
                <ele>0.140000</ele>
                <time>2019-12-01T02:36:14Z</time>
            </trkpt>
            <trkpt lon="100.448903" lat="14.115368">
                <ele>-0.340000</ele>
                <time>2019-12-01T02:36:29Z</time>
            </trkpt>
            <trkpt lon="100.448929" lat="14.115161">
                <ele>-0.340000</ele>
                <time>2019-12-01T02:36:35Z</time>
            </trkpt>
            <trkpt lon="100.448659" lat="14.114982">
                <ele>0.140000</ele>
                <time>2019-12-01T02:36:45Z</time>
            </trkpt>
            <trkpt lon="100.448034" lat="14.114678">
                <ele>0.140000</ele>
                <time>2019-12-01T02:37:03Z</time>
            </trkpt>
            <trkpt lon="100.447814" lat="14.114576">
                <ele>-0.340000</ele>
                <time>2019-12-01T02:37:10Z</time>
            </trkpt>
            <trkpt lon="100.447801" lat="14.114534">
                <ele>0.140000</ele>
                <time>2019-12-01T02:37:15Z</time>
            </trkpt>
            <trkpt lon="100.447995" lat="14.114312">
                <ele>-0.340000</ele>
                <time>2019-12-01T02:37:28Z</time>
            </trkpt>
            <trkpt lon="100.448227" lat="14.114029">
                <ele>-0.340000</ele>
                <time>2019-12-01T02:37:43Z</time>
            </trkpt>
            <trkpt lon="100.448451" lat="14.113746">
                <ele>-0.820000</ele>
                <time>2019-12-01T02:37:58Z</time>
            </trkpt>
            <trkpt lon="100.448650" lat="14.113504">
                <ele>-0.340000</ele>
                <time>2019-12-01T02:38:11Z</time>
            </trkpt>
            <trkpt lon="100.449004" lat="14.113669">
                <ele>-0.340000</ele>
                <time>2019-12-01T02:38:26Z</time>
            </trkpt>
            <trkpt lon="100.449502" lat="14.113936">
                <ele>-0.340000</ele>
                <time>2019-12-01T02:38:45Z</time>
            </trkpt>
            <trkpt lon="100.450169" lat="14.114291">
                <ele>-0.820000</ele>
                <time>2019-12-01T02:39:09Z</time>
            </trkpt>
            <trkpt lon="100.450266" lat="14.114518">
                <ele>-0.820000</ele>
                <time>2019-12-01T02:39:20Z</time>
            </trkpt>
            <trkpt lon="100.450155" lat="14.114793">
                <ele>-0.340000</ele>
                <time>2019-12-01T02:39:35Z</time>
            </trkpt>
            <trkpt lon="100.450157" lat="14.114850">
                <ele>-0.340000</ele>
                <time>2019-12-01T02:39:48Z</time>
            </trkpt>
            <trkpt lon="100.450185" lat="14.114873">
                <ele>-1.300000</ele>
                <time>2019-12-01T02:39:54Z</time>
            </trkpt>
            <trkpt lon="100.450226" lat="14.114857">
                <ele>-2.750000</ele>
                <time>2019-12-01T02:40:06Z</time>
            </trkpt>
            <trkpt lon="100.450228" lat="14.114851">
                <ele>-2.270000</ele>
                <time>2019-12-01T02:40:07Z</time>
            </trkpt>
            <trkpt lon="100.450349" lat="14.114634">
                <ele>-2.270000</ele>
                <time>2019-12-01T02:40:22Z</time>
            </trkpt>
            <trkpt lon="100.450645" lat="14.114618">
                <ele>-2.270000</ele>
                <time>2019-12-01T02:40:35Z</time>
            </trkpt>
            <trkpt lon="100.450963" lat="14.114651">
                <ele>-2.270000</ele>
                <time>2019-12-01T02:40:48Z</time>
            </trkpt>
            <trkpt lon="100.451367" lat="14.114679">
                <ele>-2.270000</ele>
                <time>2019-12-01T02:41:03Z</time>
            </trkpt>
            <trkpt lon="100.451789" lat="14.114699">
                <ele>-1.790000</ele>
                <time>2019-12-01T02:41:17Z</time>
            </trkpt>
            <trkpt lon="100.452219" lat="14.114701">
                <ele>-3.230000</ele>
                <time>2019-12-01T02:41:33Z</time>
            </trkpt>
            <trkpt lon="100.452635" lat="14.114670">
                <ele>-3.230000</ele>
                <time>2019-12-01T02:41:48Z</time>
            </trkpt>
            <trkpt lon="100.453043" lat="14.114669">
                <ele>-2.750000</ele>
                <time>2019-12-01T02:42:01Z</time>
            </trkpt>
            <trkpt lon="100.453425" lat="14.114690">
                <ele>-3.230000</ele>
                <time>2019-12-01T02:42:13Z</time>
            </trkpt>
            <trkpt lon="100.453859" lat="14.114719">
                <ele>-2.750000</ele>
                <time>2019-12-01T02:42:27Z</time>
            </trkpt>
            <trkpt lon="100.454245" lat="14.114723">
                <ele>-3.710000</ele>
                <time>2019-12-01T02:42:39Z</time>
            </trkpt>
            <trkpt lon="100.454468" lat="14.114687">
                <ele>-2.270000</ele>
                <time>2019-12-01T02:42:51Z</time>
            </trkpt>
            <trkpt lon="100.454486" lat="14.114670">
                <ele>-2.270000</ele>
                <time>2019-12-01T02:43:03Z</time>
            </trkpt>
            <trkpt lon="100.454477" lat="14.114630">
                <ele>-2.750000</ele>
                <time>2019-12-01T02:43:13Z</time>
            </trkpt>
            <trkpt lon="100.454484" lat="14.114627">
                <ele>-1.300000</ele>
                <time>2019-12-01T02:43:16Z</time>
            </trkpt>
            <trkpt lon="100.454517" lat="14.114558">
                <ele>-1.300000</ele>
                <time>2019-12-01T02:43:31Z</time>
            </trkpt>
            <trkpt lon="100.454515" lat="14.114551">
                <ele>-0.820000</ele>
                <time>2019-12-01T02:43:34Z</time>
            </trkpt>
            <trkpt lon="100.454537" lat="14.114399">
                <ele>-0.820000</ele>
                <time>2019-12-01T02:43:45Z</time>
            </trkpt>
            <trkpt lon="100.454536" lat="14.114395">
                <ele>-0.340000</ele>
                <time>2019-12-01T02:43:56Z</time>
            </trkpt>
            <trkpt lon="100.454584" lat="14.114099">
                <ele>-0.820000</ele>
                <time>2019-12-01T02:44:10Z</time>
            </trkpt>
            <trkpt lon="100.454610" lat="14.114063">
                <ele>-0.820000</ele>
                <time>2019-12-01T02:44:13Z</time>
            </trkpt>
            <trkpt lon="100.454999" lat="14.114082">
                <ele>-0.820000</ele>
                <time>2019-12-01T02:44:28Z</time>
            </trkpt>
            <trkpt lon="100.455384" lat="14.114125">
                <ele>-0.820000</ele>
                <time>2019-12-01T02:44:42Z</time>
            </trkpt>
            <trkpt lon="100.455921" lat="14.114093">
                <ele>-0.340000</ele>
                <time>2019-12-01T02:44:59Z</time>
            </trkpt>
            <trkpt lon="100.456403" lat="14.114096">
                <ele>-0.820000</ele>
                <time>2019-12-01T02:45:13Z</time>
            </trkpt>
            <trkpt lon="100.456918" lat="14.114032">
                <ele>-0.820000</ele>
                <time>2019-12-01T02:45:28Z</time>
            </trkpt>
            <trkpt lon="100.456934" lat="14.113994">
                <ele>-0.340000</ele>
                <time>2019-12-01T02:45:38Z</time>
            </trkpt>
            <trkpt lon="100.456935" lat="14.113995">
                <ele>-0.820000</ele>
                <time>2019-12-01T02:46:08Z</time>
            </trkpt>
            <trkpt lon="100.456710" lat="14.113703">
                <ele>-0.340000</ele>
                <time>2019-12-01T02:46:24Z</time>
            </trkpt>
            <trkpt lon="100.456618" lat="14.113176">
                <ele>-0.820000</ele>
                <time>2019-12-01T02:46:39Z</time>
            </trkpt>
            <trkpt lon="100.456626" lat="14.112687">
                <ele>-0.820000</ele>
                <time>2019-12-01T02:46:53Z</time>
            </trkpt>
            <trkpt lon="100.456716" lat="14.112138">
                <ele>-0.820000</ele>
                <time>2019-12-01T02:47:09Z</time>
            </trkpt>
            <trkpt lon="100.456901" lat="14.111563">
                <ele>-0.340000</ele>
                <time>2019-12-01T02:47:26Z</time>
            </trkpt>
            <trkpt lon="100.457018" lat="14.110885">
                <ele>-0.820000</ele>
                <time>2019-12-01T02:47:44Z</time>
            </trkpt>
            <trkpt lon="100.457137" lat="14.109980">
                <ele>-0.340000</ele>
                <time>2019-12-01T02:48:06Z</time>
            </trkpt>
            <trkpt lon="100.457165" lat="14.109684">
                <ele>-0.820000</ele>
                <time>2019-12-01T02:48:16Z</time>
            </trkpt>
            <trkpt lon="100.457062" lat="14.109669">
                <ele>-1.300000</ele>
                <time>2019-12-01T02:48:21Z</time>
            </trkpt>
            <trkpt lon="100.456717" lat="14.109619">
                <ele>-1.300000</ele>
                <time>2019-12-01T02:48:37Z</time>
            </trkpt>
            <trkpt lon="100.456386" lat="14.109577">
                <ele>-1.300000</ele>
                <time>2019-12-01T02:48:51Z</time>
            </trkpt>
            <trkpt lon="100.456051" lat="14.109533">
                <ele>-1.300000</ele>
                <time>2019-12-01T02:49:06Z</time>
            </trkpt>
            <trkpt lon="100.455731" lat="14.109478">
                <ele>-1.300000</ele>
                <time>2019-12-01T02:49:20Z</time>
            </trkpt>
            <trkpt lon="100.455372" lat="14.109438">
                <ele>-0.820000</ele>
                <time>2019-12-01T02:49:36Z</time>
            </trkpt>
            <trkpt lon="100.455022" lat="14.109388">
                <ele>-1.300000</ele>
                <time>2019-12-01T02:49:54Z</time>
            </trkpt>
            <trkpt lon="100.454730" lat="14.109352">
                <ele>-1.300000</ele>
                <time>2019-12-01T02:50:10Z</time>
            </trkpt>
            <trkpt lon="100.454692" lat="14.109304">
                <ele>-0.820000</ele>
                <time>2019-12-01T02:50:16Z</time>
            </trkpt>
            <trkpt lon="100.454700" lat="14.109241">
                <ele>-0.820000</ele>
                <time>2019-12-01T02:50:20Z</time>
            </trkpt>
            <trkpt lon="100.454747" lat="14.108979">
                <ele>-0.820000</ele>
                <time>2019-12-01T02:50:37Z</time>
            </trkpt>
            <trkpt lon="100.454793" lat="14.108702">
                <ele>-0.820000</ele>
                <time>2019-12-01T02:50:55Z</time>
            </trkpt>
            <trkpt lon="100.454829" lat="14.108497">
                <ele>-0.820000</ele>
                <time>2019-12-01T02:51:08Z</time>
            </trkpt>
            <trkpt lon="100.454847" lat="14.108398">
                <ele>-0.820000</ele>
                <time>2019-12-01T02:51:15Z</time>
            </trkpt>
            <trkpt lon="100.454859" lat="14.108329">
                <ele>-0.340000</ele>
                <time>2019-12-01T02:51:27Z</time>
            </trkpt>
            <trkpt lon="100.454862" lat="14.108320">
                <ele>-0.820000</ele>
                <time>2019-12-01T02:51:28Z</time>
            </trkpt>
            <trkpt lon="100.454885" lat="14.108213">
                <ele>-0.820000</ele>
                <time>2019-12-01T02:51:41Z</time>
            </trkpt>
            <trkpt lon="100.454912" lat="14.108056">
                <ele>-0.820000</ele>
                <time>2019-12-01T02:51:59Z</time>
            </trkpt>
            <trkpt lon="100.454948" lat="14.108021">
                <ele>-0.820000</ele>
                <time>2019-12-01T02:52:12Z</time>
            </trkpt>
            <trkpt lon="100.455007" lat="14.108048">
                <ele>0.140000</ele>
                <time>2019-12-01T02:52:27Z</time>
            </trkpt>
            <trkpt lon="100.455026" lat="14.108054">
                <ele>0.140000</ele>
                <time>2019-12-01T02:52:34Z</time>
            </trkpt>
            <trkpt lon="100.455240" lat="14.108102">
                <ele>-0.820000</ele>
                <time>2019-12-01T02:52:50Z</time>
            </trkpt>
            <trkpt lon="100.455656" lat="14.108190">
                <ele>0.140000</ele>
                <time>2019-12-01T02:53:13Z</time>
            </trkpt>
            <trkpt lon="100.455879" lat="14.108230">
                <ele>-0.340000</ele>
                <time>2019-12-01T02:53:28Z</time>
            </trkpt>
            <trkpt lon="100.456141" lat="14.108281">
                <ele>0.140000</ele>
                <time>2019-12-01T02:53:45Z</time>
            </trkpt>
            <trkpt lon="100.456184" lat="14.108291">
                <ele>0.140000</ele>
                <time>2019-12-01T02:53:50Z</time>
            </trkpt>
            <trkpt lon="100.456282" lat="14.108312">
                <ele>0.140000</ele>
                <time>2019-12-01T02:53:57Z</time>
            </trkpt>
            <trkpt lon="100.456706" lat="14.108401">
                <ele>-0.340000</ele>
                <time>2019-12-01T02:54:16Z</time>
            </trkpt>
            <trkpt lon="100.456710" lat="14.108398">
                <ele>-0.340000</ele>
                <time>2019-12-01T02:54:28Z</time>
            </trkpt>
            <trkpt lon="100.456739" lat="14.108358">
                <ele>-0.340000</ele>
                <time>2019-12-01T02:54:43Z</time>
            </trkpt>
            <trkpt lon="100.456742" lat="14.108298">
                <ele>0.140000</ele>
                <time>2019-12-01T02:54:58Z</time>
            </trkpt>
            <trkpt lon="100.456779" lat="14.108214">
                <ele>0.140000</ele>
                <time>2019-12-01T02:55:14Z</time>
            </trkpt>
            <trkpt lon="100.456787" lat="14.108195">
                <ele>0.140000</ele>
                <time>2019-12-01T02:55:25Z</time>
            </trkpt>
            <trkpt lon="100.456826" lat="14.108142">
                <ele>0.140000</ele>
                <time>2019-12-01T02:55:38Z</time>
            </trkpt>
            <trkpt lon="100.456891" lat="14.108060">
                <ele>0.140000</ele>
                <time>2019-12-01T02:55:54Z</time>
            </trkpt>
            <trkpt lon="100.456911" lat="14.108013">
                <ele>-0.340000</ele>
                <time>2019-12-01T02:56:06Z</time>
            </trkpt>
            <trkpt lon="100.456919" lat="14.108017">
                <ele>-0.340000</ele>
                <time>2019-12-01T02:56:33Z</time>
            </trkpt>
            <trkpt lon="100.456945" lat="14.107972">
                <ele>0.140000</ele>
                <time>2019-12-01T02:56:50Z</time>
            </trkpt>
            <trkpt lon="100.456937" lat="14.107967">
                <ele>0.140000</ele>
                <time>2019-12-01T02:57:13Z</time>
            </trkpt>
            <trkpt lon="100.456931" lat="14.107960">
                <ele>0.620000</ele>
                <time>2019-12-01T02:57:39Z</time>
            </trkpt>
            <trkpt lon="100.456879" lat="14.107941">
                <ele>0.140000</ele>
                <time>2019-12-01T02:57:51Z</time>
            </trkpt>
            <trkpt lon="100.456827" lat="14.107927">
                <ele>0.140000</ele>
                <time>2019-12-01T02:57:55Z</time>
            </trkpt>
            <trkpt lon="100.456579" lat="14.107880">
                <ele>0.620000</ele>
                <time>2019-12-01T02:58:09Z</time>
            </trkpt>
            <trkpt lon="100.456174" lat="14.107797">
                <ele>0.620000</ele>
                <time>2019-12-01T02:58:28Z</time>
            </trkpt>
            <trkpt lon="100.455786" lat="14.107726">
                <ele>1.100000</ele>
                <time>2019-12-01T02:58:45Z</time>
            </trkpt>
            <trkpt lon="100.455327" lat="14.107636">
                <ele>1.100000</ele>
                <time>2019-12-01T02:59:04Z</time>
            </trkpt>
            <trkpt lon="100.454834" lat="14.107545">
                <ele>0.620000</ele>
                <time>2019-12-01T02:59:23Z</time>
            </trkpt>
            <trkpt lon="100.454382" lat="14.107459">
                <ele>0.620000</ele>
                <time>2019-12-01T02:59:40Z</time>
            </trkpt>
            <trkpt lon="100.453934" lat="14.107376">
                <ele>0.620000</ele>
                <time>2019-12-01T02:59:57Z</time>
            </trkpt>
            <trkpt lon="100.453628" lat="14.107333">
                <ele>0.620000</ele>
                <time>2019-12-01T03:00:11Z</time>
            </trkpt>
            <trkpt lon="100.453603" lat="14.107329">
                <ele>0.620000</ele>
                <time>2019-12-01T03:00:25Z</time>
            </trkpt>
            <trkpt lon="100.453572" lat="14.107289">
                <ele>0.620000</ele>
                <time>2019-12-01T03:00:53Z</time>
            </trkpt>
            <trkpt lon="100.453491" lat="14.107169">
                <ele>1.100000</ele>
                <time>2019-12-01T03:01:12Z</time>
            </trkpt>
            <trkpt lon="100.453502" lat="14.107175">
                <ele>1.580000</ele>
                <time>2019-12-01T03:01:48Z</time>
            </trkpt>
            <trkpt lon="100.453511" lat="14.107159">
                <ele>1.580000</ele>
                <time>2019-12-01T03:02:04Z</time>
            </trkpt>
            <trkpt lon="100.453764" lat="14.106935">
                <ele>1.580000</ele>
                <time>2019-12-01T03:02:19Z</time>
            </trkpt>
            <trkpt lon="100.454265" lat="14.106524">
                <ele>1.100000</ele>
                <time>2019-12-01T03:02:37Z</time>
            </trkpt>
            <trkpt lon="100.454947" lat="14.105960">
                <ele>1.100000</ele>
                <time>2019-12-01T03:02:59Z</time>
            </trkpt>
            <trkpt lon="100.455592" lat="14.105533">
                <ele>1.580000</ele>
                <time>2019-12-01T03:03:17Z</time>
            </trkpt>
            <trkpt lon="100.456531" lat="14.105107">
                <ele>1.100000</ele>
                <time>2019-12-01T03:03:40Z</time>
            </trkpt>
            <trkpt lon="100.457434" lat="14.104698">
                <ele>1.100000</ele>
                <time>2019-12-01T03:04:03Z</time>
            </trkpt>
            <trkpt lon="100.458203" lat="14.104321">
                <ele>1.100000</ele>
                <time>2019-12-01T03:04:22Z</time>
            </trkpt>
            <trkpt lon="100.459168" lat="14.103852">
                <ele>1.580000</ele>
                <time>2019-12-01T03:04:45Z</time>
            </trkpt>
            <trkpt lon="100.460099" lat="14.103394">
                <ele>1.100000</ele>
                <time>2019-12-01T03:05:07Z</time>
            </trkpt>
            <trkpt lon="100.460363" lat="14.103216">
                <ele>1.100000</ele>
                <time>2019-12-01T03:05:15Z</time>
            </trkpt>
            <trkpt lon="100.460362" lat="14.103180">
                <ele>1.580000</ele>
                <time>2019-12-01T03:05:16Z</time>
            </trkpt>
            <trkpt lon="100.460296" lat="14.103041">
                <ele>1.100000</ele>
                <time>2019-12-01T03:05:20Z</time>
            </trkpt>
            <trkpt lon="100.460238" lat="14.102916">
                <ele>1.100000</ele>
                <time>2019-12-01T03:05:25Z</time>
            </trkpt>
            <trkpt lon="100.460290" lat="14.102841">
                <ele>1.100000</ele>
                <time>2019-12-01T03:05:31Z</time>
            </trkpt>
            <trkpt lon="100.460415" lat="14.102777">
                <ele>1.580000</ele>
                <time>2019-12-01T03:05:46Z</time>
            </trkpt>
            <trkpt lon="100.460414" lat="14.102765">
                <ele>1.580000</ele>
                <time>2019-12-01T03:06:09Z</time>
            </trkpt>
            <trkpt lon="100.460431" lat="14.102762">
                <ele>1.580000</ele>
                <time>2019-12-01T03:06:37Z</time>
            </trkpt>
            <trkpt lon="100.460431" lat="14.102746">
                <ele>1.580000</ele>
                <time>2019-12-01T03:07:12Z</time>
            </trkpt>
            <trkpt lon="100.460431" lat="14.102755">
                <ele>2.060000</ele>
                <time>2019-12-01T03:07:41Z</time>
            </trkpt>
            <trkpt lon="100.460434" lat="14.102752">
                <ele>2.060000</ele>
                <time>2019-12-01T03:08:05Z</time>
            </trkpt>
            <trkpt lon="100.460441" lat="14.102758">
                <ele>2.060000</ele>
                <time>2019-12-01T03:08:30Z</time>
            </trkpt>
            <trkpt lon="100.460458" lat="14.102757">
                <ele>2.060000</ele>
                <time>2019-12-01T03:08:32Z</time>
            </trkpt>
            <trkpt lon="100.460566" lat="14.102768">
                <ele>1.580000</ele>
                <time>2019-12-01T03:08:47Z</time>
            </trkpt>
            <trkpt lon="100.460564" lat="14.102772">
                <ele>2.060000</ele>
                <time>2019-12-01T03:09:10Z</time>
            </trkpt>
            <trkpt lon="100.460650" lat="14.102765">
                <ele>2.060000</ele>
                <time>2019-12-01T03:09:16Z</time>
            </trkpt>
            <trkpt lon="100.460958" lat="14.102601">
                <ele>1.580000</ele>
                <time>2019-12-01T03:09:28Z</time>
            </trkpt>
            <trkpt lon="100.461264" lat="14.102556">
                <ele>1.100000</ele>
                <time>2019-12-01T03:09:40Z</time>
            </trkpt>
            <trkpt lon="100.461282" lat="14.102549">
                <ele>1.100000</ele>
                <time>2019-12-01T03:09:41Z</time>
            </trkpt>
            <trkpt lon="100.461305" lat="14.102540">
                <ele>1.580000</ele>
                <time>2019-12-01T03:09:42Z</time>
            </trkpt>
            <trkpt lon="100.461334" lat="14.102527">
                <ele>1.580000</ele>
                <time>2019-12-01T03:09:43Z</time>
            </trkpt>
            <trkpt lon="100.461368" lat="14.102518">
                <ele>1.580000</ele>
                <time>2019-12-01T03:09:44Z</time>
            </trkpt>
            <trkpt lon="100.461511" lat="14.102517">
                <ele>1.100000</ele>
                <time>2019-12-01T03:09:54Z</time>
            </trkpt>
            <trkpt lon="100.461528" lat="14.102559">
                <ele>1.580000</ele>
                <time>2019-12-01T03:10:32Z</time>
            </trkpt>
            <trkpt lon="100.461535" lat="14.102576">
                <ele>1.580000</ele>
                <time>2019-12-01T03:10:39Z</time>
            </trkpt>
            <trkpt lon="100.461545" lat="14.102582">
                <ele>1.580000</ele>
                <time>2019-12-01T03:10:40Z</time>
            </trkpt>
            <trkpt lon="100.461559" lat="14.102583">
                <ele>1.580000</ele>
                <time>2019-12-01T03:10:41Z</time>
            </trkpt>
            <trkpt lon="100.461576" lat="14.102573">
                <ele>1.580000</ele>
                <time>2019-12-01T03:10:42Z</time>
            </trkpt>
            <trkpt lon="100.461593" lat="14.102564">
                <ele>1.100000</ele>
                <time>2019-12-01T03:10:43Z</time>
            </trkpt>
            <trkpt lon="100.461609" lat="14.102554">
                <ele>1.100000</ele>
                <time>2019-12-01T03:10:44Z</time>
            </trkpt>
            <trkpt lon="100.461623" lat="14.102542">
                <ele>1.100000</ele>
                <time>2019-12-01T03:10:45Z</time>
            </trkpt>
            <trkpt lon="100.461637" lat="14.102534">
                <ele>1.100000</ele>
                <time>2019-12-01T03:10:46Z</time>
            </trkpt>
            <trkpt lon="100.461651" lat="14.102528">
                <ele>1.100000</ele>
                <time>2019-12-01T03:10:47Z</time>
            </trkpt>
            <trkpt lon="100.461666" lat="14.102524">
                <ele>1.100000</ele>
                <time>2019-12-01T03:10:48Z</time>
            </trkpt>
            <trkpt lon="100.461680" lat="14.102521">
                <ele>1.100000</ele>
                <time>2019-12-01T03:10:49Z</time>
            </trkpt>
            <trkpt lon="100.462013" lat="14.102474">
                <ele>2.060000</ele>
                <time>2019-12-01T03:11:02Z</time>
            </trkpt>
            <trkpt lon="100.462288" lat="14.102342">
                <ele>3.500000</ele>
                <time>2019-12-01T03:11:16Z</time>
            </trkpt>
            <trkpt lon="100.462557" lat="14.102222">
                <ele>1.100000</ele>
                <time>2019-12-01T03:11:28Z</time>
            </trkpt>
            <trkpt lon="100.462695" lat="14.102166">
                <ele>1.580000</ele>
                <time>2019-12-01T03:11:36Z</time>
            </trkpt>
            <trkpt lon="100.463015" lat="14.102019">
                <ele>1.580000</ele>
                <time>2019-12-01T03:11:50Z</time>
            </trkpt>
            <trkpt lon="100.463131" lat="14.101781">
                <ele>2.060000</ele>
                <time>2019-12-01T03:12:01Z</time>
            </trkpt>
            <trkpt lon="100.462919" lat="14.101435">
                <ele>1.580000</ele>
                <time>2019-12-01T03:12:12Z</time>
            </trkpt>
            <trkpt lon="100.463219" lat="14.101284">
                <ele>1.580000</ele>
                <time>2019-12-01T03:12:21Z</time>
            </trkpt>
            <trkpt lon="100.463237" lat="14.101142">
                <ele>2.060000</ele>
                <time>2019-12-01T03:12:26Z</time>
            </trkpt>
            <trkpt lon="100.463167" lat="14.100951">
                <ele>1.580000</ele>
                <time>2019-12-01T03:12:32Z</time>
            </trkpt>
            <trkpt lon="100.463345" lat="14.100807">
                <ele>1.580000</ele>
                <time>2019-12-01T03:12:40Z</time>
            </trkpt>
            <trkpt lon="100.463895" lat="14.100585">
                <ele>2.060000</ele>
                <time>2019-12-01T03:12:57Z</time>
            </trkpt>
            <trkpt lon="100.463972" lat="14.100566">
                <ele>2.060000</ele>
                <time>2019-12-01T03:13:00Z</time>
            </trkpt>
            <trkpt lon="100.464156" lat="14.100852">
                <ele>2.060000</ele>
                <time>2019-12-01T03:13:12Z</time>
            </trkpt>
            <trkpt lon="100.464378" lat="14.101283">
                <ele>2.540000</ele>
                <time>2019-12-01T03:13:26Z</time>
            </trkpt>
            <trkpt lon="100.464445" lat="14.101312">
                <ele>2.060000</ele>
                <time>2019-12-01T03:13:36Z</time>
            </trkpt>
            <trkpt lon="100.464519" lat="14.101310">
                <ele>2.060000</ele>
                <time>2019-12-01T03:13:45Z</time>
            </trkpt>
            <trkpt lon="100.464530" lat="14.101308">
                <ele>2.060000</ele>
                <time>2019-12-01T03:13:48Z</time>
            </trkpt>
            <trkpt lon="100.464788" lat="14.101174">
                <ele>2.060000</ele>
                <time>2019-12-01T03:14:05Z</time>
            </trkpt>
            <trkpt lon="100.464910" lat="14.101097">
                <ele>1.580000</ele>
                <time>2019-12-01T03:14:19Z</time>
            </trkpt>
            <trkpt lon="100.464934" lat="14.101067">
                <ele>1.580000</ele>
                <time>2019-12-01T03:14:25Z</time>
            </trkpt>
            <trkpt lon="100.464941" lat="14.101004">
                <ele>1.580000</ele>
                <time>2019-12-01T03:14:38Z</time>
            </trkpt>
            <trkpt lon="100.464924" lat="14.100959">
                <ele>1.580000</ele>
                <time>2019-12-01T03:14:42Z</time>
            </trkpt>
            <trkpt lon="100.464787" lat="14.100689">
                <ele>1.100000</ele>
                <time>2019-12-01T03:14:58Z</time>
            </trkpt>
            <trkpt lon="100.464649" lat="14.100429">
                <ele>1.580000</ele>
                <time>2019-12-01T03:15:15Z</time>
            </trkpt>
            <trkpt lon="100.464545" lat="14.100226">
                <ele>1.580000</ele>
                <time>2019-12-01T03:15:30Z</time>
            </trkpt>
            <trkpt lon="100.464518" lat="14.100175">
                <ele>1.100000</ele>
                <time>2019-12-01T03:15:42Z</time>
            </trkpt>
            <trkpt lon="100.464462" lat="14.100069">
                <ele>1.100000</ele>
                <time>2019-12-01T03:15:55Z</time>
            </trkpt>
            <trkpt lon="100.464437" lat="14.100006">
                <ele>1.580000</ele>
                <time>2019-12-01T03:16:09Z</time>
            </trkpt>
            <trkpt lon="100.464468" lat="14.099971">
                <ele>1.100000</ele>
                <time>2019-12-01T03:16:23Z</time>
            </trkpt>
            <trkpt lon="100.464410" lat="14.099853">
                <ele>1.580000</ele>
                <time>2019-12-01T03:16:39Z</time>
            </trkpt>
            <trkpt lon="100.464324" lat="14.099683">
                <ele>1.100000</ele>
                <time>2019-12-01T03:16:53Z</time>
            </trkpt>
            <trkpt lon="100.464201" lat="14.099430">
                <ele>1.100000</ele>
                <time>2019-12-01T03:17:11Z</time>
            </trkpt>
            <trkpt lon="100.464092" lat="14.099210">
                <ele>1.580000</ele>
                <time>2019-12-01T03:17:27Z</time>
            </trkpt>
            <trkpt lon="100.463987" lat="14.098994">
                <ele>1.100000</ele>
                <time>2019-12-01T03:17:43Z</time>
            </trkpt>
            <trkpt lon="100.463872" lat="14.098780">
                <ele>1.580000</ele>
                <time>2019-12-01T03:17:59Z</time>
            </trkpt>
            <trkpt lon="100.463792" lat="14.098615">
                <ele>1.100000</ele>
                <time>2019-12-01T03:18:10Z</time>
            </trkpt>
            <trkpt lon="100.463723" lat="14.098456">
                <ele>1.100000</ele>
                <time>2019-12-01T03:18:25Z</time>
            </trkpt>
            <trkpt lon="100.463618" lat="14.098200">
                <ele>1.100000</ele>
                <time>2019-12-01T03:18:41Z</time>
            </trkpt>
            <trkpt lon="100.463615" lat="14.098187">
                <ele>1.580000</ele>
                <time>2019-12-01T03:18:42Z</time>
            </trkpt>
            <trkpt lon="100.463661" lat="14.098158">
                <ele>1.100000</ele>
                <time>2019-12-01T03:18:46Z</time>
            </trkpt>
            <trkpt lon="100.464079" lat="14.098109">
                <ele>0.620000</ele>
                <time>2019-12-01T03:19:02Z</time>
            </trkpt>
            <trkpt lon="100.464394" lat="14.098081">
                <ele>0.620000</ele>
                <time>2019-12-01T03:19:13Z</time>
            </trkpt>
            <trkpt lon="100.464807" lat="14.097965">
                <ele>1.100000</ele>
                <time>2019-12-01T03:19:30Z</time>
            </trkpt>
            <trkpt lon="100.464862" lat="14.097916">
                <ele>1.580000</ele>
                <time>2019-12-01T03:19:33Z</time>
            </trkpt>
            <trkpt lon="100.464961" lat="14.097886">
                <ele>1.580000</ele>
                <time>2019-12-01T03:19:38Z</time>
            </trkpt>
            <trkpt lon="100.465166" lat="14.097801">
                <ele>1.100000</ele>
                <time>2019-12-01T03:19:51Z</time>
            </trkpt>
            <trkpt lon="100.465189" lat="14.097784">
                <ele>1.100000</ele>
                <time>2019-12-01T03:20:01Z</time>
            </trkpt>
            <trkpt lon="100.465211" lat="14.097733">
                <ele>1.100000</ele>
                <time>2019-12-01T03:20:06Z</time>
            </trkpt>
            <trkpt lon="100.465456" lat="14.097670">
                <ele>1.100000</ele>
                <time>2019-12-01T03:20:21Z</time>
            </trkpt>
            <trkpt lon="100.465680" lat="14.097643">
                <ele>1.580000</ele>
                <time>2019-12-01T03:20:34Z</time>
            </trkpt>
            <trkpt lon="100.466132" lat="14.097520">
                <ele>1.100000</ele>
                <time>2019-12-01T03:20:52Z</time>
            </trkpt>
            <trkpt lon="100.466435" lat="14.097392">
                <ele>1.580000</ele>
                <time>2019-12-01T03:21:08Z</time>
            </trkpt>
            <trkpt lon="100.466885" lat="14.097230">
                <ele>1.580000</ele>
                <time>2019-12-01T03:21:22Z</time>
            </trkpt>
            <trkpt lon="100.467561" lat="14.097005">
                <ele>1.100000</ele>
                <time>2019-12-01T03:21:41Z</time>
            </trkpt>
            <trkpt lon="100.468179" lat="14.096811">
                <ele>2.060000</ele>
                <time>2019-12-01T03:21:58Z</time>
            </trkpt>
            <trkpt lon="100.468584" lat="14.096591">
                <ele>1.580000</ele>
                <time>2019-12-01T03:22:11Z</time>
            </trkpt>
            <trkpt lon="100.468572" lat="14.096550">
                <ele>2.060000</ele>
                <time>2019-12-01T03:22:12Z</time>
            </trkpt>
            <trkpt lon="100.468551" lat="14.096510">
                <ele>2.060000</ele>
                <time>2019-12-01T03:22:13Z</time>
            </trkpt>
            <trkpt lon="100.468524" lat="14.096474">
                <ele>1.580000</ele>
                <time>2019-12-01T03:22:14Z</time>
            </trkpt>
            <trkpt lon="100.468496" lat="14.096439">
                <ele>1.580000</ele>
                <time>2019-12-01T03:22:15Z</time>
            </trkpt>
            <trkpt lon="100.468468" lat="14.096406">
                <ele>2.060000</ele>
                <time>2019-12-01T03:22:16Z</time>
            </trkpt>
            <trkpt lon="100.468349" lat="14.096226">
                <ele>2.060000</ele>
                <time>2019-12-01T03:22:21Z</time>
            </trkpt>
            <trkpt lon="100.468342" lat="14.096186">
                <ele>2.060000</ele>
                <time>2019-12-01T03:22:22Z</time>
            </trkpt>
            <trkpt lon="100.468354" lat="14.096146">
                <ele>2.060000</ele>
                <time>2019-12-01T03:22:23Z</time>
            </trkpt>
            <trkpt lon="100.468380" lat="14.096113">
                <ele>1.580000</ele>
                <time>2019-12-01T03:22:24Z</time>
            </trkpt>
            <trkpt lon="100.468418" lat="14.096094">
                <ele>1.580000</ele>
                <time>2019-12-01T03:22:25Z</time>
            </trkpt>
            <trkpt lon="100.468458" lat="14.096081">
                <ele>1.100000</ele>
                <time>2019-12-01T03:22:26Z</time>
            </trkpt>
            <trkpt lon="100.469216" lat="14.095926">
                <ele>2.060000</ele>
                <time>2019-12-01T03:22:44Z</time>
            </trkpt>
            <trkpt lon="100.469701" lat="14.095784">
                <ele>1.580000</ele>
                <time>2019-12-01T03:22:59Z</time>
            </trkpt>
            <trkpt lon="100.470275" lat="14.095630">
                <ele>1.580000</ele>
                <time>2019-12-01T03:23:13Z</time>
            </trkpt>
            <trkpt lon="100.470691" lat="14.095484">
                <ele>1.580000</ele>
                <time>2019-12-01T03:23:25Z</time>
            </trkpt>
            <trkpt lon="100.471225" lat="14.095299">
                <ele>1.580000</ele>
                <time>2019-12-01T03:23:40Z</time>
            </trkpt>
            <trkpt lon="100.471864" lat="14.095024">
                <ele>2.060000</ele>
                <time>2019-12-01T03:23:58Z</time>
            </trkpt>
            <trkpt lon="100.472359" lat="14.094832">
                <ele>1.580000</ele>
                <time>2019-12-01T03:24:12Z</time>
            </trkpt>
            <trkpt lon="100.472642" lat="14.094709">
                <ele>2.060000</ele>
                <time>2019-12-01T03:24:20Z</time>
            </trkpt>
            <trkpt lon="100.472672" lat="14.094722">
                <ele>1.100000</ele>
                <time>2019-12-01T03:24:21Z</time>
            </trkpt>
            <trkpt lon="100.472698" lat="14.094748">
                <ele>1.100000</ele>
                <time>2019-12-01T03:24:22Z</time>
            </trkpt>
            <trkpt lon="100.472715" lat="14.094782">
                <ele>1.100000</ele>
                <time>2019-12-01T03:24:23Z</time>
            </trkpt>
            <trkpt lon="100.472731" lat="14.094818">
                <ele>1.100000</ele>
                <time>2019-12-01T03:24:24Z</time>
            </trkpt>
            <trkpt lon="100.473000" lat="14.095328">
                <ele>0.620000</ele>
                <time>2019-12-01T03:24:39Z</time>
            </trkpt>
            <trkpt lon="100.473246" lat="14.095776">
                <ele>1.100000</ele>
                <time>2019-12-01T03:24:57Z</time>
            </trkpt>
            <trkpt lon="100.473253" lat="14.095783">
                <ele>1.580000</ele>
                <time>2019-12-01T03:25:15Z</time>
            </trkpt>
            <trkpt lon="100.473238" lat="14.095778">
                <ele>1.100000</ele>
                <time>2019-12-01T03:25:42Z</time>
            </trkpt>
            <trkpt lon="100.473256" lat="14.095796">
                <ele>0.620000</ele>
                <time>2019-12-01T03:25:53Z</time>
            </trkpt>
            <trkpt lon="100.473336" lat="14.095939">
                <ele>0.620000</ele>
                <time>2019-12-01T03:26:04Z</time>
            </trkpt>
            <trkpt lon="100.473580" lat="14.096417">
                <ele>1.100000</ele>
                <time>2019-12-01T03:26:20Z</time>
            </trkpt>
            <trkpt lon="100.473805" lat="14.096822">
                <ele>1.100000</ele>
                <time>2019-12-01T03:26:37Z</time>
            </trkpt>
            <trkpt lon="100.473868" lat="14.096899">
                <ele>1.100000</ele>
                <time>2019-12-01T03:26:41Z</time>
            </trkpt>
            <trkpt lon="100.474147" lat="14.096806">
                <ele>1.100000</ele>
                <time>2019-12-01T03:26:54Z</time>
            </trkpt>
            <trkpt lon="100.474424" lat="14.096659">
                <ele>1.580000</ele>
                <time>2019-12-01T03:27:07Z</time>
            </trkpt>
            <trkpt lon="100.474484" lat="14.096633">
                <ele>1.100000</ele>
                <time>2019-12-01T03:27:17Z</time>
            </trkpt>
            <trkpt lon="100.474672" lat="14.096559">
                <ele>1.100000</ele>
                <time>2019-12-01T03:27:29Z</time>
            </trkpt>
            <trkpt lon="100.474818" lat="14.096474">
                <ele>1.100000</ele>
                <time>2019-12-01T03:27:42Z</time>
            </trkpt>
            <trkpt lon="100.474907" lat="14.096418">
                <ele>1.100000</ele>
                <time>2019-12-01T03:27:54Z</time>
            </trkpt>
            <trkpt lon="100.475047" lat="14.096368">
                <ele>1.100000</ele>
                <time>2019-12-01T03:28:12Z</time>
            </trkpt>
            <trkpt lon="100.475071" lat="14.096385">
                <ele>1.580000</ele>
                <time>2019-12-01T03:28:25Z</time>
            </trkpt>
            <trkpt lon="100.475087" lat="14.096395">
                <ele>1.580000</ele>
                <time>2019-12-01T03:28:41Z</time>
            </trkpt>
            <trkpt lon="100.475135" lat="14.096373">
                <ele>1.580000</ele>
                <time>2019-12-01T03:28:55Z</time>
            </trkpt>
            <trkpt lon="100.475254" lat="14.096326">
                <ele>-0.340000</ele>
                <time>2019-12-01T03:29:09Z</time>
            </trkpt>
            <trkpt lon="100.475269" lat="14.096320">
                <ele>3.500000</ele>
                <time>2019-12-01T03:29:10Z</time>
            </trkpt>
            <trkpt lon="100.475390" lat="14.096230">
                <ele>1.100000</ele>
                <time>2019-12-01T03:29:23Z</time>
            </trkpt>
            <trkpt lon="100.475422" lat="14.096163">
                <ele>1.100000</ele>
                <time>2019-12-01T03:29:32Z</time>
            </trkpt>
            <trkpt lon="100.475400" lat="14.096076">
                <ele>1.580000</ele>
                <time>2019-12-01T03:29:37Z</time>
            </trkpt>
            <trkpt lon="100.475215" lat="14.095725">
                <ele>1.100000</ele>
                <time>2019-12-01T03:29:49Z</time>
            </trkpt>
            <trkpt lon="100.475124" lat="14.095578">
                <ele>0.620000</ele>
                <time>2019-12-01T03:29:54Z</time>
            </trkpt>
            <trkpt lon="100.475180" lat="14.095496">
                <ele>1.100000</ele>
                <time>2019-12-01T03:29:58Z</time>
            </trkpt>
            <trkpt lon="100.475248" lat="14.095399">
                <ele>0.620000</ele>
                <time>2019-12-01T03:30:03Z</time>
            </trkpt>
            <trkpt lon="100.475065" lat="14.094966">
                <ele>1.100000</ele>
                <time>2019-12-01T03:30:17Z</time>
            </trkpt>
            <trkpt lon="100.474761" lat="14.094331">
                <ele>1.100000</ele>
                <time>2019-12-01T03:30:37Z</time>
            </trkpt>
            <trkpt lon="100.474363" lat="14.093501">
                <ele>1.580000</ele>
                <time>2019-12-01T03:31:02Z</time>
            </trkpt>
            <trkpt lon="100.474029" lat="14.092790">
                <ele>1.580000</ele>
                <time>2019-12-01T03:31:23Z</time>
            </trkpt>
            <trkpt lon="100.473962" lat="14.092636">
                <ele>2.060000</ele>
                <time>2019-12-01T03:31:28Z</time>
            </trkpt>
            <trkpt lon="100.473969" lat="14.092615">
                <ele>2.060000</ele>
                <time>2019-12-01T03:31:29Z</time>
            </trkpt>
            <trkpt lon="100.473985" lat="14.092600">
                <ele>2.060000</ele>
                <time>2019-12-01T03:31:30Z</time>
            </trkpt>
            <trkpt lon="100.474009" lat="14.092585">
                <ele>2.060000</ele>
                <time>2019-12-01T03:31:31Z</time>
            </trkpt>
            <trkpt lon="100.474036" lat="14.092571">
                <ele>2.060000</ele>
                <time>2019-12-01T03:31:32Z</time>
            </trkpt>
            <trkpt lon="100.474661" lat="14.092227">
                <ele>2.540000</ele>
                <time>2019-12-01T03:31:49Z</time>
            </trkpt>
            <trkpt lon="100.475236" lat="14.091892">
                <ele>0.620000</ele>
                <time>2019-12-01T03:32:03Z</time>
            </trkpt>
            <trkpt lon="100.475494" lat="14.091777">
                <ele>2.060000</ele>
                <time>2019-12-01T03:32:09Z</time>
            </trkpt>
            <trkpt lon="100.476373" lat="14.091373">
                <ele>2.060000</ele>
                <time>2019-12-01T03:32:29Z</time>
            </trkpt>
            <trkpt lon="100.477269" lat="14.090974">
                <ele>2.540000</ele>
                <time>2019-12-01T03:32:50Z</time>
            </trkpt>
            <trkpt lon="100.477518" lat="14.090873">
                <ele>2.060000</ele>
                <time>2019-12-01T03:32:58Z</time>
            </trkpt>
            <trkpt lon="100.477573" lat="14.090843">
                <ele>2.540000</ele>
                <time>2019-12-01T03:33:01Z</time>
            </trkpt>
            <trkpt lon="100.477592" lat="14.090847">
                <ele>2.060000</ele>
                <time>2019-12-01T03:33:02Z</time>
            </trkpt>
            <trkpt lon="100.477613" lat="14.090889">
                <ele>1.580000</ele>
                <time>2019-12-01T03:33:04Z</time>
            </trkpt>
            <trkpt lon="100.477803" lat="14.091530">
                <ele>1.580000</ele>
                <time>2019-12-01T03:33:23Z</time>
            </trkpt>
            <trkpt lon="100.477975" lat="14.092115">
                <ele>1.580000</ele>
                <time>2019-12-01T03:33:41Z</time>
            </trkpt>
            <trkpt lon="100.478158" lat="14.092728">
                <ele>1.100000</ele>
                <time>2019-12-01T03:34:00Z</time>
            </trkpt>
            <trkpt lon="100.478334" lat="14.093329">
                <ele>1.580000</ele>
                <time>2019-12-01T03:34:19Z</time>
            </trkpt>
            <trkpt lon="100.478477" lat="14.093794">
                <ele>1.580000</ele>
                <time>2019-12-01T03:34:35Z</time>
            </trkpt>
            <trkpt lon="100.478650" lat="14.094353">
                <ele>1.580000</ele>
                <time>2019-12-01T03:34:53Z</time>
            </trkpt>
            <trkpt lon="100.478776" lat="14.094629">
                <ele>1.580000</ele>
                <time>2019-12-01T03:35:03Z</time>
            </trkpt>
            <trkpt lon="100.479109" lat="14.094510">
                <ele>1.580000</ele>
                <time>2019-12-01T03:35:14Z</time>
            </trkpt>
            <trkpt lon="100.479734" lat="14.094213">
                <ele>1.580000</ele>
                <time>2019-12-01T03:35:32Z</time>
            </trkpt>
            <trkpt lon="100.480277" lat="14.093948">
                <ele>1.580000</ele>
                <time>2019-12-01T03:35:49Z</time>
            </trkpt>
            <trkpt lon="100.480748" lat="14.093725">
                <ele>1.100000</ele>
                <time>2019-12-01T03:36:04Z</time>
            </trkpt>
            <trkpt lon="100.481193" lat="14.093537">
                <ele>0.620000</ele>
                <time>2019-12-01T03:36:19Z</time>
            </trkpt>
            <trkpt lon="100.481670" lat="14.093303">
                <ele>1.100000</ele>
                <time>2019-12-01T03:36:35Z</time>
            </trkpt>
            <trkpt lon="100.482145" lat="14.093054">
                <ele>1.100000</ele>
                <time>2019-12-01T03:36:51Z</time>
            </trkpt>
            <trkpt lon="100.482563" lat="14.092905">
                <ele>1.580000</ele>
                <time>2019-12-01T03:37:05Z</time>
            </trkpt>
            <trkpt lon="100.483150" lat="14.092587">
                <ele>1.580000</ele>
                <time>2019-12-01T03:37:22Z</time>
            </trkpt>
            <trkpt lon="100.483696" lat="14.092341">
                <ele>1.100000</ele>
                <time>2019-12-01T03:37:38Z</time>
            </trkpt>
            <trkpt lon="100.484251" lat="14.092081">
                <ele>1.100000</ele>
                <time>2019-12-01T03:37:55Z</time>
            </trkpt>
            <trkpt lon="100.484653" lat="14.091924">
                <ele>1.100000</ele>
                <time>2019-12-01T03:38:09Z</time>
            </trkpt>
            <trkpt lon="100.484869" lat="14.091833">
                <ele>0.620000</ele>
                <time>2019-12-01T03:38:21Z</time>
            </trkpt>
            <trkpt lon="100.484940" lat="14.091801">
                <ele>0.620000</ele>
                <time>2019-12-01T03:38:25Z</time>
            </trkpt>
            <trkpt lon="100.484992" lat="14.091771">
                <ele>1.100000</ele>
                <time>2019-12-01T03:38:29Z</time>
            </trkpt>
            <trkpt lon="100.485106" lat="14.091716">
                <ele>0.620000</ele>
                <time>2019-12-01T03:38:42Z</time>
            </trkpt>
            <trkpt lon="100.485211" lat="14.091658">
                <ele>1.100000</ele>
                <time>2019-12-01T03:38:56Z</time>
            </trkpt>
            <trkpt lon="100.485279" lat="14.091638">
                <ele>1.580000</ele>
                <time>2019-12-01T03:39:04Z</time>
            </trkpt>
            <trkpt lon="100.485358" lat="14.091601">
                <ele>1.580000</ele>
                <time>2019-12-01T03:39:09Z</time>
            </trkpt>
            <trkpt lon="100.485464" lat="14.091551">
                <ele>1.100000</ele>
                <time>2019-12-01T03:39:22Z</time>
            </trkpt>
            <trkpt lon="100.485619" lat="14.091451">
                <ele>0.620000</ele>
                <time>2019-12-01T03:39:32Z</time>
            </trkpt>
            <trkpt lon="100.485977" lat="14.091293">
                <ele>1.100000</ele>
                <time>2019-12-01T03:39:47Z</time>
            </trkpt>
            <trkpt lon="100.486430" lat="14.091102">
                <ele>1.100000</ele>
                <time>2019-12-01T03:40:03Z</time>
            </trkpt>
            <trkpt lon="100.486724" lat="14.090881">
                <ele>1.580000</ele>
                <time>2019-12-01T03:40:15Z</time>
            </trkpt>
            <trkpt lon="100.487018" lat="14.090786">
                <ele>2.060000</ele>
                <time>2019-12-01T03:40:28Z</time>
            </trkpt>
            <trkpt lon="100.487354" lat="14.090650">
                <ele>2.060000</ele>
                <time>2019-12-01T03:40:41Z</time>
            </trkpt>
            <trkpt lon="100.487467" lat="14.090609">
                <ele>2.060000</ele>
                <time>2019-12-01T03:40:45Z</time>
            </trkpt>
            <trkpt lon="100.487480" lat="14.090448">
                <ele>1.580000</ele>
                <time>2019-12-01T03:40:51Z</time>
            </trkpt>
            <trkpt lon="100.487342" lat="14.089878">
                <ele>1.580000</ele>
                <time>2019-12-01T03:41:09Z</time>
            </trkpt>
            <trkpt lon="100.487197" lat="14.089338">
                <ele>2.060000</ele>
                <time>2019-12-01T03:41:25Z</time>
            </trkpt>
            <trkpt lon="100.487010" lat="14.088693">
                <ele>2.060000</ele>
                <time>2019-12-01T03:41:42Z</time>
            </trkpt>
            <trkpt lon="100.486904" lat="14.088341">
                <ele>1.580000</ele>
                <time>2019-12-01T03:41:51Z</time>
            </trkpt>
            <trkpt lon="100.486633" lat="14.087429">
                <ele>1.580000</ele>
                <time>2019-12-01T03:42:14Z</time>
            </trkpt>
            <trkpt lon="100.486488" lat="14.086783">
                <ele>1.580000</ele>
                <time>2019-12-01T03:42:32Z</time>
            </trkpt>
            <trkpt lon="100.486505" lat="14.086767">
                <ele>1.580000</ele>
                <time>2019-12-01T03:42:33Z</time>
            </trkpt>
            <trkpt lon="100.486526" lat="14.086755">
                <ele>2.060000</ele>
                <time>2019-12-01T03:42:34Z</time>
            </trkpt>
            <trkpt lon="100.487001" lat="14.086557">
                <ele>2.540000</ele>
                <time>2019-12-01T03:42:48Z</time>
            </trkpt>
            <trkpt lon="100.487950" lat="14.086338">
                <ele>1.580000</ele>
                <time>2019-12-01T03:43:10Z</time>
            </trkpt>
            <trkpt lon="100.488224" lat="14.086303">
                <ele>2.060000</ele>
                <time>2019-12-01T03:43:19Z</time>
            </trkpt>
            <trkpt lon="100.488218" lat="14.086240">
                <ele>2.060000</ele>
                <time>2019-12-01T03:43:22Z</time>
            </trkpt>
            <trkpt lon="100.488200" lat="14.086171">
                <ele>1.580000</ele>
                <time>2019-12-01T03:43:34Z</time>
            </trkpt>
            <trkpt lon="100.488182" lat="14.086172">
                <ele>2.060000</ele>
                <time>2019-12-01T03:43:57Z</time>
            </trkpt>
            <trkpt lon="100.488188" lat="14.086181">
                <ele>1.580000</ele>
                <time>2019-12-01T03:44:28Z</time>
            </trkpt>
            <trkpt lon="100.488193" lat="14.086204">
                <ele>2.060000</ele>
                <time>2019-12-01T03:44:46Z</time>
            </trkpt>
            <trkpt lon="100.488228" lat="14.086298">
                <ele>1.580000</ele>
                <time>2019-12-01T03:45:01Z</time>
            </trkpt>
            <trkpt lon="100.488228" lat="14.086307">
                <ele>2.060000</ele>
                <time>2019-12-01T03:45:02Z</time>
            </trkpt>
            <trkpt lon="100.488268" lat="14.086339">
                <ele>2.060000</ele>
                <time>2019-12-01T03:45:06Z</time>
            </trkpt>
            <trkpt lon="100.488291" lat="14.086337">
                <ele>1.580000</ele>
                <time>2019-12-01T03:45:07Z</time>
            </trkpt>
            <trkpt lon="100.488319" lat="14.086336">
                <ele>2.060000</ele>
                <time>2019-12-01T03:45:08Z</time>
            </trkpt>
            <trkpt lon="100.488350" lat="14.086335">
                <ele>2.060000</ele>
                <time>2019-12-01T03:45:09Z</time>
            </trkpt>
            <trkpt lon="100.488382" lat="14.086333">
                <ele>1.580000</ele>
                <time>2019-12-01T03:45:10Z</time>
            </trkpt>
            <trkpt lon="100.489090" lat="14.086188">
                <ele>1.580000</ele>
                <time>2019-12-01T03:45:29Z</time>
            </trkpt>
            <trkpt lon="100.489917" lat="14.086010">
                <ele>1.100000</ele>
                <time>2019-12-01T03:45:48Z</time>
            </trkpt>
            <trkpt lon="100.490674" lat="14.085865">
                <ele>1.580000</ele>
                <time>2019-12-01T03:46:05Z</time>
            </trkpt>
            <trkpt lon="100.490716" lat="14.085867">
                <ele>1.580000</ele>
                <time>2019-12-01T03:46:06Z</time>
            </trkpt>
            <trkpt lon="100.490755" lat="14.085880">
                <ele>1.580000</ele>
                <time>2019-12-01T03:46:07Z</time>
            </trkpt>
            <trkpt lon="100.490784" lat="14.085907">
                <ele>1.580000</ele>
                <time>2019-12-01T03:46:08Z</time>
            </trkpt>
            <trkpt lon="100.490797" lat="14.085944">
                <ele>1.580000</ele>
                <time>2019-12-01T03:46:09Z</time>
            </trkpt>
            <trkpt lon="100.490805" lat="14.085983">
                <ele>1.100000</ele>
                <time>2019-12-01T03:46:10Z</time>
            </trkpt>
            <trkpt lon="100.491007" lat="14.086529">
                <ele>2.060000</ele>
                <time>2019-12-01T03:46:25Z</time>
            </trkpt>
            <trkpt lon="100.491247" lat="14.087163">
                <ele>2.060000</ele>
                <time>2019-12-01T03:46:41Z</time>
            </trkpt>
            <trkpt lon="100.491455" lat="14.087719">
                <ele>1.100000</ele>
                <time>2019-12-01T03:46:55Z</time>
            </trkpt>
            <trkpt lon="100.491754" lat="14.088492">
                <ele>1.580000</ele>
                <time>2019-12-01T03:47:15Z</time>
            </trkpt>
            <trkpt lon="100.491812" lat="14.088657">
                <ele>1.580000</ele>
                <time>2019-12-01T03:47:19Z</time>
            </trkpt>
            <trkpt lon="100.491906" lat="14.089088">
                <ele>1.580000</ele>
                <time>2019-12-01T03:47:30Z</time>
            </trkpt>
            <trkpt lon="100.491995" lat="14.089735">
                <ele>2.060000</ele>
                <time>2019-12-01T03:47:44Z</time>
            </trkpt>
            <trkpt lon="100.492049" lat="14.090371">
                <ele>1.580000</ele>
                <time>2019-12-01T03:47:59Z</time>
            </trkpt>
            <trkpt lon="100.492076" lat="14.090663">
                <ele>2.540000</ele>
                <time>2019-12-01T03:48:06Z</time>
            </trkpt>
            <trkpt lon="100.492130" lat="14.090807">
                <ele>2.540000</ele>
                <time>2019-12-01T03:48:12Z</time>
            </trkpt>
            <trkpt lon="100.492151" lat="14.090812">
                <ele>2.540000</ele>
                <time>2019-12-01T03:48:13Z</time>
            </trkpt>
            <trkpt lon="100.492177" lat="14.090813">
                <ele>2.540000</ele>
                <time>2019-12-01T03:48:14Z</time>
            </trkpt>
            <trkpt lon="100.492207" lat="14.090805">
                <ele>3.020000</ele>
                <time>2019-12-01T03:48:15Z</time>
            </trkpt>
            <trkpt lon="100.492239" lat="14.090792">
                <ele>2.060000</ele>
                <time>2019-12-01T03:48:16Z</time>
            </trkpt>
            <trkpt lon="100.492273" lat="14.090777">
                <ele>2.540000</ele>
                <time>2019-12-01T03:48:17Z</time>
            </trkpt>
            <trkpt lon="100.492766" lat="14.090543">
                <ele>2.060000</ele>
                <time>2019-12-01T03:48:32Z</time>
            </trkpt>
            <trkpt lon="100.492797" lat="14.090557">
                <ele>3.020000</ele>
                <time>2019-12-01T03:48:33Z</time>
            </trkpt>
            <trkpt lon="100.492839" lat="14.090669">
                <ele>2.060000</ele>
                <time>2019-12-01T03:48:36Z</time>
            </trkpt>
            <trkpt lon="100.492860" lat="14.091129">
                <ele>1.580000</ele>
                <time>2019-12-01T03:48:47Z</time>
            </trkpt>
            <trkpt lon="100.492902" lat="14.091734">
                <ele>1.580000</ele>
                <time>2019-12-01T03:49:02Z</time>
            </trkpt>
            <trkpt lon="100.492930" lat="14.092115">
                <ele>1.100000</ele>
                <time>2019-12-01T03:49:14Z</time>
            </trkpt>
            <trkpt lon="100.492956" lat="14.092566">
                <ele>1.100000</ele>
                <time>2019-12-01T03:49:29Z</time>
            </trkpt>
            <trkpt lon="100.493002" lat="14.093018">
                <ele>1.100000</ele>
                <time>2019-12-01T03:49:44Z</time>
            </trkpt>
            <trkpt lon="100.493039" lat="14.093509">
                <ele>1.580000</ele>
                <time>2019-12-01T03:50:01Z</time>
            </trkpt>
            <trkpt lon="100.493031" lat="14.093510">
                <ele>1.580000</ele>
                <time>2019-12-01T03:50:24Z</time>
            </trkpt>
            <trkpt lon="100.493056" lat="14.093679">
                <ele>1.580000</ele>
                <time>2019-12-01T03:50:39Z</time>
            </trkpt>
            <trkpt lon="100.493103" lat="14.094271">
                <ele>1.580000</ele>
                <time>2019-12-01T03:50:56Z</time>
            </trkpt>
            <trkpt lon="100.493121" lat="14.094480">
                <ele>2.060000</ele>
                <time>2019-12-01T03:51:01Z</time>
            </trkpt>
            <trkpt lon="100.493175" lat="14.095209">
                <ele>0.620000</ele>
                <time>2019-12-01T03:51:19Z</time>
            </trkpt>
            <trkpt lon="100.493240" lat="14.095955">
                <ele>0.620000</ele>
                <time>2019-12-01T03:51:38Z</time>
            </trkpt>
            <trkpt lon="100.493298" lat="14.096580">
                <ele>1.100000</ele>
                <time>2019-12-01T03:51:55Z</time>
            </trkpt>
            <trkpt lon="100.493340" lat="14.097255">
                <ele>1.100000</ele>
                <time>2019-12-01T03:52:14Z</time>
            </trkpt>
            <trkpt lon="100.493350" lat="14.097536">
                <ele>1.580000</ele>
                <time>2019-12-01T03:52:23Z</time>
            </trkpt>
            <trkpt lon="100.493430" lat="14.097565">
                <ele>2.060000</ele>
                <time>2019-12-01T03:52:27Z</time>
            </trkpt>
            <trkpt lon="100.493983" lat="14.097526">
                <ele>1.580000</ele>
                <time>2019-12-01T03:52:44Z</time>
            </trkpt>
            <trkpt lon="100.494443" lat="14.097456">
                <ele>1.100000</ele>
                <time>2019-12-01T03:52:58Z</time>
            </trkpt>
            <trkpt lon="100.494732" lat="14.097381">
                <ele>1.100000</ele>
                <time>2019-12-01T03:53:11Z</time>
            </trkpt>
            <trkpt lon="100.495195" lat="14.097281">
                <ele>1.580000</ele>
                <time>2019-12-01T03:53:26Z</time>
            </trkpt>
            <trkpt lon="100.495242" lat="14.097105">
                <ele>1.100000</ele>
                <time>2019-12-01T03:53:33Z</time>
            </trkpt>
            <trkpt lon="100.495181" lat="14.096579">
                <ele>1.100000</ele>
                <time>2019-12-01T03:53:50Z</time>
            </trkpt>
            <trkpt lon="100.495180" lat="14.096567">
                <ele>1.100000</ele>
                <time>2019-12-01T03:54:03Z</time>
            </trkpt>
            <trkpt lon="100.495140" lat="14.096348">
                <ele>1.100000</ele>
                <time>2019-12-01T03:54:16Z</time>
            </trkpt>
            <trkpt lon="100.495168" lat="14.096027">
                <ele>1.580000</ele>
                <time>2019-12-01T03:54:29Z</time>
            </trkpt>
            <trkpt lon="100.495152" lat="14.095980">
                <ele>1.580000</ele>
                <time>2019-12-01T03:54:42Z</time>
            </trkpt>
            <trkpt lon="100.495150" lat="14.095989">
                <ele>1.580000</ele>
                <time>2019-12-01T03:54:59Z</time>
            </trkpt>
            <trkpt lon="100.495150" lat="14.095994">
                <ele>1.100000</ele>
                <time>2019-12-01T03:55:04Z</time>
            </trkpt>
            <trkpt lon="100.495154" lat="14.096047">
                <ele>1.100000</ele>
                <time>2019-12-01T03:55:08Z</time>
            </trkpt>
            <trkpt lon="100.495137" lat="14.096209">
                <ele>1.100000</ele>
                <time>2019-12-01T03:55:21Z</time>
            </trkpt>
            <trkpt lon="100.495132" lat="14.096222">
                <ele>1.100000</ele>
                <time>2019-12-01T03:55:53Z</time>
            </trkpt>
            <trkpt lon="100.495124" lat="14.096289">
                <ele>0.620000</ele>
                <time>2019-12-01T03:55:58Z</time>
            </trkpt>
            <trkpt lon="100.495182" lat="14.096582">
                <ele>1.100000</ele>
                <time>2019-12-01T03:56:12Z</time>
            </trkpt>
            <trkpt lon="100.495216" lat="14.096914">
                <ele>0.620000</ele>
                <time>2019-12-01T03:56:25Z</time>
            </trkpt>
            <trkpt lon="100.495253" lat="14.097228">
                <ele>1.100000</ele>
                <time>2019-12-01T03:56:36Z</time>
            </trkpt>
            <trkpt lon="100.495533" lat="14.097238">
                <ele>2.060000</ele>
                <time>2019-12-01T03:56:46Z</time>
            </trkpt>
            <trkpt lon="100.496063" lat="14.097161">
                <ele>2.060000</ele>
                <time>2019-12-01T03:57:03Z</time>
            </trkpt>
            <trkpt lon="100.496818" lat="14.097071">
                <ele>1.580000</ele>
                <time>2019-12-01T03:57:24Z</time>
            </trkpt>
            <trkpt lon="100.497377" lat="14.097031">
                <ele>2.060000</ele>
                <time>2019-12-01T03:57:40Z</time>
            </trkpt>
            <trkpt lon="100.497435" lat="14.097035">
                <ele>2.060000</ele>
                <time>2019-12-01T03:57:51Z</time>
            </trkpt>
            <trkpt lon="100.497402" lat="14.097033">
                <ele>1.580000</ele>
                <time>2019-12-01T03:58:06Z</time>
            </trkpt>
            <trkpt lon="100.497106" lat="14.097030">
                <ele>2.540000</ele>
                <time>2019-12-01T03:58:20Z</time>
            </trkpt>
            <trkpt lon="100.496578" lat="14.097101">
                <ele>2.060000</ele>
                <time>2019-12-01T03:58:35Z</time>
            </trkpt>
            <trkpt lon="100.495849" lat="14.097182">
                <ele>1.580000</ele>
                <time>2019-12-01T03:58:54Z</time>
            </trkpt>
            <trkpt lon="100.495162" lat="14.097292">
                <ele>1.580000</ele>
                <time>2019-12-01T03:59:12Z</time>
            </trkpt>
            <trkpt lon="100.494432" lat="14.097457">
                <ele>2.060000</ele>
                <time>2019-12-01T03:59:32Z</time>
            </trkpt>
            <trkpt lon="100.493927" lat="14.097529">
                <ele>1.100000</ele>
                <time>2019-12-01T03:59:46Z</time>
            </trkpt>
            <trkpt lon="100.493382" lat="14.097557">
                <ele>2.060000</ele>
                <time>2019-12-01T04:00:02Z</time>
            </trkpt>
            <trkpt lon="100.493367" lat="14.097637">
                <ele>2.060000</ele>
                <time>2019-12-01T04:00:07Z</time>
            </trkpt>
            <trkpt lon="100.493383" lat="14.097677">
                <ele>1.580000</ele>
                <time>2019-12-01T04:00:09Z</time>
            </trkpt>
            <trkpt lon="100.493661" lat="14.097747">
                <ele>1.580000</ele>
                <time>2019-12-01T04:00:22Z</time>
            </trkpt>
            <trkpt lon="100.493669" lat="14.097757">
                <ele>1.580000</ele>
                <time>2019-12-01T04:00:35Z</time>
            </trkpt>
            <trkpt lon="100.493764" lat="14.097912">
                <ele>1.580000</ele>
                <time>2019-12-01T04:00:49Z</time>
            </trkpt>
            <trkpt lon="100.493845" lat="14.098292">
                <ele>1.580000</ele>
                <time>2019-12-01T04:01:03Z</time>
            </trkpt>
            <trkpt lon="100.493764" lat="14.098759">
                <ele>1.100000</ele>
                <time>2019-12-01T04:01:17Z</time>
            </trkpt>
            <trkpt lon="100.493829" lat="14.098834">
                <ele>2.060000</ele>
                <time>2019-12-01T04:01:22Z</time>
            </trkpt>
            <trkpt lon="100.494254" lat="14.099076">
                <ele>2.540000</ele>
                <time>2019-12-01T04:01:38Z</time>
            </trkpt>
            <trkpt lon="100.494752" lat="14.099346">
                <ele>2.060000</ele>
                <time>2019-12-01T04:01:54Z</time>
            </trkpt>
            <trkpt lon="100.495219" lat="14.099495">
                <ele>1.580000</ele>
                <time>2019-12-01T04:02:07Z</time>
            </trkpt>
            <trkpt lon="100.495666" lat="14.099648">
                <ele>2.060000</ele>
                <time>2019-12-01T04:02:19Z</time>
            </trkpt>
            <trkpt lon="100.496254" lat="14.099857">
                <ele>1.580000</ele>
                <time>2019-12-01T04:02:34Z</time>
            </trkpt>
            <trkpt lon="100.496743" lat="14.100034">
                <ele>1.580000</ele>
                <time>2019-12-01T04:02:47Z</time>
            </trkpt>
            <trkpt lon="100.497205" lat="14.100201">
                <ele>2.060000</ele>
                <time>2019-12-01T04:03:00Z</time>
            </trkpt>
            <trkpt lon="100.497681" lat="14.100517">
                <ele>1.580000</ele>
                <time>2019-12-01T04:03:15Z</time>
            </trkpt>
            <trkpt lon="100.498011" lat="14.100769">
                <ele>2.060000</ele>
                <time>2019-12-01T04:03:28Z</time>
            </trkpt>
            <trkpt lon="100.498119" lat="14.100617">
                <ele>2.060000</ele>
                <time>2019-12-01T04:03:35Z</time>
            </trkpt>
            <trkpt lon="100.498147" lat="14.100481">
                <ele>2.540000</ele>
                <time>2019-12-01T04:03:47Z</time>
            </trkpt>
            <trkpt lon="100.498151" lat="14.100514">
                <ele>2.540000</ele>
                <time>2019-12-01T04:04:09Z</time>
            </trkpt>
            <trkpt lon="100.498177" lat="14.100552">
                <ele>1.580000</ele>
                <time>2019-12-01T04:04:19Z</time>
            </trkpt>
            <trkpt lon="100.498289" lat="14.100621">
                <ele>0.620000</ele>
                <time>2019-12-01T04:04:36Z</time>
            </trkpt>
            <trkpt lon="100.498323" lat="14.100645">
                <ele>1.100000</ele>
                <time>2019-12-01T04:04:42Z</time>
            </trkpt>
            <trkpt lon="100.498541" lat="14.100833">
                <ele>1.100000</ele>
                <time>2019-12-01T04:05:00Z</time>
            </trkpt>
            <trkpt lon="100.498636" lat="14.100922">
                <ele>0.620000</ele>
                <time>2019-12-01T04:05:15Z</time>
            </trkpt>
            <trkpt lon="100.498626" lat="14.100930">
                <ele>0.620000</ele>
                <time>2019-12-01T04:05:40Z</time>
            </trkpt>
            <trkpt lon="100.498579" lat="14.100984">
                <ele>0.620000</ele>
                <time>2019-12-01T04:06:01Z</time>
            </trkpt>
            <trkpt lon="100.498462" lat="14.101113">
                <ele>0.620000</ele>
                <time>2019-12-01T04:06:21Z</time>
            </trkpt>
            <trkpt lon="100.498425" lat="14.101183">
                <ele>0.140000</ele>
                <time>2019-12-01T04:06:34Z</time>
            </trkpt>
            <trkpt lon="100.498708" lat="14.101412">
                <ele>0.620000</ele>
                <time>2019-12-01T04:06:50Z</time>
            </trkpt>
            <trkpt lon="100.499196" lat="14.101870">
                <ele>1.100000</ele>
                <time>2019-12-01T04:07:10Z</time>
            </trkpt>
            <trkpt lon="100.499747" lat="14.102362">
                <ele>0.620000</ele>
                <time>2019-12-01T04:07:30Z</time>
            </trkpt>
            <trkpt lon="100.500400" lat="14.102894">
                <ele>0.140000</ele>
                <time>2019-12-01T04:07:52Z</time>
            </trkpt>
            <trkpt lon="100.500999" lat="14.103342">
                <ele>0.620000</ele>
                <time>2019-12-01T04:08:12Z</time>
            </trkpt>
            <trkpt lon="100.501082" lat="14.103409">
                <ele>0.620000</ele>
                <time>2019-12-01T04:08:16Z</time>
            </trkpt>
            <trkpt lon="100.501219" lat="14.103231">
                <ele>1.100000</ele>
                <time>2019-12-01T04:08:26Z</time>
            </trkpt>
            <trkpt lon="100.501212" lat="14.103200">
                <ele>1.100000</ele>
                <time>2019-12-01T04:08:40Z</time>
            </trkpt>
            <trkpt lon="100.501234" lat="14.103217">
                <ele>0.620000</ele>
                <time>2019-12-01T04:08:50Z</time>
            </trkpt>
            <trkpt lon="100.501502" lat="14.103387">
                <ele>0.620000</ele>
                <time>2019-12-01T04:09:06Z</time>
            </trkpt>
            <trkpt lon="100.501809" lat="14.103604">
                <ele>0.620000</ele>
                <time>2019-12-01T04:09:22Z</time>
            </trkpt>
            <trkpt lon="100.502166" lat="14.103800">
                <ele>0.140000</ele>
                <time>2019-12-01T04:09:37Z</time>
            </trkpt>
            <trkpt lon="100.502524" lat="14.104012">
                <ele>0.140000</ele>
                <time>2019-12-01T04:09:52Z</time>
            </trkpt>
            <trkpt lon="100.502838" lat="14.104200">
                <ele>0.620000</ele>
                <time>2019-12-01T04:10:07Z</time>
            </trkpt>
            <trkpt lon="100.502927" lat="14.104252">
                <ele>0.140000</ele>
                <time>2019-12-01T04:10:17Z</time>
            </trkpt>
            <trkpt lon="100.502963" lat="14.104271">
                <ele>0.620000</ele>
                <time>2019-12-01T04:10:24Z</time>
            </trkpt>
            <trkpt lon="100.503024" lat="14.104301">
                <ele>0.140000</ele>
                <time>2019-12-01T04:10:28Z</time>
            </trkpt>
            <trkpt lon="100.503455" lat="14.104524">
                <ele>0.140000</ele>
                <time>2019-12-01T04:10:47Z</time>
            </trkpt>
            <trkpt lon="100.503843" lat="14.104726">
                <ele>0.140000</ele>
                <time>2019-12-01T04:11:05Z</time>
            </trkpt>
            <trkpt lon="100.504038" lat="14.104834">
                <ele>0.620000</ele>
                <time>2019-12-01T04:11:19Z</time>
            </trkpt>
            <trkpt lon="100.503963" lat="14.105014">
                <ele>0.140000</ele>
                <time>2019-12-01T04:11:37Z</time>
            </trkpt>
            <trkpt lon="100.503870" lat="14.105196">
                <ele>0.140000</ele>
                <time>2019-12-01T04:11:57Z</time>
            </trkpt>
            <trkpt lon="100.503868" lat="14.105204">
                <ele>0.620000</ele>
                <time>2019-12-01T04:12:20Z</time>
            </trkpt>
            <trkpt lon="100.503855" lat="14.105206">
                <ele>1.100000</ele>
                <time>2019-12-01T04:12:40Z</time>
            </trkpt>
            <trkpt lon="100.503927" lat="14.105233">
                <ele>1.100000</ele>
                <time>2019-12-01T04:12:49Z</time>
            </trkpt>
            <trkpt lon="100.503903" lat="14.105216">
                <ele>0.620000</ele>
                <time>2019-12-01T04:12:59Z</time>
            </trkpt>
            <trkpt lon="100.503794" lat="14.105166">
                <ele>0.620000</ele>
                <time>2019-12-01T04:13:10Z</time>
            </trkpt>
            <trkpt lon="100.503330" lat="14.104911">
                <ele>0.620000</ele>
                <time>2019-12-01T04:13:29Z</time>
            </trkpt>
            <trkpt lon="100.502675" lat="14.104579">
                <ele>0.140000</ele>
                <time>2019-12-01T04:13:50Z</time>
            </trkpt>
            <trkpt lon="100.502137" lat="14.104304">
                <ele>0.620000</ele>
                <time>2019-12-01T04:14:09Z</time>
            </trkpt>
            <trkpt lon="100.501792" lat="14.104038">
                <ele>0.140000</ele>
                <time>2019-12-01T04:14:23Z</time>
            </trkpt>
            <trkpt lon="100.501270" lat="14.103597">
                <ele>0.620000</ele>
                <time>2019-12-01T04:14:42Z</time>
            </trkpt>
            <trkpt lon="100.500788" lat="14.103186">
                <ele>0.620000</ele>
                <time>2019-12-01T04:15:01Z</time>
            </trkpt>
            <trkpt lon="100.500127" lat="14.102682">
                <ele>0.620000</ele>
                <time>2019-12-01T04:15:23Z</time>
            </trkpt>
            <trkpt lon="100.499639" lat="14.102269">
                <ele>0.620000</ele>
                <time>2019-12-01T04:15:41Z</time>
            </trkpt>
            <trkpt lon="100.499099" lat="14.101782">
                <ele>0.620000</ele>
                <time>2019-12-01T04:16:01Z</time>
            </trkpt>
            <trkpt lon="100.498574" lat="14.101292">
                <ele>0.620000</ele>
                <time>2019-12-01T04:16:20Z</time>
            </trkpt>
            <trkpt lon="100.498445" lat="14.101190">
                <ele>1.100000</ele>
                <time>2019-12-01T04:16:25Z</time>
            </trkpt>
            <trkpt lon="100.498317" lat="14.101274">
                <ele>0.620000</ele>
                <time>2019-12-01T04:16:30Z</time>
            </trkpt>
            <trkpt lon="100.497982" lat="14.101577">
                <ele>1.100000</ele>
                <time>2019-12-01T04:16:44Z</time>
            </trkpt>
            <trkpt lon="100.497882" lat="14.101504">
                <ele>1.580000</ele>
                <time>2019-12-01T04:16:49Z</time>
            </trkpt>
            <trkpt lon="100.497838" lat="14.101460">
                <ele>2.060000</ele>
                <time>2019-12-01T04:16:51Z</time>
            </trkpt>
            <trkpt lon="100.497735" lat="14.101487">
                <ele>2.060000</ele>
                <time>2019-12-01T04:16:55Z</time>
            </trkpt>
            <trkpt lon="100.497353" lat="14.101795">
                <ele>1.100000</ele>
                <time>2019-12-01T04:17:10Z</time>
            </trkpt>
            <trkpt lon="100.497004" lat="14.102075">
                <ele>1.580000</ele>
                <time>2019-12-01T04:17:26Z</time>
            </trkpt>
            <trkpt lon="100.496897" lat="14.102321">
                <ele>2.060000</ele>
                <time>2019-12-01T04:17:38Z</time>
            </trkpt>
            <trkpt lon="100.497299" lat="14.102623">
                <ele>2.540000</ele>
                <time>2019-12-01T04:17:51Z</time>
            </trkpt>
            <trkpt lon="100.497425" lat="14.102748">
                <ele>2.060000</ele>
                <time>2019-12-01T04:17:55Z</time>
            </trkpt>
            <trkpt lon="100.497524" lat="14.102896">
                <ele>2.060000</ele>
                <time>2019-12-01T04:17:59Z</time>
            </trkpt>
            <trkpt lon="100.497544" lat="14.102937">
                <ele>0.620000</ele>
                <time>2019-12-01T04:18:00Z</time>
            </trkpt>
            <trkpt lon="100.497559" lat="14.102979">
                <ele>0.620000</ele>
                <time>2019-12-01T04:18:01Z</time>
            </trkpt>
            <trkpt lon="100.497651" lat="14.103326">
                <ele>2.060000</ele>
                <time>2019-12-01T04:18:09Z</time>
            </trkpt>
            <trkpt lon="100.497714" lat="14.103726">
                <ele>2.060000</ele>
                <time>2019-12-01T04:18:19Z</time>
            </trkpt>
            <trkpt lon="100.497689" lat="14.103752">
                <ele>2.060000</ele>
                <time>2019-12-01T04:18:20Z</time>
            </trkpt>
            <trkpt lon="100.497251" lat="14.103878">
                <ele>1.580000</ele>
                <time>2019-12-01T04:18:31Z</time>
            </trkpt>
            <trkpt lon="100.497037" lat="14.104032">
                <ele>1.580000</ele>
                <time>2019-12-01T04:18:37Z</time>
            </trkpt>
            <trkpt lon="100.496519" lat="14.104675">
                <ele>1.580000</ele>
                <time>2019-12-01T04:18:55Z</time>
            </trkpt>
            <trkpt lon="100.496245" lat="14.105151">
                <ele>2.060000</ele>
                <time>2019-12-01T04:19:10Z</time>
            </trkpt>
            <trkpt lon="100.496088" lat="14.105421">
                <ele>1.100000</ele>
                <time>2019-12-01T04:19:20Z</time>
            </trkpt>
            <trkpt lon="100.495720" lat="14.106074">
                <ele>1.100000</ele>
                <time>2019-12-01T04:19:38Z</time>
            </trkpt>
            <trkpt lon="100.495399" lat="14.106665">
                <ele>1.580000</ele>
                <time>2019-12-01T04:19:55Z</time>
            </trkpt>
            <trkpt lon="100.495502" lat="14.107004">
                <ele>1.100000</ele>
                <time>2019-12-01T04:20:05Z</time>
            </trkpt>
            <trkpt lon="100.496031" lat="14.107294">
                <ele>1.580000</ele>
                <time>2019-12-01T04:20:20Z</time>
            </trkpt>
            <trkpt lon="100.496302" lat="14.107435">
                <ele>1.580000</ele>
                <time>2019-12-01T04:20:27Z</time>
            </trkpt>
            <trkpt lon="100.496342" lat="14.107454">
                <ele>1.580000</ele>
                <time>2019-12-01T04:20:28Z</time>
            </trkpt>
            <trkpt lon="100.496624" lat="14.107669">
                <ele>2.060000</ele>
                <time>2019-12-01T04:20:37Z</time>
            </trkpt>
            <trkpt lon="100.496624" lat="14.107701">
                <ele>2.060000</ele>
                <time>2019-12-01T04:20:38Z</time>
            </trkpt>
            <trkpt lon="100.496610" lat="14.107810">
                <ele>1.100000</ele>
                <time>2019-12-01T04:20:41Z</time>
            </trkpt>
            <trkpt lon="100.496615" lat="14.107850">
                <ele>1.100000</ele>
                <time>2019-12-01T04:20:42Z</time>
            </trkpt>
            <trkpt lon="100.496525" lat="14.108352">
                <ele>1.100000</ele>
                <time>2019-12-01T04:20:55Z</time>
            </trkpt>
            <trkpt lon="100.496383" lat="14.108858">
                <ele>1.100000</ele>
                <time>2019-12-01T04:21:09Z</time>
            </trkpt>
            <trkpt lon="100.496271" lat="14.109286">
                <ele>1.100000</ele>
                <time>2019-12-01T04:21:21Z</time>
            </trkpt>
            <trkpt lon="100.496249" lat="14.109300">
                <ele>0.620000</ele>
                <time>2019-12-01T04:21:22Z</time>
            </trkpt>
            <trkpt lon="100.496221" lat="14.109310">
                <ele>0.620000</ele>
                <time>2019-12-01T04:21:23Z</time>
            </trkpt>
            <trkpt lon="100.496188" lat="14.109319">
                <ele>1.100000</ele>
                <time>2019-12-01T04:21:24Z</time>
            </trkpt>
            <trkpt lon="100.496152" lat="14.109326">
                <ele>1.100000</ele>
                <time>2019-12-01T04:21:25Z</time>
            </trkpt>
            <trkpt lon="100.495949" lat="14.109347">
                <ele>0.620000</ele>
                <time>2019-12-01T04:21:32Z</time>
            </trkpt>
            <trkpt lon="100.495815" lat="14.109538">
                <ele>1.100000</ele>
                <time>2019-12-01T04:21:41Z</time>
            </trkpt>
            <trkpt lon="100.495300" lat="14.109314">
                <ele>0.620000</ele>
                <time>2019-12-01T04:21:59Z</time>
            </trkpt>
            <trkpt lon="100.494993" lat="14.109181">
                <ele>0.140000</ele>
                <time>2019-12-01T04:22:12Z</time>
            </trkpt>
            <trkpt lon="100.494856" lat="14.109370">
                <ele>0.620000</ele>
                <time>2019-12-01T04:22:21Z</time>
            </trkpt>
            <trkpt lon="100.495097" lat="14.109572">
                <ele>1.580000</ele>
                <time>2019-12-01T04:22:33Z</time>
            </trkpt>
            <trkpt lon="100.495266" lat="14.109677">
                <ele>1.580000</ele>
                <time>2019-12-01T04:22:39Z</time>
            </trkpt>
            <trkpt lon="100.495261" lat="14.109796">
                <ele>1.580000</ele>
                <time>2019-12-01T04:22:43Z</time>
            </trkpt>
            <trkpt lon="100.494903" lat="14.110417">
                <ele>1.100000</ele>
                <time>2019-12-01T04:23:01Z</time>
            </trkpt>
            <trkpt lon="100.494467" lat="14.111230">
                <ele>1.580000</ele>
                <time>2019-12-01T04:23:23Z</time>
            </trkpt>
            <trkpt lon="100.494342" lat="14.111418">
                <ele>1.580000</ele>
                <time>2019-12-01T04:23:29Z</time>
            </trkpt>
            <trkpt lon="100.494003" lat="14.111517">
                <ele>1.580000</ele>
                <time>2019-12-01T04:23:39Z</time>
            </trkpt>
            <trkpt lon="100.493690" lat="14.112238">
                <ele>2.060000</ele>
                <time>2019-12-01T04:23:59Z</time>
            </trkpt>
            <trkpt lon="100.493623" lat="14.112421">
                <ele>1.580000</ele>
                <time>2019-12-01T04:24:05Z</time>
            </trkpt>
            <trkpt lon="100.493602" lat="14.112426">
                <ele>1.580000</ele>
                <time>2019-12-01T04:24:06Z</time>
            </trkpt>
            <trkpt lon="100.493576" lat="14.112423">
                <ele>1.580000</ele>
                <time>2019-12-01T04:24:07Z</time>
            </trkpt>
            <trkpt lon="100.493548" lat="14.112412">
                <ele>1.100000</ele>
                <time>2019-12-01T04:24:08Z</time>
            </trkpt>
            <trkpt lon="100.493523" lat="14.112396">
                <ele>1.100000</ele>
                <time>2019-12-01T04:24:09Z</time>
            </trkpt>
            <trkpt lon="100.493498" lat="14.112373">
                <ele>1.580000</ele>
                <time>2019-12-01T04:24:10Z</time>
            </trkpt>
            <trkpt lon="100.493474" lat="14.112348">
                <ele>1.580000</ele>
                <time>2019-12-01T04:24:11Z</time>
            </trkpt>
            <trkpt lon="100.493268" lat="14.112204">
                <ele>1.580000</ele>
                <time>2019-12-01T04:24:18Z</time>
            </trkpt>
            <trkpt lon="100.493236" lat="14.112209">
                <ele>2.060000</ele>
                <time>2019-12-01T04:24:19Z</time>
            </trkpt>
            <trkpt lon="100.493181" lat="14.112351">
                <ele>1.580000</ele>
                <time>2019-12-01T04:24:24Z</time>
            </trkpt>
            <trkpt lon="100.493207" lat="14.112381">
                <ele>1.580000</ele>
                <time>2019-12-01T04:24:25Z</time>
            </trkpt>
            <trkpt lon="100.493235" lat="14.112407">
                <ele>1.100000</ele>
                <time>2019-12-01T04:24:26Z</time>
            </trkpt>
            <trkpt lon="100.493265" lat="14.112433">
                <ele>1.580000</ele>
                <time>2019-12-01T04:24:27Z</time>
            </trkpt>
            <trkpt lon="100.493874" lat="14.112815">
                <ele>1.100000</ele>
                <time>2019-12-01T04:24:46Z</time>
            </trkpt>
            <trkpt lon="100.494532" lat="14.113120">
                <ele>1.100000</ele>
                <time>2019-12-01T04:25:05Z</time>
            </trkpt>
            <trkpt lon="100.495199" lat="14.113422">
                <ele>1.100000</ele>
                <time>2019-12-01T04:25:23Z</time>
            </trkpt>
            <trkpt lon="100.495235" lat="14.113448">
                <ele>2.060000</ele>
                <time>2019-12-01T04:25:24Z</time>
            </trkpt>
            <trkpt lon="100.495266" lat="14.113478">
                <ele>2.060000</ele>
                <time>2019-12-01T04:25:25Z</time>
            </trkpt>
            <trkpt lon="100.495289" lat="14.113515">
                <ele>2.060000</ele>
                <time>2019-12-01T04:25:26Z</time>
            </trkpt>
            <trkpt lon="100.495302" lat="14.113556">
                <ele>1.580000</ele>
                <time>2019-12-01T04:25:27Z</time>
            </trkpt>
            <trkpt lon="100.495312" lat="14.113599">
                <ele>1.100000</ele>
                <time>2019-12-01T04:25:28Z</time>
            </trkpt>
            <trkpt lon="100.495317" lat="14.113642">
                <ele>1.580000</ele>
                <time>2019-12-01T04:25:29Z</time>
            </trkpt>
            <trkpt lon="100.495321" lat="14.113685">
                <ele>1.100000</ele>
                <time>2019-12-01T04:25:30Z</time>
            </trkpt>
            <trkpt lon="100.495343" lat="14.113856">
                <ele>1.100000</ele>
                <time>2019-12-01T04:25:34Z</time>
            </trkpt>
            <trkpt lon="100.495441" lat="14.114611">
                <ele>2.060000</ele>
                <time>2019-12-01T04:25:52Z</time>
            </trkpt>
            <trkpt lon="100.495391" lat="14.115121">
                <ele>2.060000</ele>
                <time>2019-12-01T04:26:06Z</time>
            </trkpt>
            <trkpt lon="100.495375" lat="14.115147">
                <ele>1.580000</ele>
                <time>2019-12-01T04:26:07Z</time>
            </trkpt>
            <trkpt lon="100.495202" lat="14.115153">
                <ele>1.580000</ele>
                <time>2019-12-01T04:26:12Z</time>
            </trkpt>
            <trkpt lon="100.494892" lat="14.115013">
                <ele>2.060000</ele>
                <time>2019-12-01T04:26:21Z</time>
            </trkpt>
            <trkpt lon="100.494668" lat="14.115434">
                <ele>0.620000</ele>
                <time>2019-12-01T04:26:33Z</time>
            </trkpt>
            <trkpt lon="100.494496" lat="14.115740">
                <ele>0.620000</ele>
                <time>2019-12-01T04:26:42Z</time>
            </trkpt>
            <trkpt lon="100.494412" lat="14.116109">
                <ele>0.620000</ele>
                <time>2019-12-01T04:26:52Z</time>
            </trkpt>
            <trkpt lon="100.494432" lat="14.116165">
                <ele>2.060000</ele>
                <time>2019-12-01T04:26:54Z</time>
            </trkpt>
            <trkpt lon="100.494706" lat="14.116367">
                <ele>1.580000</ele>
                <time>2019-12-01T04:27:04Z</time>
            </trkpt>
            <trkpt lon="100.494697" lat="14.116678">
                <ele>1.580000</ele>
                <time>2019-12-01T04:27:14Z</time>
            </trkpt>
            <trkpt lon="100.494588" lat="14.116947">
                <ele>2.060000</ele>
                <time>2019-12-01T04:27:26Z</time>
            </trkpt>
            <trkpt lon="100.494580" lat="14.116953">
                <ele>2.060000</ele>
                <time>2019-12-01T04:27:54Z</time>
            </trkpt>
            <trkpt lon="100.494538" lat="14.116993">
                <ele>2.060000</ele>
                <time>2019-12-01T04:27:58Z</time>
            </trkpt>
            <trkpt lon="100.494298" lat="14.117408">
                <ele>2.060000</ele>
                <time>2019-12-01T04:28:13Z</time>
            </trkpt>
            <trkpt lon="100.494055" lat="14.117856">
                <ele>2.060000</ele>
                <time>2019-12-01T04:28:27Z</time>
            </trkpt>
            <trkpt lon="100.493692" lat="14.118580">
                <ele>2.060000</ele>
                <time>2019-12-01T04:28:48Z</time>
            </trkpt>
            <trkpt lon="100.493624" lat="14.118741">
                <ele>2.060000</ele>
                <time>2019-12-01T04:28:53Z</time>
            </trkpt>
            <trkpt lon="100.493711" lat="14.118874">
                <ele>2.060000</ele>
                <time>2019-12-01T04:28:58Z</time>
            </trkpt>
            <trkpt lon="100.493786" lat="14.119143">
                <ele>1.580000</ele>
                <time>2019-12-01T04:29:09Z</time>
            </trkpt>
            <trkpt lon="100.493731" lat="14.119228">
                <ele>1.100000</ele>
                <time>2019-12-01T04:29:18Z</time>
            </trkpt>
            <trkpt lon="100.493745" lat="14.119208">
                <ele>1.100000</ele>
                <time>2019-12-01T04:29:26Z</time>
            </trkpt>
            <trkpt lon="100.493783" lat="14.119133">
                <ele>1.580000</ele>
                <time>2019-12-01T04:29:31Z</time>
            </trkpt>
            <trkpt lon="100.493851" lat="14.119005">
                <ele>1.100000</ele>
                <time>2019-12-01T04:29:36Z</time>
            </trkpt>
            <trkpt lon="100.494160" lat="14.119082">
                <ele>2.060000</ele>
                <time>2019-12-01T04:29:46Z</time>
            </trkpt>
            <trkpt lon="100.494635" lat="14.119313">
                <ele>1.580000</ele>
                <time>2019-12-01T04:30:02Z</time>
            </trkpt>
            <trkpt lon="100.495162" lat="14.119630">
                <ele>2.060000</ele>
                <time>2019-12-01T04:30:20Z</time>
            </trkpt>
            <trkpt lon="100.495596" lat="14.119869">
                <ele>2.540000</ele>
                <time>2019-12-01T04:30:37Z</time>
            </trkpt>
            <trkpt lon="100.495648" lat="14.119858">
                <ele>1.100000</ele>
                <time>2019-12-01T04:30:39Z</time>
            </trkpt>
            <trkpt lon="100.495763" lat="14.119684">
                <ele>2.540000</ele>
                <time>2019-12-01T04:30:49Z</time>
            </trkpt>
            <trkpt lon="100.495784" lat="14.119654">
                <ele>2.540000</ele>
                <time>2019-12-01T04:31:02Z</time>
            </trkpt>
            <trkpt lon="100.495773" lat="14.119681">
                <ele>2.540000</ele>
                <time>2019-12-01T04:31:21Z</time>
            </trkpt>
            <trkpt lon="100.495575" lat="14.119872">
                <ele>2.060000</ele>
                <time>2019-12-01T04:31:36Z</time>
            </trkpt>
            <trkpt lon="100.495262" lat="14.119703">
                <ele>2.540000</ele>
                <time>2019-12-01T04:31:51Z</time>
            </trkpt>
            <trkpt lon="100.494846" lat="14.119432">
                <ele>2.060000</ele>
                <time>2019-12-01T04:32:07Z</time>
            </trkpt>
            <trkpt lon="100.494346" lat="14.119165">
                <ele>2.060000</ele>
                <time>2019-12-01T04:32:23Z</time>
            </trkpt>
            <trkpt lon="100.494280" lat="14.119128">
                <ele>2.540000</ele>
                <time>2019-12-01T04:32:25Z</time>
            </trkpt>
            <trkpt lon="100.493887" lat="14.118975">
                <ele>2.060000</ele>
                <time>2019-12-01T04:32:36Z</time>
            </trkpt>
            <trkpt lon="100.493696" lat="14.119281">
                <ele>1.580000</ele>
                <time>2019-12-01T04:32:47Z</time>
            </trkpt>
            <trkpt lon="100.493610" lat="14.119630">
                <ele>2.060000</ele>
                <time>2019-12-01T04:32:58Z</time>
            </trkpt>
            <trkpt lon="100.493498" lat="14.119832">
                <ele>2.540000</ele>
                <time>2019-12-01T04:33:10Z</time>
            </trkpt>
            <trkpt lon="100.493485" lat="14.119838">
                <ele>2.540000</ele>
                <time>2019-12-01T04:33:16Z</time>
            </trkpt>
            <trkpt lon="100.493290" lat="14.119815">
                <ele>2.060000</ele>
                <time>2019-12-01T04:33:25Z</time>
            </trkpt>
            <trkpt lon="100.492937" lat="14.119455">
                <ele>2.540000</ele>
                <time>2019-12-01T04:33:39Z</time>
            </trkpt>
            <trkpt lon="100.492826" lat="14.119396">
                <ele>2.540000</ele>
                <time>2019-12-01T04:33:42Z</time>
            </trkpt>
            <trkpt lon="100.492664" lat="14.119346">
                <ele>2.060000</ele>
                <time>2019-12-01T04:33:46Z</time>
            </trkpt>
            <trkpt lon="100.492091" lat="14.119118">
                <ele>1.580000</ele>
                <time>2019-12-01T04:34:02Z</time>
            </trkpt>
            <trkpt lon="100.492064" lat="14.119088">
                <ele>1.580000</ele>
                <time>2019-12-01T04:34:03Z</time>
            </trkpt>
            <trkpt lon="100.491840" lat="14.118611">
                <ele>3.020000</ele>
                <time>2019-12-01T04:34:18Z</time>
            </trkpt>
            <trkpt lon="100.491453" lat="14.118443">
                <ele>2.060000</ele>
                <time>2019-12-01T04:34:30Z</time>
            </trkpt>
            <trkpt lon="100.491315" lat="14.118417">
                <ele>2.060000</ele>
                <time>2019-12-01T04:34:35Z</time>
            </trkpt>
            <trkpt lon="100.491294" lat="14.118434">
                <ele>1.580000</ele>
                <time>2019-12-01T04:34:36Z</time>
            </trkpt>
            <trkpt lon="100.491276" lat="14.118458">
                <ele>1.580000</ele>
                <time>2019-12-01T04:34:37Z</time>
            </trkpt>
            <trkpt lon="100.491264" lat="14.118488">
                <ele>2.060000</ele>
                <time>2019-12-01T04:34:38Z</time>
            </trkpt>
            <trkpt lon="100.491251" lat="14.118523">
                <ele>1.580000</ele>
                <time>2019-12-01T04:34:39Z</time>
            </trkpt>
            <trkpt lon="100.491137" lat="14.118769">
                <ele>2.060000</ele>
                <time>2019-12-01T04:34:47Z</time>
            </trkpt>
            <trkpt lon="100.491115" lat="14.118776">
                <ele>2.060000</ele>
                <time>2019-12-01T04:34:48Z</time>
            </trkpt>
            <trkpt lon="100.491073" lat="14.118762">
                <ele>2.060000</ele>
                <time>2019-12-01T04:34:50Z</time>
            </trkpt>
            <trkpt lon="100.491013" lat="14.118685">
                <ele>1.580000</ele>
                <time>2019-12-01T04:34:54Z</time>
            </trkpt>
            <trkpt lon="100.491019" lat="14.118655">
                <ele>1.580000</ele>
                <time>2019-12-01T04:34:55Z</time>
            </trkpt>
            <trkpt lon="100.491117" lat="14.118376">
                <ele>1.100000</ele>
                <time>2019-12-01T04:35:04Z</time>
            </trkpt>
            <trkpt lon="100.491106" lat="14.118344">
                <ele>1.580000</ele>
                <time>2019-12-01T04:35:05Z</time>
            </trkpt>
            <trkpt lon="100.491054" lat="14.118298">
                <ele>1.580000</ele>
                <time>2019-12-01T04:35:07Z</time>
            </trkpt>
            <trkpt lon="100.491018" lat="14.118283">
                <ele>1.100000</ele>
                <time>2019-12-01T04:35:08Z</time>
            </trkpt>
            <trkpt lon="100.490983" lat="14.118269">
                <ele>1.100000</ele>
                <time>2019-12-01T04:35:09Z</time>
            </trkpt>
            <trkpt lon="100.490948" lat="14.118253">
                <ele>1.580000</ele>
                <time>2019-12-01T04:35:10Z</time>
            </trkpt>
            <trkpt lon="100.490410" lat="14.117952">
                <ele>1.100000</ele>
                <time>2019-12-01T04:35:26Z</time>
            </trkpt>
            <trkpt lon="100.490003" lat="14.117734">
                <ele>1.100000</ele>
                <time>2019-12-01T04:35:39Z</time>
            </trkpt>
            <trkpt lon="100.489688" lat="14.117607">
                <ele>1.580000</ele>
                <time>2019-12-01T04:35:53Z</time>
            </trkpt>
            <trkpt lon="100.489449" lat="14.117540">
                <ele>0.620000</ele>
                <time>2019-12-01T04:36:07Z</time>
            </trkpt>
            <trkpt lon="100.489348" lat="14.117516">
                <ele>1.100000</ele>
                <time>2019-12-01T04:36:17Z</time>
            </trkpt>
            <trkpt lon="100.489057" lat="14.117403">
                <ele>1.100000</ele>
                <time>2019-12-01T04:36:31Z</time>
            </trkpt>
            <trkpt lon="100.489050" lat="14.117387">
                <ele>1.580000</ele>
                <time>2019-12-01T04:36:32Z</time>
            </trkpt>
            <trkpt lon="100.489048" lat="14.117368">
                <ele>1.580000</ele>
                <time>2019-12-01T04:36:33Z</time>
            </trkpt>
            <trkpt lon="100.489045" lat="14.117144">
                <ele>1.100000</ele>
                <time>2019-12-01T04:36:47Z</time>
            </trkpt>
            <trkpt lon="100.489036" lat="14.116901">
                <ele>1.580000</ele>
                <time>2019-12-01T04:37:01Z</time>
            </trkpt>
            <trkpt lon="100.489025" lat="14.116798">
                <ele>1.580000</ele>
                <time>2019-12-01T04:37:15Z</time>
            </trkpt>
            <trkpt lon="100.489012" lat="14.116713">
                <ele>1.580000</ele>
                <time>2019-12-01T04:37:28Z</time>
            </trkpt>
            <trkpt lon="100.488973" lat="14.116671">
                <ele>1.100000</ele>
                <time>2019-12-01T04:37:34Z</time>
            </trkpt>
            <trkpt lon="100.488954" lat="14.116664">
                <ele>1.580000</ele>
                <time>2019-12-01T04:37:35Z</time>
            </trkpt>
            <trkpt lon="100.488933" lat="14.116657">
                <ele>1.100000</ele>
                <time>2019-12-01T04:37:36Z</time>
            </trkpt>
            <trkpt lon="100.488909" lat="14.116652">
                <ele>1.580000</ele>
                <time>2019-12-01T04:37:37Z</time>
            </trkpt>
            <trkpt lon="100.488885" lat="14.116646">
                <ele>1.580000</ele>
                <time>2019-12-01T04:37:38Z</time>
            </trkpt>
            <trkpt lon="100.488624" lat="14.116590">
                <ele>1.580000</ele>
                <time>2019-12-01T04:37:52Z</time>
            </trkpt>
            <trkpt lon="100.488389" lat="14.116546">
                <ele>1.100000</ele>
                <time>2019-12-01T04:38:04Z</time>
            </trkpt>
            <trkpt lon="100.488351" lat="14.116538">
                <ele>1.100000</ele>
                <time>2019-12-01T04:38:10Z</time>
            </trkpt>
            <trkpt lon="100.488340" lat="14.116534">
                <ele>1.580000</ele>
                <time>2019-12-01T04:38:11Z</time>
            </trkpt>
            <trkpt lon="100.488327" lat="14.116532">
                <ele>1.100000</ele>
                <time>2019-12-01T04:38:12Z</time>
            </trkpt>
            <trkpt lon="100.488314" lat="14.116529">
                <ele>1.100000</ele>
                <time>2019-12-01T04:38:13Z</time>
            </trkpt>
            <trkpt lon="100.488255" lat="14.116540">
                <ele>1.100000</ele>
                <time>2019-12-01T04:38:25Z</time>
            </trkpt>
            <trkpt lon="100.488213" lat="14.116495">
                <ele>1.580000</ele>
                <time>2019-12-01T04:38:38Z</time>
            </trkpt>
            <trkpt lon="100.488093" lat="14.116467">
                <ele>1.100000</ele>
                <time>2019-12-01T04:38:53Z</time>
            </trkpt>
            <trkpt lon="100.487951" lat="14.116414">
                <ele>1.580000</ele>
                <time>2019-12-01T04:39:06Z</time>
            </trkpt>
            <trkpt lon="100.487891" lat="14.116358">
                <ele>0.620000</ele>
                <time>2019-12-01T04:39:17Z</time>
            </trkpt>
            <trkpt lon="100.487875" lat="14.116353">
                <ele>1.100000</ele>
                <time>2019-12-01T04:39:19Z</time>
            </trkpt>
            <trkpt lon="100.487862" lat="14.116350">
                <ele>1.100000</ele>
                <time>2019-12-01T04:39:20Z</time>
            </trkpt>
            <trkpt lon="100.487845" lat="14.116345">
                <ele>1.100000</ele>
                <time>2019-12-01T04:39:21Z</time>
            </trkpt>
            <trkpt lon="100.487828" lat="14.116338">
                <ele>1.580000</ele>
                <time>2019-12-01T04:39:22Z</time>
            </trkpt>
            <trkpt lon="100.487809" lat="14.116330">
                <ele>2.060000</ele>
                <time>2019-12-01T04:39:23Z</time>
            </trkpt>
            <trkpt lon="100.487525" lat="14.116204">
                <ele>1.580000</ele>
                <time>2019-12-01T04:39:38Z</time>
            </trkpt>
            <trkpt lon="100.487457" lat="14.116177">
                <ele>1.100000</ele>
                <time>2019-12-01T04:39:43Z</time>
            </trkpt>
            <trkpt lon="100.487446" lat="14.116166">
                <ele>0.620000</ele>
                <time>2019-12-01T04:39:44Z</time>
            </trkpt>
            <trkpt lon="100.487431" lat="14.116157">
                <ele>1.100000</ele>
                <time>2019-12-01T04:39:45Z</time>
            </trkpt>
            <trkpt lon="100.487415" lat="14.116145">
                <ele>1.100000</ele>
                <time>2019-12-01T04:39:46Z</time>
            </trkpt>
            <trkpt lon="100.487397" lat="14.116131">
                <ele>1.100000</ele>
                <time>2019-12-01T04:39:47Z</time>
            </trkpt>
            <trkpt lon="100.487379" lat="14.116110">
                <ele>1.100000</ele>
                <time>2019-12-01T04:39:48Z</time>
            </trkpt>
            <trkpt lon="100.487367" lat="14.116081">
                <ele>1.580000</ele>
                <time>2019-12-01T04:39:49Z</time>
            </trkpt>
            <trkpt lon="100.487373" lat="14.116005">
                <ele>2.060000</ele>
                <time>2019-12-01T04:39:52Z</time>
            </trkpt>
            <trkpt lon="100.487359" lat="14.115886">
                <ele>2.060000</ele>
                <time>2019-12-01T04:39:58Z</time>
            </trkpt>
            <trkpt lon="100.487338" lat="14.115871">
                <ele>2.540000</ele>
                <time>2019-12-01T04:39:59Z</time>
            </trkpt>
            <trkpt lon="100.487313" lat="14.115856">
                <ele>2.540000</ele>
                <time>2019-12-01T04:40:00Z</time>
            </trkpt>
            <trkpt lon="100.487286" lat="14.115843">
                <ele>2.540000</ele>
                <time>2019-12-01T04:40:01Z</time>
            </trkpt>
            <trkpt lon="100.487256" lat="14.115830">
                <ele>2.540000</ele>
                <time>2019-12-01T04:40:02Z</time>
            </trkpt>
            <trkpt lon="100.486920" lat="14.115662">
                <ele>2.060000</ele>
                <time>2019-12-01T04:40:13Z</time>
            </trkpt>
            <trkpt lon="100.486907" lat="14.115630">
                <ele>1.580000</ele>
                <time>2019-12-01T04:40:14Z</time>
            </trkpt>
            <trkpt lon="100.486903" lat="14.115590">
                <ele>1.580000</ele>
                <time>2019-12-01T04:40:15Z</time>
            </trkpt>
            <trkpt lon="100.486909" lat="14.115546">
                <ele>1.100000</ele>
                <time>2019-12-01T04:40:16Z</time>
            </trkpt>
            <trkpt lon="100.486923" lat="14.115502">
                <ele>1.100000</ele>
                <time>2019-12-01T04:40:17Z</time>
            </trkpt>
            <trkpt lon="100.486938" lat="14.115461">
                <ele>0.140000</ele>
                <time>2019-12-01T04:40:18Z</time>
            </trkpt>
            <trkpt lon="100.487122" lat="14.114740">
                <ele>0.620000</ele>
                <time>2019-12-01T04:40:36Z</time>
            </trkpt>
            <trkpt lon="100.487061" lat="14.114275">
                <ele>0.140000</ele>
                <time>2019-12-01T04:40:49Z</time>
            </trkpt>
            <trkpt lon="100.486853" lat="14.114005">
                <ele>1.100000</ele>
                <time>2019-12-01T04:41:02Z</time>
            </trkpt>
            <trkpt lon="100.486845" lat="14.113996">
                <ele>0.620000</ele>
                <time>2019-12-01T04:41:13Z</time>
            </trkpt>
            <trkpt lon="100.486810" lat="14.114000">
                <ele>1.100000</ele>
                <time>2019-12-01T04:41:24Z</time>
            </trkpt>
            <trkpt lon="100.486817" lat="14.113991">
                <ele>1.100000</ele>
                <time>2019-12-01T04:41:44Z</time>
            </trkpt>
            <trkpt lon="100.486814" lat="14.113973">
                <ele>0.620000</ele>
                <time>2019-12-01T04:42:29Z</time>
            </trkpt>
            <trkpt lon="100.486830" lat="14.113972">
                <ele>1.580000</ele>
                <time>2019-12-01T04:43:04Z</time>
            </trkpt>
            <trkpt lon="100.486800" lat="14.113951">
                <ele>1.580000</ele>
                <time>2019-12-01T04:43:31Z</time>
            </trkpt>
            <trkpt lon="100.486781" lat="14.113937">
                <ele>1.100000</ele>
                <time>2019-12-01T04:44:03Z</time>
            </trkpt>
            <trkpt lon="100.486796" lat="14.113934">
                <ele>1.580000</ele>
                <time>2019-12-01T04:44:39Z</time>
            </trkpt>
            <trkpt lon="100.486805" lat="14.113930">
                <ele>0.140000</ele>
                <time>2019-12-01T04:44:58Z</time>
            </trkpt>
        </trkseg>
    </trk>
</gpx>